     2              OBSERVATION DATA    GPS                 RINEX VERSION / TYPE
teqc 1997Jul24 19970902 21:08:07UTC                         PGM / RUN BY / DATE
                                                            COMMENT
BIT 2 OF LLI FLAGS DATA COLLECTED UNDER A-S CONDITION       COMMENT
BIT 2 OF LLI FLAGS DATA COLLECTED UNDER A-S CONDITION       COMMENT
Original Marker Name: 55447.PEAR                            COMMENT
Campaign Name: Salt. Tr. Crust. Monit. May-Jun 1986         COMMENT
4-Character Station Name: PEAR                              COMMENT
6-Character Antenna Code: TI4100                            COMMENT
Vertical Measurement Point: PAE                             COMMENT
Vertical Offset to Rinex Ref. Point: 0.0000                 COMMENT
Radial Measurement Point: RRP                               COMMENT
Radial Offset to Rinex Ref. Point: 0.0000                   COMMENT
Antenna Height from Field Measurement: 1.4690 m             COMMENT
Original XYZ: -2462267.3028 -4650413.6901 3592292.4505      COMMENT
New XYZ position is based on association with SCEC monument COMMENT
E1F2D3B2+0011. Position of that monument is believed to be  COMMENT
valid to within 1 m horizontally; vertical accuracy         COMMENT
should be no worse than 3-times this value.                 COMMENT
                                                            COMMENT
Revised Rinex header created by UCSD GPS archive for        COMMENT
GSAC on 14-Apr-1999 (1999:104) 21:38:13 GMT                 COMMENT
For assistance contact dagnew@ucsd.edu or hjohnson@ucsd.edu COMMENT
                                                            COMMENT
PEARBLOSSOM NCMN 1983                                       MARKER NAME
5 NATIONAL GEODETIC SURVEY                                  OBSERVER / AGENCY
UT-18 TI 4100 1.0                                           REC # / TYPE / VERS
4014 TI 4100                                                ANT # / TYPE
 -2464071.0000 -4649425.0000  3593906.0000                  APPROX POSITION XYZ
        1.4690        0.0000        0.0000                  ANTENNA: DELTA H/E/N
     1     1     0                                          WAVELENGTH FACT L1/2
     4    P1    P2    L1    L2                              # / TYPES OF OBSERV
     6                                                      INTERVAL
  1986     6    11    23    23   23.000000                  TIME OF FIRST OBS
  1986     6    12     1    10   59.000000                  TIME OF LAST OBS
     0                                                      # OF SATELLITES
                                                            END OF HEADER
 86  6 11 23 23 22.7000000  0  1G11
  18382219.454    18382220.728      164661.161 8    -18347.825 9
 86  6 11 23 24 35.0800000  0  1G 8
                                  18042114.830     -201455.106 9
 86  6 11 23 24 41.0800000  0  3G 8G 9G11
                                  18043802.139     -192610.981 9
                  20376899.723     -353453.153 9
                                  18349675.888     -326843.264 7
 86  6 11 23 24 47.0800000  0  4G 6G 8G 9G11
                                  18347078.070     -500312.482 1
                                  18045512.501     -183741.879 8
                  20373593.576     -370774.563 9
                                  18347202.095     -339785.267 8
 86  6 11 23 24 53.0800000  0  4G 6G 8G 9G11
                                  18343119.167     -530268.333 1
  18047204.538    18047208.866     -174847.389 9    671201.064 9
                  20370334.075     -388096.970 8
                                  18344766.771     -352707.409 9
 86  6 11 23 24 59.0800000  0  4G 6G 8G 9G11
                                  18340766.868     -560468.675 1
  18048901.997    18048904.669     -165927.677 9    678151.562 8
  20367034.656    20367036.143     -405418.693 9    708460.793 8
  18342311.947    18342313.932     -365608.106 9    710188.012 9
 86  6 11 23 25  5.0800000  0  4G 6G 8G 9G11
                                  18339695.921     -607536.821 1
  18050605.727    18050606.551     -156982.810 9    685121.074 8
  20363739.612    20363740.928     -422740.671 8    694963.191 8
  18339859.870    18339864.732     -378488.099 9    700151.626 8
 86  6 11 23 25 11.0800000  0  4G 6G 8G 9G11
                                  18335589.766     -637520.734 1
  18052311.201    18052313.608     -148012.847 9    692110.648 8
  20360443.604    20360445.890     -440062.815 9    681465.412 8
  18337414.584    18337417.027     -391347.414 9    690131.888 7
 86  6 11 23 25 17.0800000  0  4G 6G 8G 9G11
                                  18333265.590     -684332.757 1
  18054023.917    18054025.352     -139017.759 9    699119.803 8
  20357147.494    20357149.283     -457385.133 9    667967.519 8
  18334969.566    18334972.947     -404186.035 9    680127.778 8
 86  6 11 23 25 23.0800000  0  4G 6G 8G 9G11
                                  18330518.428     -714784.098 1
  18055739.667    18055741.527     -129997.564 9    706148.526 8
  20353851.244    20353852.044     -474707.626 9    654469.488 8
  18332531.142    18332534.257     -417003.928 9    670139.813 8
 86  6 11 23 25 29.0800000  0  4G 6G 8G 9G11
                                  18328463.739     -744768.167 1
  18057461.456    18057462.801     -120952.334 9    713196.759 9
  20350554.733    20350556.125     -492030.377 8    640971.239 9
  18330095.608    18330098.457     -429801.110 9    660167.987 8
 86  6 11 23 25 35.0800000  0  4G 6G 8G 9G11
                                  18325351.135     -791558.388 1
  18059188.058    18059187.909     -111882.022 9    720264.538 8
  20347258.541    20347259.370     -509353.226 8    627472.923 9
  18327665.405    18327666.308     -442577.550 8    650212.330 7
 86  6 11 23 25 41.0800000  0  4G 6G 8G 9G11
                                  18323267.323     -821278.868 1
  18060918.395    18060920.495     -102786.665 9    727351.826 8
  20343962.403    20343963.364     -526676.145 9    613974.552 8
  18325237.434    18325240.003     -455333.187 8    640272.873 8
 86  6 11 23 25 47.0800000  0  4G 6G 8G 9G11
                                  18327294.326     -834690.823 1
  18062653.437    18062655.754      -93666.302 9    734458.610 7
  20340665.453    20340667.325     -543999.192 8    600476.074 8
  18322813.538    18322815.886     -468068.061 9    630349.596 8
 86  6 11 23 25 53.0800000  0  4G 6G 8G 9G11
                                  18333229.322     -848086.128 1
  18064394.407    18064395.580      -84520.968 9    741584.838 8
  20337368.814    20337370.143     -561322.348 9    586977.521 8
  18320395.142    18320397.417     -480782.149 9    620442.519 8
 86  6 11 23 25 59.0800000  0  4G 6G 8G 9G11
                                  18339197.538     -861464.784 1
  18066139.791    18066140.627      -75350.628 9    748730.553 8
  20334071.734    20334073.680     -578645.631 9    573478.868 9
  18317980.201    18317983.020     -493475.427 9    610551.668 7
 86  6 11 23 26  5.0800000  0  4G 6G 8G 9G11
                                  18345315.043     -874826.791 1
  18067889.319    18067891.072      -66155.373 9    755895.685 8
  20330775.610    20330777.012     -595969.021 9    559980.130 8
  18315567.865    18315571.257     -506147.903 9    600677.012 7
 86  6 11 23 26 11.0800000  0  4G 6G 8G 9G11
                                  18351259.493     -888172.150 1
  18069643.540    18069645.595      -56935.186 8    763080.248 9
  20327479.603    20327479.662     -613292.511 9    546481.301 7
  18313161.557    18313164.361     -518799.468 8    590818.648 8
 86  6 11 23 26 17.0800000  0  4G 6G 8G 9G11
                                  18357383.197     -901500.860 1
  18071401.745    18071405.290      -47690.017 9    770284.278 9
  20324182.906    20324184.167     -630616.053 9    532982.434 8
  18310756.911    18310757.717     -531430.203 8    580976.525 7
 86  6 11 23 26 23.0800000  0  4G 6G 8G 9G11
                                  18363510.532     -914812.922 1
  18073166.571    18073168.833      -38419.977 9    777507.686 8
  20320884.642    20320886.785     -647939.701 9    519483.497 8
  18308357.782    18308360.072     -544040.117 9    571150.619 8
 86  6 11 23 26 29.0800000  0  4G 6G 8G 9G11
                                  18369464.812     -928108.334 1
  18074935.352    18074937.484      -29125.085 9    784750.458 9
  20317587.873    20317591.234     -665263.433 9    505984.492 8
  18305962.007    18305962.806     -556629.161 9    561340.975 7
 86  6 11 23 26 35.0800000  0  4G 6G 8G 9G11
                                  18375597.678     -941387.098 1
  18076708.015    18076711.100      -19805.353 8    792012.584 8
  20314291.235    20314294.709     -682587.232 8    492485.434 8
  18303570.972    18303572.682     -569197.299 9    551547.625 8
 86  6 11 23 26 41.0800000  0  4G 6G 8G 9G11
                                  18381558.429     -954649.213 1
  18078487.522    18078488.752      -10460.779 9    799294.068 8
  20310995.998    20310998.190     -699911.034 9    478986.364 8
  18301182.293    18301183.382     -581744.496 8    541770.589 7
 86  6 11 23 26 47.0800000  0  4G 6G 8G 9G11
                                  18387434.617     -967894.679 1
  18080270.499    18080272.270       -1091.331 9    806594.932 8
  20307698.231    20307702.209     -717234.879 8    465487.273 8
  18298799.041    18298800.737     -594270.801 9    532009.834 8
 86  6 11 23 26 53.0800000  0  4G 6G 8G 9G11
                                  18393313.566     -981123.497 1
  18082057.879    18082059.632        8302.928 9    813915.148 8
  20304402.194    20304405.173     -734558.741 8    451988.167 9
  18296419.430    18296421.301     -606776.142 9    522265.418 8
 86  6 11 23 26 59.0800000  0  4G 6G 8G 9G11
                                  18399371.122     -994335.666 1
  18083849.905    18083852.430       17721.973 9    821254.659 8
  20301105.658    20301107.963     -751882.625 9    438489.044 8
  18294044.204    18294045.413     -619260.537 9    512537.315 8
 86  6 11 23 27  5.0800000  0  4G 6G 8G 9G11
                                  18405520.583    -1007531.186 1
  18085647.164    18085649.391       27165.790 8    828613.479 8
  20297808.806    20297810.436     -769206.466 8    424989.957 8
  18291672.526    18291674.085     -631724.019 8    502825.528 8
 86  6 11 23 27 11.0800000  0  4G 6G 8G 9G11
                                  18411409.363    -1020710.057 1
  18087449.209    18087450.812       36634.361 9    835991.581 8
  20294512.368    20294513.971     -786530.319 8    411490.849 9
  18289305.312    18289305.907     -644166.518 9    493130.073 8
 86  6 11 23 27 17.0800000  0  4G 6G 8G 9G11
                                  18417388.834    -1033872.279 1
  18089255.901    18089257.438       46127.643 9    843388.950 8
  20291215.515    20291217.935     -803854.166 9    397991.758 8
  18286940.663    18286942.296     -656588.047 9    483450.965 8
 86  6 11 23 27 23.0800000  0  3G 8G 9G11
  18091066.601    18091068.048       55645.656 9    850805.589 8
  20287919.452    20287921.411     -821178.008 8    384492.685 9
  18284580.566    18284582.342     -668988.536 9    473788.244 7
 86  6 11 23 27 29.0800000  0  3G 8G 9G11
  18092881.970    18092884.468       65188.360 9    858241.455 9
  20284623.057    20284624.487     -838501.790 9    370993.642 7
  18282224.178    18282227.631     -681367.958 9    464141.943 8
 86  6 11 23 27 35.0800000  0  3G 8G 9G11
  18094702.895    18094706.298       74755.808 9    865696.612 8
  20281325.590    20281328.393     -855825.490 8    357494.664 8
  18279873.141    18279874.360     -693726.269 9    454512.096 8
 86  6 11 23 27 41.0800000  0  3G 8G 9G11
  18096528.639    18096530.080       84347.850 9    873170.917 8
  20278029.439    20278030.440     -873149.123 9    343995.737 8
  18277525.789    18277527.700     -706063.526 8    444898.649 7
 86  6 11 23 27 47.0800000  0  3G 8G 9G11
  18098358.286    18098361.233       93964.602 9    880664.497 9
  20274732.874    20274734.976     -890472.582 8    330496.945 9
  18275181.439    18275183.266     -718379.619 8    435301.703 8
 86  6 11 23 27 53.0800000  0  3G 8G 9G11
  18100193.594    18100195.598      103606.041 8    888177.303 7
  20271437.383    20271438.776     -907795.960 8    316998.217 7
  18272842.006    18272845.808     -730674.611 8    425721.187 7
 86  6 11 23 27 59.0800000  0  3G 8G 9G11
  21019808.396    21019811.574      113198.021 9    895771.054 8
  23185925.466    23185927.219     -925149.600 9    303595.374 8
  21188290.472    21188293.080     -742987.065 9    416246.537 8
 86  6 11 23 28  5.0800000  0  4G 6G 8G 9G11
                  20915864.259    -1588905.614 9
  21021652.957    21021655.432      122888.622 9    903322.168 9
  23182628.406    23182631.360     -942472.872 9    290096.732 7
  21185957.540    21185962.300     -755239.924 9    406698.858 7
 86  6 11 23 28 11.0800000  0  4G 6G 8G 9G11
                  20914376.875    -1596692.392 9
  21023502.120    21023504.147      132603.788 9    910892.435 9
  23179332.047    23179333.407     -959795.957 8    276598.232 8
  21183631.222    21183633.051     -767471.647 9    397167.657 8
 86  6 11 23 28 17.0800000  0  4G 6G 8G 9G11
                  20912928.506    -1604470.262 9
  21025355.740    21025356.903      142343.490 9    918481.813 8
  23176035.939    23176037.985     -977118.895 9    263099.832 8
  21181307.833    21181309.891     -779682.203 9    387652.939 8
 86  6 11 23 28 23.0800000  0  4G 6G 8G 9G11
  20911452.287    20911449.613    -1612238.615 9   2262700.451 8
  21027214.237    21027214.369      152107.775 9    926090.344 9
  23172740.646    23172741.253     -994441.731 9    249601.532 8
  21178987.481    21178989.819     -791871.575 9    378154.725 7
 86  6 11 23 28 29.0800000  0  4G 6G 8G 9G11
  20909974.289    20909974.917    -1619997.810 9   2256654.358 9
  21029076.206    21029077.771      161896.562 9    933717.972 8
  23169442.908    23169444.230    -1011764.432 9    236103.323 8
  21176671.109    21176674.354     -804039.763 9    368673.023 8
 86  6 11 23 28 35.0800000  0  4G 6G 8G 9G11
  20908499.468    20908500.198    -1627747.740 9   2250615.460 9
  21030943.801    21030945.526      171709.815 8    941364.668 9
  23166146.419    23166148.052    -1029086.979 8    222605.246 8
  21174360.669    21174363.205     -816186.779 8    359207.821 8
 86  6 11 23 28 41.0800000  0  4G 6G 8G 9G11
  20907025.221    20907027.582    -1635488.392 9   2244583.778 9
  21032816.576    21032817.980      181547.555 9    949030.432 8
  23162850.813    23162852.121    -1046409.378 9    209107.281 8
  21172053.455    21172055.745     -828312.609 8    349759.128 8
 86  6 11 23 28 47.0800000  0  4G 6G 8G 9G11
  20905555.094    20905555.881    -1643219.755 9   2238559.340 9
  21034693.102    21034693.372      191409.716 9    956715.252 8
  23159554.770    23159556.200    -1063731.568 9    195609.468 8
  21169749.719    21169752.041     -840417.232 9    340326.962 8
 86  6 11 23 28 53.0800000  0  4G 6G 8G 9G11
  20904085.540    20904086.871    -1650941.820 9   2232542.153 9
  21036574.888    21036575.004      201296.331 9    964419.091 8
  23156258.140    23156258.631    -1081053.560 9    182111.822 8
  21167450.440    21167453.663     -852500.655 8    330911.307 9
 86  6 11 23 28 59.0800000  0  4G 6G 8G 9G11
  20902617.530    20902619.148    -1658654.559 9   2226532.225 9
  21038460.828    21038461.543      211207.332 8    972141.946 7
  23152961.552    23152963.247    -1098375.345 9    168614.329 8
  21165154.619    21165158.014     -864562.828 9    321512.204 8
 86  6 11 23 29  5.0800000  0  4G 6G 8G 9G11
  20901151.011    20901153.258    -1666357.975 9   2220529.557 9
  21040351.498    21040351.938      221142.771 9    979883.852 8
  23149664.842    23149666.924    -1115696.935 9    155116.989 9
  21162863.525    21162866.891     -876603.695 8    312129.725 7
 86  6 11 23 29 11.0800000  0  4G 6G 8G 9G11
  20899687.752    20899689.054    -1674052.066 8   2214534.169 9
  21042247.342    21042247.329      231102.606 8    987644.758 8
  23146369.570    23146370.974    -1133018.309 9    141619.821 8
  21160576.232    21160578.439     -888623.273 9    302763.825 8
 86  6 11 23 29 17.0800000  0  4G 6G 8G 9G11
  20898224.837    20898226.354    -1681736.767 9   2208546.089 9
  21044146.897    21044147.990      241086.815 9    995424.662 8
  23143073.579    23143074.693    -1150339.436 9    128122.850 9
  21158293.091    21158294.977     -900621.515 9    293414.542 7
 86  6 11 23 29 23.0800000  0  4G 6G 8G 9G11
  20896764.326    20896764.671    -1689412.069 9   2202565.337 9
  21046051.447    21046052.816      251095.324 9   1003223.494 8
  23139776.696    23139779.129    -1167660.387 9    114626.007 8
  21156012.864    21156016.039     -912598.496 8    284081.836 8
 86  6 11 23 29 29.0800000  0  4G 6G 8G 9G11
  20895305.534    20895306.721    -1697078.004 9   2196591.886 9
  21047959.581    21047960.745      261128.172 9   1011041.303 8
  23136480.366    23136482.421    -1184981.131 9    101129.332 8
  21153738.292    21153741.078     -924554.170 9    274765.733 8
 86  6 11 23 29 35.0800000  0  4G 6G 8G 9G11
  20893848.943    20893849.644    -1704734.542 9   2190625.751 9
  21049872.821    21049874.628      271185.331 9   1018878.040 8
  23133184.911    23133185.383    -1202301.590 9     87632.872 8
  21151467.275    21151469.914     -936488.535 9    265466.229 8
 86  6 11 23 29 41.0800000  0  4G 6G 8G 9G11
  20892392.526    20892394.241    -1712381.665 9   2184666.958 9
  21051791.758    21051792.940      281266.760 8   1026733.698 8
  23129888.687    23129890.154    -1219621.606 9     74136.763 8
  21149201.439    21149204.213     -948401.520 9    256183.396 7
 86  6 11 23 29 47.0800000  0  4G 6G 8G 9G11
  20890939.799    20890941.316    -1720019.310 9   2178715.543 9
  21053714.825    21053716.554      291372.448 9   1034608.266 8
  23126592.643    23126593.816    -1236941.412 9     60640.825 8
  21146938.305    21146940.401     -960293.071 8    246917.252 7
 86  6 11 23 29 53.0800000  0  4G 6G 8G 9G11
  20889488.616    20889490.719    -1727647.506 9   2172771.493 9
  21055643.008    21055644.354      301502.407 8   1042501.737 8
  23123296.829    23123298.165    -1254260.933 9     47145.094 8
  21144679.437    21144681.194     -972163.232 8    237667.773 8
 86  6 11 23 29 59.0800000  0  4G 6G 8G 9G11
  20888038.952    20888040.970    -1735266.272 9   2166834.796 9
  21057575.366    21057575.917      311656.623 9   1050414.092 8
  23120001.371    23120002.473    -1271580.171 9     33649.589 9
  21142424.917    21142426.855     -984012.028 8    228434.952 8
 86  6 11 23 30  5.0800000  0  4G 6G 8G 9G11
  20886591.263    20886592.107    -1742875.527 8   2160905.507 9
  21059512.309    21059513.425      321835.019 9   1058345.318 8
  23116705.945    23116707.882    -1288899.117 9     20154.312 8
  21140173.855    21140175.078     -995839.405 9    219218.828 8
 86  6 11 23 30 11.0800000  0  4G 6G 8G 9G11
  20885144.776    20885145.777    -1750475.246 9   2154983.647 8
  21061454.023    21061454.425      332037.563 9   1066295.355 8
  23113410.772    23113411.945    -1306217.690 9      6659.325 7
  21137927.104    21137929.172    -1007645.420 9    210019.342 8
 86  6 11 23 30 17.0800000  0  4G 6G 8G 9G11
  20883700.948    20883701.837    -1758065.447 9   2149069.204 9
  21063399.564    21063401.389      342264.268 9   1074264.217 8
  23110114.077    23110115.743    -1323535.945 8     -6835.411 9
  21135685.028    21135686.770    -1019430.013 9    200836.540 8
 86  6 11 23 30 23.0800000  0  4G 6G 8G 9G11
  20882257.009    20882259.527    -1765646.182 9   2143162.142 9
  21065348.936    21065352.300      352515.153 9   1082251.912 8
  23106818.649    23106820.946    -1340853.850 9    -20329.869 9
  21133445.983    21133448.781    -1031193.169 8    191670.449 8
 86  6 11 23 30 29.0800000  0  4G 6G 8G 9G11
  20880816.646    20880817.861    -1773217.338 9   2137262.537 9
  21067305.219    21067306.088      362790.139 9   1090258.404 8
  23103523.156    23103525.946    -1358171.467 9    -33824.107 8
  21131212.315    21131213.012    -1042934.810 8    182521.114 8
 86  6 11 23 30 35.0800000  0  4G 6G 8G 9G11
  20879378.485    20879379.215    -1780778.966 9   2131370.364 9
  21069265.242    21069266.677      373089.207 8   1098283.650 9
  23100228.630    23100230.039    -1375488.681 8    -47318.027 9
  21128980.810    21128984.387    -1054655.005 9    173388.497 8
 86  6 11 23 30 41.0800000  0  4G 6G 8G 9G11
  20877941.613    20877941.885    -1788330.995 9   2125485.676 8
  21071229.497    21071231.260      383412.399 8   1106327.688 8
  23096933.373    23096934.710    -1392805.441 9    -60811.595 9
  21126755.393    21126757.835    -1066353.738 8    164272.609 8
 86  6 11 23 30 47.0800000  0  4G 6G 8G 9G11
  20876506.116    20876507.718    -1795873.448 9   2119608.427 8
  21073199.339    21073199.950      393759.640 8   1114390.466 8
  23093637.801    23093639.733    -1410121.858 8    -74304.898 8
  21124532.866    21124536.171    -1078030.954 8    155173.485 8
 86  6 11 23 30 53.0800000  0  4G 6G 8G 9G11
  20875072.907    20875073.722    -1803406.284 9   2113738.689 9
  21075171.753    21075173.817      404130.934 9   1122472.010 9
  23090341.508    23090343.833    -1427437.870 9    -87797.870 9
  21122314.965    21122317.224    -1089686.638 9    146091.140 8
 86  6 11 23 30 59.0800000  0  4G 6G 8G 9G11
  20873640.271    20873641.672    -1810929.481 9   2107876.458 9
  21077151.191    21077150.824      414526.274 9   1130572.269 7
  23087046.829    23087049.685    -1444753.461 8   -101290.526 9
  21120101.329    21120102.433    -1101320.851 8    137025.523 8
 86  6 11 23 31  5.0800000  0  4G 6G 8G 9G11
  20872210.867    20872212.470    -1818443.028 9   2102021.756 9
  21079134.293    21079134.465      424945.617 9   1138691.235 9
  23083753.319    23083754.778    -1462068.617 8   -114782.836 9
  21117891.478    21117893.481    -1112933.538 9    127976.688 7
 86  6 11 23 31 11.0800000  0  4G 6G 8G 9G11
  20870783.612    20870784.156    -1825946.913 9   2096174.567 9
  21081121.417    21081120.971      435388.988 8   1146828.926 8
  23080458.205    23080459.486    -1479383.356 8   -128274.818 9
  21115685.763    21115687.660    -1124524.649 9    118944.643 7
 86  6 11 23 31 17.0800000  0  4G 6G 8G 9G11
  20869356.727    20869358.687    -1833441.145 9   2090334.908 8
  21083112.592    21083114.085      445856.302 9   1154985.269 9
  23077162.977    23077165.416    -1496697.630 7   -141766.451 9
  21113484.267    21113485.985    -1136094.237 9    109929.403 9
 86  6 11 23 31 23.0800000  0  4G 6G 8G 9G11
  20867931.732    20867933.349    -1840925.720 9   2084502.774 9
  21085109.157    21085110.853      456347.558 9   1163160.276 9
  23073867.856    23073870.388    -1514011.533 8   -155257.789 9
  21111286.303    21111289.322    -1147642.180 9    100930.999 8
 86  6 11 23 31 29.0800000  0  4G 6G 8G 9G11
  20866510.857    20866511.142    -1848400.581 9   2078678.216 9
  21087110.215    21087111.205      466862.720 9   1171353.900 8
  23070573.230    23070575.167    -1531324.963 9   -168748.751 9
  21109093.081    21109095.667    -1159168.484 8     91949.468 8
 86  6 11 23 31 35.0800000  0  4G 6G 8G 9G11
  20865089.555    20865090.569    -1855865.700 9   2072861.241 8
  21089115.702    21089117.815      477401.805 9   1179566.179 9
  23067278.988    23067281.055    -1548637.900 8   -182239.335 9
  21106903.759    21106905.750    -1170673.192 8     82984.765 7
 86  6 11 23 31 41.0800000  0  4G 6G 8G 9G11
  20863670.367    20863672.500    -1863321.116 9   2067051.813 9
  21091125.320    21091126.836      487964.755 8   1187797.042 8
  23063984.189    23063985.499    -1565950.286 8   -195729.500 8
  21104718.853    21104721.045    -1182156.324 8     74036.877 8
 86  6 11 23 31 47.0800000  0  4G 6G 8G 9G11
  20862253.271    20862255.618    -1870766.829 9   2061249.963 9
  21093139.361    21093143.184      498551.548 9   1196046.488 8
  23060689.691    23060691.615    -1583262.251 8   -209219.326 9
  21102537.273    21102540.945    -1193617.808 9     65105.847 8
 86  6 11 23 31 53.0800000  0  4G 6G 8G 9G11
  20860839.352    20860839.795    -1878202.706 9   2055455.779 9
  21095159.610    21095161.665      509162.165 9   1204314.511 8
  23057395.994    23057397.253    -1600573.706 8   -222708.764 9
  21100360.891    21100363.185    -1205057.679 9     56191.666 8
 86  6 11 23 31 59.0800000  0  4G 6G 8G 9G11
  20859426.433    20859426.792    -1885628.851 9   2049669.178 9
  21097182.548    21097184.766      519796.627 8   1212601.094 9
  23054101.057    23054103.876    -1617884.644 8   -236197.802 9
  21098188.029    21098190.336    -1216475.934 8     47294.336 8
 86  6 11 23 32  5.0800000  0  4G 6G 8G 9G11
  20858014.364    20858015.315    -1893045.197 9   2043890.204 9
  21099210.590    21099213.440      530454.909 9   1220906.236 8
  23050807.681    23050809.747    -1635195.042 9   -249686.412 9
  21096018.527    21096021.661    -1227872.522 9     38413.883 8
 86  6 11 23 32 11.0800000  0  4G 6G 8G 9G11
  20856604.783    20856606.088    -1900451.741 9   2038118.864 9
  21101243.496    21101246.447      541136.947 9   1229229.907 8
  23047513.306    23047516.352    -1652504.903 8   -263174.606 9
  21093854.253    21093857.909    -1239247.450 9     29550.301 8
 86  6 11 23 32 17.0800000  0  4G 6G 8G 9G11
  20855197.956    20855199.154    -1907848.456 9   2032355.205 9
  21103280.666    21103283.831      551842.755 9   1237572.092 9
  23044219.187    23044222.046    -1669814.220 9   -276662.376 9
  21091694.716    21091697.225    -1250600.714 8     20703.603 8
 86  6 11 23 32 23.0800000  0  4G 6G 8G 9G11
  20853792.061    20853793.383    -1915235.347 9   2026599.177 9
  21105322.417    21105325.352      562572.316 9   1245932.793 9
  23040926.784    23040927.492    -1687123.061 9   -290149.780 9
  21089537.150    21089540.940    -1261932.279 9     11873.818 8
 86  6 11 23 32 29.0800000  0  4G 6G 8G 9G11
  20852388.298    20852388.850    -1922612.342 9   2020850.864 9
  21107368.689    21107371.009      573325.573 9   1254311.957 9
  23037633.166    23037633.781    -1704431.298 8   -303636.708 9
  21087384.714    21087388.558    -1273242.101 9      3060.986 8
 86  6 11 23 32 35.0800000  0  4G 6G 8G 9G11
  20850985.278    20850987.293    -1929979.536 8   2015110.203 9
  21109420.080    21109422.275      584102.543 8   1262709.588 8
  23034338.267    23034340.948    -1721738.934 9   -317123.169 9
  21085238.223    21085240.462    -1284530.177 8     -5734.918 8
 86  6 11 23 32 41.0800000  0  4G 6G 8G 9G11
  20849585.729    20849586.535    -1937336.842 8   2009377.227 8
  21111474.424    21111476.572      594903.188 9   1271125.671 8
  23031045.007    23031047.666    -1739045.968 8   -330609.169 9
  21083093.893    21083095.891    -1295796.449 8    -14513.825 8
 86  6 11 23 32 47.0800000  0  4G 6G 8G 9G11
  20848188.056    20848189.547    -1944684.229 9   2003651.995 9
  21113535.320    21113537.011      605727.479 9   1279560.190 9
  23027752.111    23027754.420    -1756352.421 9   -344094.713 9
  21080954.078    21080956.037    -1307040.976 8    -23275.797 8
 86  6 11 23 32 53.0800000  0  4G 6G 8G 9G11
  20846791.998    20846793.339    -1952021.673 9   1997934.516 8
  21115599.048    21115601.454      616575.395 9   1288013.114 8
  23024459.486    23024460.474    -1773658.206 9   -357579.725 8
  21078818.163    21078821.097    -1318263.762 9    -32020.812 9
 86  6 11 23 32 59.0800000  0  4G 6G 8G 9G11
  20845397.117    20845398.388    -1959349.216 9   1992224.725 9
  21117667.928    21117669.590      627446.981 9   1296484.466 8
  23021166.218    23021167.906    -1790963.381 9   -371064.275 9
  21076687.252    21076689.016    -1329464.758 9    -40748.866 8
 86  6 11 23 33  5.0800000  0  4G 6G 8G 9G11
  20844004.543    20844005.987    -1966666.800 9   1986522.718 9
  21119741.101    21119742.821      638342.145 9   1304974.210 8
  23017873.350    23017874.602    -1808267.916 9   -384548.321 9
  21074560.111    21074561.479    -1340643.958 9    -49459.929 8
 86  6 11 23 33 11.0800000  0  4G 6G 8G 9G11
  20842613.220    20842614.977    -1973974.409 9   1980828.483 9
  21121818.909    21121821.603      649260.871 8   1313482.307 8
  23014579.606    23014582.457    -1825571.761 9   -398031.831 9
  21072435.444    21072438.510    -1351801.336 9    -58153.977 8
 86  6 11 23 33 17.0800000  0  4G 6G 8G 9G11
  20841225.453    20841226.296    -1981272.015 9   1975142.043 8
  21123901.670    21123903.704      660203.156 9   1322008.758 8
  23011286.859    23011289.969    -1842874.936 9   -411514.836 9
  21070317.118    21070320.166    -1362936.884 9    -66831.020 8
 86  6 11 23 33 23.0800000  0  4G 6G 8G 9G11
  20839838.994    20839839.558    -1988559.640 9   1969463.378 9
  21125988.207    21125990.184      671168.932 9   1330553.521 8
  23007995.723    23007996.996    -1860177.448 8   -424997.300 9
  21068202.416    21068205.193    -1374050.631 8    -75491.080 9
 86  6 11 23 33 29.0800000  0  4G 6G 8G 9G11
  20838454.146    20838454.870    -1995837.253 9   1963792.510 8
  21128079.038    21128081.115      682158.263 9   1339116.632 9
  23004702.600    23004704.508    -1877479.289 8   -438479.243 9
  21066092.968    21066095.461    -1385142.552 9    -84134.125 8
 86  6 11 23 33 35.0800000  0  4G 6G 8G 9G11
  20837071.650    20837071.765    -2003104.846 9   1958129.445 9
  21130174.704    21130176.494      693171.097 9   1347698.072 9
  23001410.209    23001412.371    -1894780.472 8   -451960.685 9
  21063985.256    21063988.226    -1396212.601 9    -92760.148 9
 86  6 11 23 33 41.0800000  0  4G 6G 8G 9G11
  20835690.397    20835690.062    -2010362.429 9   1952474.195 9
  21132275.321    21132276.211      704207.370 9   1356297.757 8
  22998118.667    22998120.312    -1912080.921 9   -465441.542 9
  21061882.174    21061883.768    -1407260.777 9   -101369.110 9
 86  6 11 23 33 47.0800000  0  4G 6G 8G 9G11
  20834310.982    20834311.217    -2017609.911 9   1946826.801 8
  21134380.261    21134380.936      715267.130 8   1364915.752 8
  22994826.043    22994829.398    -1929380.671 9   -478921.864 9
  21059785.092    21059786.932    -1418287.010 9   -109960.975 9
 86  6 11 23 33 53.0800000  0  4G 6G 8G 9G11
  20832933.845    20832933.713    -2024847.332 9   1941187.256 9
  21136489.292    21136489.310      726350.313 9   1373551.999 8
  22991533.541    22991536.287    -1946679.769 9   -492401.664 8
  21057690.659    21057692.604    -1429291.422 8   -118535.839 7
 86  6 11 23 33 59.0800000  0  4G 6G 8G 9G11
  20831558.160    20831559.282    -2032074.659 9   1935555.569 9
  21138602.360    21138603.622      737456.879 9   1382206.466 9
  22988241.713    22988244.036    -1963978.059 8   -505880.853 9
  21055599.576    21055603.526    -1440273.938 9   -127093.636 9
 86  6 11 23 34  5.0800000  0  4G 6G 8G 9G11
  20830185.053    20830185.646    -2039291.904 9   1929931.739 9
  21140719.891    21140721.024      748586.835 9   1390879.145 8
  22984950.975    22984952.428    -1981275.589 8   -519359.433 9
  21053514.251    21053518.078    -1451234.521 8   -135634.339 8
 86  6 11 23 34 11.0800000  0  4G 6G 8G 9G11
  20828813.076    20828814.383    -2046499.042 9   1924315.796 9
  21142841.716    21142842.990      759740.137 9   1399570.049 8
  22981659.640    22981661.422    -1998572.316 9   -532837.392 8
  21051433.478    21051435.300    -1462173.228 9   -144158.015 9
 86  6 11 23 34 17.0800000  0  4G 6G 8G 9G11
  20827444.353    20827444.578    -2053696.016 9   1918707.768 9
  21144969.949    21144971.696      770916.815 8   1408279.143 8
  22978367.976    22978370.543    -2015868.270 8   -546314.749 9
  21049354.950    21049357.273    -1473089.976 9   -152664.557 8
 86  6 11 23 34 23.0800000  0  4G 6G 8G 9G11
  20826076.386    20826077.001    -2060882.833 9   1913107.648 9
  21147100.673    21147102.221      782116.832 9   1417006.423 9
  22975077.398    22975079.671    -2033163.410 9   -559791.474 9
  21047281.880    21047285.537    -1483984.753 8   -161153.988 8
 86  6 11 23 34 29.0800000  0  4G 6G 8G 9G11
  20824710.095    20824711.561    -2068059.510 9   1907515.439 9
  21149236.035    21149237.711      793340.142 9   1425751.872 7
  22971785.605    22971788.279    -2050457.799 8   -573267.608 9
  21045212.866    21045215.545    -1494857.561 8   -169626.297 7
 86  6 11 23 34 35.0800000  0  4G 6G 8G 9G11
  20823346.437    20823347.913    -2075226.001 8   1901931.164 9
  21151377.461    21151378.151      804586.740 9   1434515.436 8
  22968496.278    22968496.801    -2067751.396 9   -586743.129 9
  21043148.419    21043150.493    -1505708.361 8   -178081.468 8
 86  6 11 23 34 41.0800000  0  4G 6G 8G 9G11
  20821985.315    20821986.367    -2082382.294 9   1896354.829 9
  21153521.521    21153522.355      815856.561 9   1443297.121 8
  22965205.565    22965206.587    -2085044.201 8   -600218.021 9
  21041087.170    21041089.441    -1516537.182 9   -186519.511 8
 86  6 11 23 34 47.0800000  0  4G 6G 8G 9G11
  20820625.217    20820626.240    -2089528.412 9   1890786.433 8
  21155669.961    21155671.967      827149.610 9   1452096.895 8
  22961914.550    22961916.453    -2102336.138 8   -613692.253 9
  21039031.540    21039033.118    -1527343.944 8   -194940.365 8
 86  6 11 23 34 53.0800000  0  4G 6G 8G 9G11
  20819267.244    20819268.531    -2096664.257 9   1885226.028 9
  21157823.208    21157825.542      838465.896 9   1460914.779 8
  22958624.010    22958625.904    -2119627.206 9   -627165.806 9
  21036979.214    21036980.711    -1538128.692 9   -203344.043 8
 86  6 11 23 34 59.0800000  0  4G 6G 8G 9G11
  20817911.355    20817912.816    -2103789.867 9   1879673.609 8
  21159981.464    21159983.483      849805.384 8   1469750.747 8
  22955333.789    22955335.470    -2136917.456 8   -640638.728 9
  21034930.653    21034932.817    -1548891.459 9   -211730.617 7
 86  6 11 23 35  5.0800000  0  4G 6G 8G 9G11
  20816557.159    20816558.347    -2110905.216 9   1874129.185 9
  21162143.154    21162145.519      861167.997 9   1478604.724 9
  22952043.700    22952045.736    -2154206.891 9   -654111.008 9
  21032887.097    21032890.186    -1559632.236 9   -220100.046 8
 86  6 11 23 35 11.0800000  0  4G 6G 8G 9G11
  20815205.498    20815206.055    -2118010.320 9   1868592.742 8
  21164311.195    21164312.086      872553.789 9   1487476.770 8
  22948753.993    22948756.575    -2171495.352 9   -667582.531 9
  21030847.166    21030849.567    -1570350.986 8   -228452.324 7
 86  6 11 23 35 17.0800000  0  4G 6G 8G 9G11
  20813854.623    20813856.603    -2125105.121 9   1863064.327 9
  21166481.413    21166482.975      883962.746 9   1496366.865 8
  22945464.110    22945466.749    -2188782.940 9   -681053.363 9
  21028811.245    21028814.484    -1581047.638 8   -236787.373 7
 86  6 11 23 35 23.0800000  0  4G 6G 8G 9G11
  20812507.868    20812507.540    -2132189.605 9   1857543.957 9
  21168657.298    21168658.459      895394.792 9   1505274.959 8
  22942174.363    22942176.630    -2206069.614 9   -694523.501 8
  21026781.044    21026783.210    -1591722.132 8   -245105.162 8
 86  6 11 23 35 29.0800000  0  4G 6G 8G 9G11
  20811160.608    20811161.177    -2139263.779 9   1852031.608 9
  21170837.188    21170839.063      906849.895 9   1514201.005 9
  22938884.865    22938888.190    -2223355.420 9   -707992.958 9
  21024754.851    21024755.853    -1602374.563 8   -253405.750 9
 86  6 11 23 35 35.0800000  0  4G 6G 8G 9G11
  20809816.713    20809817.326    -2146327.566 9   1846527.354 8
  21173020.542    21173022.333      918328.086 9   1523145.051 8
  22935595.532    22935598.900    -2240640.271 9   -721461.664 9
  21022730.687    21022733.399    -1613004.926 9   -261689.140 8
 86  6 11 23 35 41.0800000  0  4G 6G 8G 9G11
  20808473.668    20808475.191    -2153381.029 9   1841031.157 8
  21175209.647    21175211.065      929829.318 9   1532107.037 8
  22932306.528    22932309.226    -2257924.140 9   -734929.605 9
  21020711.810    21020714.015    -1623613.167 9   -269955.310 8
 86  6 11 23 35 47.0800000  0  4G 6G 8G 9G11
  20807133.389    20807134.696    -2160424.088 8   1835543.047 8
  21177403.704    21177403.134      941353.597 9   1541087.003 8
  22929016.525    22929020.551    -2275207.070 9   -748396.822 8
  21018697.455    21018700.363    -1634199.312 8   -278204.251 8
 86  6 11 23 35 53.0800000  0  4G 6G 8G 9G11
  20805795.434    20805796.107    -2167456.719 9   1830063.078 9
  21179600.336    21179602.100      952900.927 9   1550084.925 9
  22925728.328    22925731.525    -2292489.021 8   -761863.272 9
  21016688.098    21016690.558    -1644763.249 8   -286435.881 8
 86  6 11 23 35 59.0800000  0  4G 6G 8G 9G11
  20804459.173    20804460.597    -2174478.961 9   1824591.206 9
  21181802.578    21181803.582      964471.219 9   1559100.737 8
  22922439.732    22922443.574    -2309769.994 9   -775328.959 9
  21014681.029    21014684.055    -1655304.999 8   -294650.226 7
 86  6 11 23 36  5.0800000  0  4G 6G 8G 9G11
  20803124.991    20803125.783    -2181490.772 9   1819127.463 9
  21184009.198    21184008.986      976064.470 9   1568134.424 8
  22919152.381    22919154.434    -2327050.054 9   -788793.933 9
  21012680.106    21012682.796    -1665824.552 9   -302847.279 7
 86  6 11 23 36 11.0800000  0  4G 6G 8G 9G11
  20801792.687    20801794.144    -2188492.180 9   1813671.815 9
  21186218.824    21186218.998      987680.661 9   1577186.002 9
  22915863.736    22915867.333    -2344329.083 9   -802258.108 8
  21010682.161    21010684.852    -1676321.988 9   -311027.104 8
 86  6 11 23 36 17.0800000  0  4G 6G 8G 9G11
  20800461.804    20800463.306    -2195483.129 9   1808224.330 9
  21188432.915    21188435.119      999319.808 9   1586255.464 9
  22912575.806    22912578.487    -2361607.046 9   -815721.451 9
  21008688.814    21008690.507    -1686797.287 9   -319189.668 7
 86  6 11 23 36 23.0800000  0  4G 6G 8G 9G11
  20799133.802    20799136.199    -2202463.622 9   1802784.981 9
  21190653.755    21190653.773     1010981.803 9   1595342.741 9
  22909288.476    22909290.792    -2378884.077 9   -829184.071 9
  21006699.118    21006700.840    -1697250.400 8   -327334.950 7
 86  6 11 23 36 29.0800000  0  4G 6G 8G 9G11
  20797807.684    20797809.510    -2209433.636 9   1797353.815 8
  21192876.118    21192876.951     1022666.661 8   1604447.825 9
  22906000.831    22906003.141    -2396160.074 9   -842645.881 9
  21004714.968    21004716.320    -1707681.301 8   -335462.931 8
 86  6 11 23 36 35.0800000  0  4G 6G 8G 9G11
  20796483.511    20796483.870    -2216393.164 9   1791930.804 9
  21195104.487    21195105.378     1034374.379 9   1613570.724 8
  22902713.045    22902716.190    -2413435.056 9   -856106.903 8
  21002733.697    21002735.675    -1718090.026 9   -343573.623 7
 86  6 11 23 36 41.0800000  0  4G 6G 8G 9G11
  20795161.391    20795161.048    -2223342.208 9   1786515.975 8
  21197337.208    21197337.338     1046104.952 9   1622711.423 8
  22899427.197    22899428.595    -2430708.962 9   -869567.084 8
  21000756.817    21000760.945    -1728476.533 9   -351667.008 7
 86  6 11 23 36 47.0800000  0  4G 6G 8G 9G11
  20793840.922    20793841.176    -2230280.695 9   1781109.361 8
  21199573.104    21199573.823     1057858.313 9   1631869.884 7
  22896139.608    22896141.896    -2447981.765 9   -883026.405 9
  20998784.644    20998787.478    -1738840.834 9   -359743.069 8
 86  6 11 23 36 53.0800000  0  4G 6G 8G 9G11
  20792522.812    20792522.498    -2237208.639 9   1775710.965 9
  21201814.325    21201813.755     1069634.439 9   1641046.090 9
  22892852.959    22892855.040    -2465253.506 9   -896484.881 9
  20996816.863    20996820.257    -1749182.875 9   -367801.806 7
 86  6 11 23 36 59.0800000  0  4G 6G 8G 9G11
  20791206.638    20791207.168    -2244126.054 9   1770320.769 9
  21204059.608    21204059.554     1081433.315 9   1650240.007 8
  22889566.066    22889567.360    -2482524.235 9   -909942.601 8
  20994853.280    20994855.731    -1759502.663 8   -375843.199 8
 86  6 11 23 37  5.0800000  0  4G 6G 8G 9G11
  20789891.619    20789892.122    -2251032.910 9   1764938.801 9
  21206309.956    21206309.744     1093254.933 9   1659451.667 9
  22886280.231    22886281.060    -2499793.834 9   -923399.421 8
  20992893.104    20992895.889    -1769800.187 9   -383867.236 9
 86  6 11 23 37 11.0800000  0  4G 6G 8G 9G11
  20788579.462    20788579.428    -2257929.142 9   1759565.120 8
  21208562.682    21208563.084     1105099.280 9   1668681.027 9
  22882993.904    22882994.618    -2517062.356 9   -936855.415 8
  20990938.046    20990940.698    -1780075.445 9   -391873.925 8
 86  6 11 23 37 17.0800000  0  4G 6G 8G 9G11
  20787268.355    20787270.179    -2264814.835 9   1754199.648 9
  21210821.331    21210821.962     1116966.311 8   1677928.058 8
  22879708.049    22879709.923    -2534329.711 9   -950310.492 8
  20988988.292    20988988.894    -1790328.357 9   -399863.212 8
 86  6 11 23 37 23.0800000  0  4G 6G 8G 9G11
  20785960.690    20785961.793    -2271689.824 9   1748842.509 9
  21213083.727    21213085.105     1128856.026 9   1687192.768 8
  22876422.679    22876422.901    -2551595.929 9   -963764.681 8
  20987039.838    20987042.520    -1800559.010 9   -407835.138 8
 86  6 11 23 37 29.0800000  0  4G 6G 8G 9G11
  20784654.380    20784655.231    -2278554.189 9   1743493.651 9
  21215350.419    21215351.579     1140768.385 9   1696475.131 9
  22873136.903    22873138.768    -2568860.925 9   -977217.933 8
  20985097.454    20985099.893    -1810767.305 9   -415789.654 8
 86  6 11 23 37 35.0800000  0  4G 6G 8G 9G11
  20783350.630    20783351.256    -2285407.900 9   1738153.094 9
  21217620.944    21217622.890     1152703.368 9   1705775.118 9
  22869851.590    22869851.827    -2586124.748 9   -990670.248 8
  20983160.649    20983161.055    -1820953.310 8   -423726.804 8
 86  6 11 23 37 41.0800000  0  4G 6G 8G 9G11
  20782048.089    20782048.687    -2292250.945 9   1732820.855 8
  21219896.705    21219898.840     1164660.974 9   1715092.712 9
  22866567.230    22866569.312    -2603387.545 9  -1004121.771 8
  20981226.043    20981227.883    -1831116.983 8   -431646.546 8
 86  6 11 23 37 47.0800000  0  4G 6G 8G 9G11
  20780748.474    20780749.644    -2299083.307 9   1727496.940 7
  21222175.960    21222177.964     1176641.190 9   1724427.957 9
  22863281.597    22863284.415    -2620649.088 9  -1017572.329 8
  20979295.245    20979297.150    -1841258.308 9   -439548.864 8
 86  6 11 23 37 53.0800000  0  4G 6G 8G 9G11
  20779449.658    20779451.085    -2305904.928 9   1722181.382 9
  21224460.365    21224462.355     1188643.933 9   1733780.740 9
  22859996.814    22859998.980    -2637909.423 9  -1031021.936 8
  20977370.355    20977372.355    -1851377.246 8   -447433.747 8
 86  6 11 23 37 59.0800000  0  4G 6G 8G 9G11
  20778153.886    20778155.634    -2312715.883 8   1716874.150 8
  21226747.775    21226750.896     1200669.217 9   1743151.093 9
  22856712.133    22856714.869    -2655168.514 8  -1044470.579 9
  20975448.929    20975450.835    -1861473.855 8   -455301.243 8
 86  6 11 23 38  5.0800000  0  4G 6G 8G 9G11
  20776858.954    20776860.466    -2319516.021 9   1711575.336 9
  21229041.824    21229043.270     1212717.040 9   1752538.995 9
  22853428.945    22853431.170    -2672426.373 9  -1057918.269 9
  20973531.994    20973534.138    -1871548.089 9   -463151.291 8
 86  6 11 23 38 11.0800000  0  4G 6G 8G 9G11
  20775566.765    20775569.784    -2326305.461 9   1706284.873 9
  21231338.048    21231339.882     1224787.369 9   1761944.448 9
  22850144.843    22850147.889    -2689683.007 9  -1071364.979 9
  20971618.670    20971621.435    -1881599.895 8   -470983.856 8
 86  6 11 23 38 17.0800000  0  4G 6G 8G 9G11
  20774277.654    20774280.076    -2333084.150 9   1701002.778 9
  21233640.654    21233641.287     1236880.177 9   1771367.417 8
  22846860.332    22846864.760    -2706938.403 8  -1084810.744 8
  20969709.493    20969711.916    -1891629.277 8   -478798.968 7
 86  6 11 23 38 23.0800000  0  4G 6G 8G 9G11
  20772990.853    20772992.181    -2339852.047 9   1695729.094 9
  21235945.894    21235945.796     1248995.445 9   1780807.881 9
  22843578.596    22843579.754    -2724192.542 9  -1098255.522 8
  20967805.684    20967807.353    -1901636.269 9   -486596.623 7
 86  6 11 23 38 29.0800000  0  4G 6G 8G 9G11
  20771703.590    20771704.785    -2346609.088 9   1690463.873 9
  21238255.283    21238257.102     1261133.144 9   1790265.828 8
  22840295.124    22840296.805    -2741445.407 9  -1111699.307 9
  20965905.627    20965908.211    -1911620.874 9   -494376.829 8
 86  6 11 23 38 35.0800000  0  4G 6G 8G 9G11
  20770420.939    20770422.224    -2353355.383 9   1685207.025 9
  21240568.650    21240570.425     1273293.244 9   1799741.226 8
  22837012.724    22837015.034    -2758696.930 9  -1125142.041 9
  20964010.339    20964012.681    -1921583.114 9   -502139.605 7
 86  6 11 23 38 41.0800000  0  4G 6G 8G 9G11
  20769137.866    20769138.507    -2360090.818 9   1679958.628 8
  21242886.538    21242888.586     1285475.720 9   1809234.061 9
  22833729.128    22833731.410    -2775947.185 9  -1138583.793 9
  20962119.537    20962120.572    -1931522.878 9   -509884.884 7
 86  6 11 23 38 47.0800000  0  4G 6G 8G 9G11
  20767858.996    20767860.031    -2366815.383 9   1674718.714 8
  21245209.092    21245211.984     1297680.607 9   1818744.360 8
  22830447.103    22830448.803    -2793196.132 9  -1152024.524 8
  20960231.629    20960232.954    -1941440.162 8   -517612.628 8
 86  6 11 23 38 53.0800000  0  4G 6G 8G 9G11
  20766581.195    20766581.559    -2373529.105 9   1669487.234 9
  21247537.226    21247538.314     1309907.843 9   1828272.078 9
  22827166.133    22827166.075    -2810443.777 8  -1165464.247 9
  20958349.067    20958350.959    -1951334.967 9   -525322.860 8
 86  6 11 23 38 59.0800000  0  4G 6G 8G 9G11
  20765306.360    20765306.076    -2380231.972 9   1664264.229 9
  21249867.621    21249869.611     1322157.338 9   1837817.147 8
  22823883.798    22823885.133    -2827690.096 9  -1178902.936 8
  20956468.712    20956472.925    -1961207.302 7   -533015.594 8
 86  6 11 23 39  5.0800000  0  4G 6G 8G 9G11
  20764031.910    20764033.594    -2386923.964 9   1659049.687 9
  21252203.395    21252204.800     1334429.109 9   1847379.566 8
  22820601.855    22820603.879    -2844935.034 9  -1192340.544 8
  20954594.939    20954596.927    -1971057.195 8   -540690.823 8
 86  6 11 23 39 11.0800000  0  4G 6G 8G 9G11
  20762761.375    20762762.631    -2393605.061 8   1653843.639 8
  21254542.889    21254545.126     1346723.175 9   1856959.348 8
  22817320.464    22817321.359    -2862178.685 9  -1205777.135 9
  20952725.759    20952726.898    -1980884.646 8   -548348.578 7
 86  6 11 23 39 17.0800000  0  4G 6G 8G 9G11
  20761491.284    20761493.361    -2400275.187 9   1648646.140 9
  21256886.449    21256887.396     1359039.514 9   1866556.500 9
  22814038.845    22814041.189    -2879420.961 8  -1219212.679 8
  20950859.491    20950862.388    -1990689.618 9   -555988.814 8
 86  6 11 23 39 23.0800000  0  4G 6G 8G 9G11
  20760224.909    20760225.931    -2406934.429 9   1643457.119 8
  21259233.930    21259235.349     1371378.064 9   1876170.945 9
  22810758.411    22810760.278    -2896661.844 9  -1232647.126 9
  20948999.461    20949001.896    -2000472.071 8   -563611.502 7
 86  6 11 23 39 29.0800000  0  4G 6G 8G 9G11
  20758959.047    20758960.603    -2413582.653 9   1638276.682 9
  21261586.189    21261587.866     1383738.819 9   1885802.712 8
  22807477.963    22807478.873    -2913901.382 9  -1246080.520 8
  20947141.505    20947143.462    -2010232.004 8   -571216.642 7
 86  6 11 23 39 35.0800000  0  4G 6G 8G 9G11
  20757696.110    20757696.857    -2420219.960 9   1633104.761 9
  21263942.998    21263944.188     1396121.760 9   1895451.747 8
  22804197.589    22804198.875    -2931139.461 9  -1259512.781 9
  20945288.493    20945289.744    -2019969.346 9   -578804.180 8
 86  6 11 23 39 41.0800000  0  4G 6G 8G 9G11
  20756435.443    20756436.368    -2426846.228 9   1627941.444 9
  21266303.586    21266305.003     1408526.864 9   1905118.064 8
  22800916.885    22800918.201    -2948376.092 8  -1272943.924 9
  20943439.583    20943441.395    -2029684.139 9   -586374.146 8
 86  6 11 23 39 47.0800000  0  4G 6G 8G 9G11
  20755176.847    20755178.486    -2433461.526 9   1622786.660 9
  21268667.836    21268668.524     1420954.100 9   1914801.631 9
  22797637.683    22797638.813    -2965611.356 9  -1286373.986 9
  20941595.135    20941597.286    -2039376.391 8   -593926.550 7
 86  6 11 23 39 53.0800000  0  4G 6G 8G 9G11
  20753920.454    20753921.405    -2440065.782 9   1617640.487 9
  21271037.466    21271038.842     1433403.468 9   1924502.434 9
  22794358.110    22794359.948    -2982845.161 8  -1299802.920 8
  20939755.542    20939756.162    -2049046.086 9   -601461.376 8
 86  6 11 23 39 59.0800000  0  4G 6G 8G 9G11
  20752665.511    20752665.896    -2446658.999 9   1612502.923 9
  21273410.646    21273411.951     1445874.910 9   1934220.441 8
  22791079.744    22791081.417    -3000077.537 9  -1313230.735 9
  20937918.967    20937920.589    -2058693.199 9   -608978.604 7
 86  6 11 23 40  5.0800000  0  4G 6G 8G 9G11
  20751413.011    20751415.231    -2453241.116 9   1607373.993 9
  21275787.746    21275789.266     1458368.419 9   1943955.640 9
  22787799.155    22787799.941    -3017308.391 8  -1326657.374 8
  20936088.345    20936090.329    -2068317.698 9   -616478.206 7
 86  6 11 23 40 11.0800000  0  4G 6G 8G 9G11
  20750162.734    20750163.528    -2459812.222 9   1602253.663 9
  21278169.140    21278171.087     1470883.996 9   1953708.029 8
  22784520.461    22784522.469    -3034537.762 9  -1340082.837 7
  20934260.533    20934261.295    -2077919.593 9   -623960.213 8
 86  6 11 23 40 17.0800000  0  4G 6G 8G 9G11
  20748913.926    20748916.131    -2466372.226 9   1597141.967 9
  21280555.053    21280556.442     1483421.614 9   1963477.603 8
  22781243.599    22781244.228    -3051765.572 9  -1353507.102 8
  20932438.388    20932439.729    -2087498.894 9   -631424.606 7
 86  6 11 23 40 23.0800000  0  4G 6G 8G 9G11
  20747667.110    20747669.522    -2472921.102 9   1592038.959 9
  21282945.031    21282946.551     1495981.259 9   1973264.340 9
  22777964.826    22777965.719    -3068991.925 8  -1366930.235 9
  20930619.293    20930620.277    -2097055.550 9   -638871.350 7
 86  6 11 23 40 29.0800000  0  4G 6G 8G 9G11
  20746423.994    20746425.220    -2479458.849 9   1586944.608 9
  21285339.188    21285340.779     1508562.884 9   1983068.201 9
  22774687.779    22774686.641    -3086216.726 8  -1380352.153 8
  20928803.608    20928807.087    -2106589.629 8   -646300.476 7
 86  6 11 23 40 35.0800000  0  4G 6G 8G 9G11
  20745181.972    20745182.964    -2485985.463 9   1581858.931 9
  21287737.923    21287739.157     1521166.481 9   1992889.184 8
  22771408.384    22771410.971    -3103439.983 9  -1393772.864 7
  20926995.355    20926996.584    -2116101.086 9   -653712.002 8
 86  6 11 23 40 41.0800000  0  4G 6G 8G 9G11
  20743941.540    20743941.889    -2492500.928 9   1576781.947 9
  21290140.065    21290141.941     1533792.011 9   2002727.263 9
  22768132.758    22768132.959    -3120661.671 9  -1407192.359 8
  20925188.973    20925190.540    -2125589.884 8   -661105.863 7
 86  6 11 23 40 47.0800000  0  4G 6G 8G 9G11
  20742703.788    20742705.299    -2499005.233 9   1571713.654 9
  21292546.384    21292547.961     1546439.434 9   2012582.385 9
  22764855.782    22764856.047    -3137881.816 9  -1420610.650 8
  20923386.928    20923389.266    -2135056.030 8   -668482.086 8
 86  6 11 23 40 53.0800000  0  4G 6G 8G 9G11
  20741468.602    20741470.270    -2505498.348 9   1566654.082 9
  21294958.197    21294960.103     1559108.751 9   2022454.584 8
  22761579.886    22761580.486    -3155100.440 9  -1434027.751 7
  20921591.290    20921591.553    -2144499.555 9   -675840.669 8
 86  6 11 23 40 59.0800000  0  4G 6G 8G 9G11
  20740233.964    20740236.306    -2511980.335 9   1561603.192 8
  21297372.875    21297374.881     1571799.952 9   2032343.827 9
  22758303.653    22758303.795    -3172317.443 9  -1447443.593 9
  20919798.193    20919800.201    -2153920.443 7   -683181.620 8
 86  6 11 23 41  5.0800000  0  4G 6G 8G 9G11
  20739003.087    20739005.309    -2518451.036 9   1556561.077 8
  21299792.128    21299793.475     1584512.960 9   2042250.072 9
  22755026.875    22755027.527    -3189532.866 8  -1460858.209 7
  20918009.858    20918012.769    -2163318.646 9   -690504.892 7
 86  6 11 23 41 11.0800000  0  4G 6G 8G 9G11
  20737773.775    20737775.613    -2524910.520 9   1551527.721 9
  21302214.646    21302216.652     1597247.811 9   2052173.331 9
  22751751.430    22751752.087    -3206746.620 8  -1474271.519 8
  20916225.550    20916227.601    -2172694.113 9   -697810.450 7
 86  6 11 23 41 17.0800000  0  4G 6G 8G 9G11
  20736546.387    20736549.339    -2531358.752 9   1546503.125 9
  21304641.771    21304644.263     1610004.442 9   2062113.557 9
  22748476.193    22748476.762    -3223958.788 9  -1487683.599 8
  20914444.602    20914448.588    -2182046.822 8   -705098.278 8
 86  6 11 23 41 23.0800000  0  4G 6G 8G 9G11
  20735322.355    20735324.051    -2537795.729 9   1541487.300 9
  21307074.334    21307075.953     1622782.832 9   2072070.746 8
  22745200.511    22745201.339    -3241169.408 8  -1501094.458 7
  20912669.818    20912673.059    -2191376.854 8   -712368.420 7
 86  6 11 23 41 29.0800000  0  4G 6G 8G 9G11
  20734100.178    20734101.322    -2544221.403 9   1536480.282 9
  21309510.560    21309512.106     1635582.957 9   2082044.869 8
  22741925.244    22741927.561    -3258378.282 8  -1514503.967 8
  20910899.065    20910901.046    -2200684.224 8   -719620.920 8
 86  6 11 23 41 35.0800000  0  4G 6G 8G 9G11
  20732879.382    20732880.223    -2550635.809 9   1531482.048 9
  21311950.535    21311952.282     1648404.844 9   2092035.952 9
  22738650.987    22738652.903    -3275585.464 9  -1527912.143 8
  20909131.695    20909135.327    -2209968.848 9   -726855.689 8
 86  6 11 23 41 41.0800000  0  4G 6G 8G 9G11
  20731660.596    20731661.537    -2557038.892 9   1526492.632 9
  21314394.572    21314396.263     1661248.453 9   2102043.956 8
  22735376.414    22735378.936    -3292790.946 9  -1541319.011 8
  20907369.213    20907370.841    -2219230.709 8   -734072.722 7
 86  6 11 23 41 47.0800000  0  4G 6G 8G 9G11
  20730444.343    20730444.764    -2563430.680 9   1521512.017 9
  21316842.675    21316843.763     1674113.769 9   2112068.872 8
  22732103.622    22732105.432    -3309994.752 7  -1554724.560 8
  20905611.351    20905613.278    -2228469.862 8   -741272.055 8
 86  6 11 23 41 53.0800000  0  4G 6G 8G 9G11
  20729230.273    20729230.648    -2569811.123 9   1516540.244 9
  21319294.784    21319296.202     1687000.709 9   2122110.656 9
  22728828.877    22728831.967    -3327196.883 8  -1568128.805 8
  20903858.027    20903859.735    -2237686.240 8   -748453.641 7
 86  6 11 23 41 59.0800000  0  4G 6G 8G 9G11
  20728018.117    20728019.289    -2576180.160 9   1511577.363 9
  21321750.469    21321753.018     1699909.283 8   2132169.276 8
  22725556.695    22725559.346    -3344397.263 9  -1581531.696 8
  20902108.477    20902109.315    -2246879.828 7   -755617.488 7
 86  6 11 23 42  5.0800000  0  4G 6G 8G 9G11
  20726808.047    20726809.200    -2582537.812 9   1506623.344 9
  21324212.366    21324213.656     1712839.473 9   2142244.749 8
  22722283.617    22722285.984    -3361595.918 9  -1594933.234 9
  20900362.046    20900364.807    -2256050.671 8   -762763.590 7
 86  6 11 23 42 11.0800000  0  4G 6G 8G 9G11
  20725600.981    20725601.566    -2588884.069 9   1501678.209 8
  21326677.580    21326678.571     1725791.285 8   2152337.071 8
  22719011.118    22719013.179    -3378792.845 9  -1608333.431 7
  20898621.883    20898624.132    -2265198.689 8   -769891.907 8
 86  6 11 23 42 17.0800000  0  4G 6G 8G 9G11
  20724395.489    20724396.534    -2595218.951 9   1496741.937 9
  21329145.516    21329147.250     1738764.724 9   2162446.235 8
  22715739.280    22715740.164    -3395988.049 7  -1621732.281 9
  20896886.023    20896888.235    -2274323.892 9   -777002.471 7
 86  6 11 23 42 23.0800000  0  4G 6G 8G 9G11
  20723192.322    20723192.652    -2601542.362 9   1491814.603 9
  21331617.315    21331619.849     1751759.645 9   2172572.141 8
  22712467.617    22712469.092    -3413181.403 8  -1635129.691 8
  20895153.548    20895154.784    -2283426.289 9   -784095.236 7
 86  6 11 23 42 29.0800000  0  4G 6G 8G 9G11
  20721991.320    20721991.831    -2607854.351 8   1486896.168 9
  21334094.922    21334096.226     1764776.063 9   2182714.807 8
  22709196.364    22709198.368    -3430372.984 8  -1648525.706 9
  20893425.670    20893428.792    -2292505.880 9   -791170.234 6
 86  6 11 23 42 35.0800000  0  4G 6G 8G 9G11
  20720791.450    20720793.397    -2614154.925 9   1481986.645 9
  21336576.192    21336576.839     1777813.964 9   2192874.199 9
  22705924.683    22705926.899    -3447562.765 9  -1661920.333 9
  20891703.122    20891704.444    -2301562.654 9   -798227.466 7
 86  6 11 23 42 41.0800000  0  4G 6G 8G 9G11
  20719594.436    20719595.983    -2620443.999 9   1477086.075 9
  21339060.784    21339062.833     1790873.368 8   2203050.359 8
  22702655.333    22702656.147    -3464750.703 8  -1675313.525 9
  20889982.699    20889984.895    -2310596.603 9   -805266.915 7
 86  6 11 23 42 47.0800000  0  4G 6G 8G 9G11
  20718400.256    20718400.840    -2626721.589 9   1472194.442 9
  21341549.868    21341551.714     1803954.231 9   2213243.242 8
  22699383.356    22699385.632    -3481936.923 9  -1688705.368 9
  20888268.564    20888270.656    -2319607.737 8   -812288.562 7
 86  6 11 23 42 53.0800000  0  4G 6G 8G 9G11
  20717207.733    20717209.462    -2632987.664 8   1467311.787 8
  21344043.674    21344045.593     1817056.523 9   2223452.821 9
  22696115.052    22696114.829    -3499121.265 8  -1702095.765 8
  20886559.519    20886559.671    -2328596.050 8   -819292.447 7
 86  6 11 23 42 59.0800000  0  4G 6G 8G 9G11
  20716017.678    20716019.335    -2639242.234 9   1462438.099 9
  21346540.456    21346543.132     1830180.215 8   2233679.067 8
  22692844.292    22692845.293    -3516303.813 8  -1715484.750 9
  20884852.254    20884854.623    -2337561.481 9   -826278.500 8
 86  6 11 23 43  5.0800000  0  4G 6G 8G 9G11
  20714830.072    20714831.038    -2645485.282 9   1457573.375 9
  21349042.332    21349043.838     1843325.256 9   2243921.954 8
  22689575.578    22689576.172    -3533484.451 9  -1728872.253 8
  20883150.819    20883152.973    -2346504.018 9   -833246.714 7
 86  6 11 23 43 11.0800000  0  4G 6G 8G 9G11
  20713644.773    20713645.768    -2651716.770 9   1452717.683 9
  21351548.414    21351549.733     1856491.653 9   2254181.481 8
  22686306.736    22686307.595    -3550663.181 9  -1742258.273 9
  20881452.698    20881453.979    -2355423.695 9   -840197.098 7
 86  6 11 23 43 17.0800000  0  4G 6G 8G 9G11
  20712460.734    20712462.205    -2657936.732 9   1447870.961 8
  21354057.473    21354058.721     1869679.417 8   2264457.654 9
  22683037.839    22683039.103    -3567840.061 9  -1755642.853 8
  20879760.210    20879761.644    -2364320.512 9   -847129.686 7
 86  6 11 23 43 23.0800000  0  4G 6G 8G 9G11
  20711277.768    20711280.212    -2664145.050 9   1443033.310 9
  21356570.739    21356572.374     1882888.498 9   2274750.443 8
  22679769.390    22679771.027    -3585015.089 8  -1769025.975 9
  20878071.313    20878072.803    -2373194.457 8   -854044.436 7
 86  6 11 23 43 29.0800000  0  4G 6G 8G 9G11
  20710099.549    20710100.608    -2670341.785 9   1438204.686 9
  21359087.813    21359090.834     1896118.851 9   2285059.810 8
  22676500.976    22676503.215    -3602188.200 8  -1782407.618 9
  20876387.382    20876387.832    -2382045.488 9   -860941.347 7
 86  6 11 23 43 35.0800000  0  4G 6G 8G 9G11
  20708922.049    20708923.881    -2676526.908 9   1433385.108 9
  21361609.522    21361611.182     1909370.490 9   2295385.761 8
  22673233.423    22673235.539    -3619359.424 8  -1795787.776 9
  20874707.318    20874709.736    -2390873.572 8   -867820.380 7
 86  6 11 23 43 41.0800000  0  4G 6G 8G 9G11
  20707747.604    20707749.653    -2682700.359 9   1428574.630 9
  21364135.637    21364137.085     1922643.314 8   2305728.229 8
  22669966.262    22669968.671    -3636528.643 9  -1809166.392 8
  20873031.072    20873032.943    -2399678.744 8   -874681.545 8
 86  6 11 23 43 47.0800000  0  4G 6G 8G 9G11
  20706574.014    20706576.208    -2688862.135 9   1423773.239 8
  21366665.302    21366667.564     1935937.380 9   2316087.226 9
  22666699.802    22666700.882    -3653695.848 8  -1822543.433 8
  20871360.108    20871362.351    -2408460.989 8   -881524.847 7
 86  6 11 23 43 53.0800000  0  4G 6G 8G 9G11
  20705405.022    20705406.571    -2695012.270 9   1418980.931 9
  21369199.746    21369201.093     1949252.653 9   2326462.759 8
  22663432.899    22663434.530    -3670861.163 9  -1835918.990 9
  20869692.592    20869695.850    -2417220.268 8   -888350.273 7
 86  6 11 23 43 59.0800000  0  4G 6G 8G 9G11
  20704237.433    20704237.781    -2701150.729 9   1414197.716 9
  21371737.623    21371739.458     1962589.134 8   2336854.832 8
  22660167.291    22660169.559    -3688024.431 9  -1849292.960 9
  20868030.637    20868032.611    -2425956.591 8   -895157.784 7
 86  6 11 23 44  5.0800000  0  4G 6G 8G 9G11
  20703069.635    20703071.868    -2707277.532 9   1409423.586 9
  21374278.937    21374280.699     1975946.756 9   2347263.355 8
  22656901.004    22656903.606    -3705185.654 9  -1862665.342 9
  20866374.656    20866374.262    -2434669.925 8   -901947.383 8
 86  6 11 23 44 11.0800000  0  4G 6G 8G 9G11
  20701906.061    20701909.093    -2713392.577 9   1404658.618 9
  21376824.598    21376827.405     1989325.451 9   2357688.311 8
  22653636.454    22653637.920    -3722344.996 9  -1876036.240 9
  20864719.565    20864720.993    -2443360.359 8   -908719.157 7
 86  6 11 23 44 17.0800000  0  4G 6G 8G 9G11
  20700744.697    20700747.411    -2719495.930 9   1399902.750 8
  21379374.896    21379376.186     2002725.256 9   2368129.718 8
  22650370.747    22650373.887    -3739502.199 9  -1889405.491 9
  20863069.862    20863071.652    -2452027.836 9   -915473.029 7
 86  6 11 23 44 23.0800000  0  4G 6G 8G 9G11
  20699585.862    20699587.973    -2725587.518 9   1395156.064 8
  21381928.544    21381930.535     2016146.145 8   2378587.549 8
  22647106.675    22647108.716    -3756657.466 9  -1902773.233 9
  20861425.355    20861426.497    -2460672.333 9   -922208.995 7
 86  6 11 23 44 29.0800000  0  4G 6G 8G 9G11
  20698429.569    20698431.299    -2731667.357 9   1390418.537 9
  21384486.313    21384487.661     2029588.078 9   2389061.780 8
  22643842.229    22643844.286    -3773810.657 9  -1916139.347 9
  20859784.027    20859785.332    -2469293.869 8   -928927.082 8
 86  6 11 23 44 35.0800000  0  4G 6G 8G 9G11
  20697274.996    20697276.547    -2737735.435 9   1385690.168 9
  21387047.543    21387049.876     2043051.031 9   2399552.385 8
  22640579.024    22640580.824    -3790961.794 8  -1929503.861 8
  20858147.079    20858150.980    -2477892.441 8   -935627.246 7
 86  6 11 23 44 41.0800000  0  4G 6G 8G 9G11
  20696122.425    20696124.959    -2743791.696 9   1380970.991 8
  21389614.954    21389615.460     2056534.981 9   2410059.354 8
  22637315.797    22637316.955    -3808110.906 9  -1942866.800 9
  20856515.346    20856518.257    -2486467.973 8   -942309.479 8
 86  6 11 23 44 47.0800000  0  4G 6G 8G 9G11
  20694973.077    20694973.594    -2749836.129 9   1376261.043 9
  21392183.455    21392186.476     2070039.938 9   2420582.691 8
  22634053.231    22634053.410    -3825257.915 9  -1956228.110 9
  20854887.021    20854891.461    -2495020.520 8   -948973.804 8
 86  6 11 23 44 53.0800000  0  4G 6G 8G 9G11
  20693825.460    20693826.258    -2755868.759 9   1371560.293 9
  21394758.537    21394760.084     2083565.828 9   2431122.350 8
  22630789.975    22630790.933    -3842402.809 9  -1969587.753 9
  20853264.365    20853267.627    -2503549.997 8   -955620.149 7
 86  6 11 23 44 59.0800000  0  4G 6G 8G 9G11
  20692678.481    20692680.685    -2761889.530 9   1366868.781 9
  21397335.793    21397338.086     2097112.640 9   2441678.303 9
  22627528.023    22627529.661    -3859545.570 9  -1982945.748 9
  20851646.091    20851648.333    -2512056.444 8   -962248.544 8
 86  6 11 23 45  5.0800000  0  4G 6G 8G 9G11
  20691535.646    20691536.381    -2767898.459 9   1362186.501 9
  21399918.345    21399920.336     2110680.336 8   2452250.536 8
  22624266.393    22624267.430    -3876686.119 9  -1996302.010 9
  20850031.328    20850035.033    -2520539.820 9   -968858.959 7
 86  6 11 23 45 11.0800000  0  4G 6G 8G 9G11
  20690394.295    20690396.183    -2773895.484 9   1357513.488 9
  21402504.388    21402505.276     2124268.929 9   2462839.047 8
  22621004.978    22621006.686    -3893824.501 9  -2009656.586 9
  20848421.269    20848424.060    -2529000.188 8   -975451.460 7
 86  6 11 23 45 17.0800000  0  4G 6G 8G 9G11
  20689256.180    20689256.854    -2779880.685 9   1352849.700 8
  21405093.808    21405095.613     2137878.408 8   2473443.830 9
  22617744.177    22617744.757    -3910960.860 9  -2023009.585 8
  20846816.574    20846818.336    -2537437.509 9   -982025.999 7
 86  6 11 23 45 23.0800000  0  4G 6G 8G 9G11
  20688119.340    20688120.314    -2785853.954 9   1348195.211 9
  21407687.978    21407689.998     2151508.717 9   2484064.862 7
  22614483.805    22614485.388    -3928095.076 9  -2036360.909 9
  20845215.335    20845217.560    -2545851.747 8   -988582.534 7
 86  6 11 23 45 29.0800000  0  4G 6G 8G 9G11
  20686984.113    20686985.069    -2791815.280 9   1343550.027 9
  21410285.239    21410285.313     2165159.825 8   2494702.079 9
  22611223.450    22611225.031    -3945227.044 9  -2049710.490 9
  20843617.445    20843621.926    -2554242.935 8   -995121.122 7
 86  6 11 23 45 35.0800000  0  4G 6G 8G 9G11
  20685852.542    20685853.504    -2797764.689 9   1338914.118 9
  21412886.592    21412888.455     2178831.731 9   2505355.515 8
  22607962.807    22607965.454    -3962356.873 9  -2063058.390 9
  20842026.812    20842029.481    -2562611.055 7  -1001641.725 7
 86  6 11 23 45 41.0800000  0  4G 6G 8G 9G11
  20684721.490    20684722.442    -2803702.113 8   1334287.553 9
  21415491.782    21415492.871     2192524.440 9   2516025.146 8
  22604703.967    22604706.198    -3979484.526 9  -2076404.613 9
  20840438.638    20840440.053    -2570956.080 8  -1008144.349 7
 86  6 11 23 45 47.0800000  0  4G 6G 8G 9G11
  20683594.647    20683596.000    -2809627.586 9   1329670.308 9
  21418101.977    21418104.398     2206237.871 8   2526710.934 8
  22601444.720    22601445.157    -3996609.904 9  -2089749.055 9
  20838854.832    20838857.380    -2579278.024 9  -1014628.972 7
 86  6 11 23 45 53.0800000  0  4G 6G 8G 9G11
  20682469.315    20682470.179    -2815541.072 8   1325062.396 9
  21420715.094    21420717.213     2219971.986 9   2537412.841 9
  22598185.788    22598188.248    -4013732.974 8  -2103091.707 9
  20837275.059    20837277.387    -2587576.838 8  -1021095.585 7
 86  6 11 23 45 59.0800000  0  4G 6G 8G 9G11
  20681346.509    20681347.167    -2821442.543 9   1320463.848 9
  21423333.702    21423334.293     2233726.770 8   2548130.863 8
  22594927.913    22594930.373    -4030853.754 9  -2116432.561 9
  20835700.885    20835703.002    -2595852.574 9  -1027544.203 7
 86  6 11 23 46  5.0800000  0  4G 6G 8G 9G11
  20680224.865    20680225.592    -2827331.982 9   1315874.682 8
  21425954.862    21425955.679     2247502.248 8   2558864.992 8
  22591669.861    22591672.979    -4047972.291 9  -2129771.671 9
  20834131.372    20834132.689    -2604105.205 8  -1033974.823 8
 86  6 11 23 46 11.0800000  0  4G 6G 8G 9G11
  20679108.282    20679107.789    -2833209.420 9   1311294.859 9
  21428579.912    21428581.230     2261298.366 8   2569615.210 8
  22588412.801    22588415.599    -4065088.541 8  -2143108.993 9
  20832564.877    20832565.629    -2612334.746 8  -1040387.453 8
 86  6 11 23 46 17.0800000  0  4G 6G 8G 9G11
  20677991.933    20677991.332    -2839074.780 9   1306724.449 9
  21431208.939    21431210.673     2275115.108 9   2580381.499 9
  22585156.280    22585159.592    -4082202.560 9  -2156444.590 9
  20831002.403    20831005.892    -2620541.135 8  -1046782.025 7
 86  6 11 23 46 23.0800000  0  4G 6G 8G 9G11
  20676876.949    20676878.292    -2844928.031 9   1302163.481 9
  21433843.060    21433844.939     2288952.452 9   2591163.845 9
  22581899.295    22581903.027    -4099314.288 9  -2169778.392 9
  20829445.054    20829448.898    -2628724.368 9  -1053158.584 7
 86  6 11 23 46 29.0800000  0  4G 6G 8G 9G11
  20675765.876    20675766.400    -2850769.275 9   1297611.858 9
  21436478.498    21436480.777     2302810.357 9   2601962.208 8
  22578645.140    22578647.328    -4116423.653 8  -2183110.354 9
  20827892.345    20827894.773    -2636884.487 9  -1059517.118 8
 86  6 11 23 46 35.0800000  0  4G 6G 8G 9G11
  20674656.872    20674657.555    -2856598.385 9   1293069.695 9
  21439120.520    21439122.126     2316688.793 9   2612776.571 8
  22575388.997    22575392.001    -4133530.615 9  -2196440.452 9
  20826344.176    20826346.289    -2645021.441 7  -1065857.596 7
 86  6 11 23 46 41.0800000  0  4G 6G 8G 9G11
  20673549.604    20673550.653    -2862415.371 9   1288536.982 8
  21441765.517    21441766.320     2330587.741 9   2623606.923 8
  22572134.364    22572136.725    -4150635.301 9  -2209768.776 9
  20824800.997    20824802.858    -2653135.250 8  -1072180.042 7
 86  6 11 23 46 47.0800000  0  4G 6G 8G 9G11
  20672443.744    20672445.947    -2868220.198 9   1284013.751 9
  21444414.204    21444415.452     2344507.213 9   2634453.261 9
  22568880.023    22568883.300    -4167737.608 9  -2223095.237 9
  20823260.297    20823261.333    -2661225.927 9  -1078484.461 7
 86  6 11 23 46 53.0800000  0  4G 6G 8G 9G11
  20671342.582    20671343.385    -2874012.897 9   1279499.953 9
  21447066.442    21447067.833     2358447.195 8   2645315.584 7
  22565625.192    22565628.381    -4184837.482 9  -2236419.817 9
  20821725.586    20821728.420    -2669293.415 8  -1084770.814 7
 86  6 11 23 46 59.0800000  0  4G 6G 8G 9G11
  20670242.774    20670243.365    -2879793.405 9   1274995.659 9
  21449723.314    21449725.106     2372407.596 8   2656193.815 8
  22562372.424    22562376.052    -4201935.132 9  -2249742.658 9
  20820195.711    20820197.096    -2677337.743 8  -1091039.124 7
 86  6 11 23 47  5.0800000  0  4G 6G 8G 9G11
  20669144.931    20669146.115    -2885561.753 9   1270500.843 9
  21452383.079    21452385.628     2386388.452 9   2667087.996 8
  22559119.231    22559123.301    -4219030.266 9  -2263063.539 8
  20818667.333    20818670.273    -2685358.886 8  -1097289.349 8
 86  6 11 23 47 11.0800000  0  4G 6G 8G 9G11
  20668049.057    20668050.124    -2891317.886 9   1266015.546 8
  21455048.367    21455049.326     2400389.680 9   2677998.031 9
  22555865.929    22555869.334    -4236122.937 8  -2276382.491 8
  20817146.018    20817149.353    -2693356.819 8  -1103521.524 8
 86  6 11 23 47 17.0800000  0  4G 6G 8G 9G11
  20666956.149    20666958.732    -2897061.773 9   1261539.797 9
  21457716.687    21457718.062     2414411.298 8   2688923.967 8
  22552614.652    22552617.770    -4253213.276 9  -2289699.638 9
  20815628.746    20815631.846    -2701331.580 8  -1109735.615 8
 86  6 11 23 47 23.0800000  0  4G 6G 8G 9G11
  20665864.733    20665866.976    -2902793.464 9   1257073.538 9
  21460388.154    21460389.516     2428453.295 9   2699865.778 8
  22549362.573    22549366.156    -4270301.052 8  -2303014.789 8
  20814116.362    20814116.659    -2709283.096 7  -1115931.591 7
 86  6 11 23 47 29.0800000  0  4G 6G 8G 9G11
  20664777.056    20664778.656    -2908512.929 9   1252616.819 8
  21463064.403    21463066.095     2442515.624 9   2710823.433 8
  22546112.555    22546114.457    -4287386.415 9  -2316328.056 9
  20812607.550    20812607.928    -2717211.379 9  -1122109.476 7
 86  6 11 23 47 35.0800000  0  4G 6G 8G 9G11
  20663691.324    20663693.327    -2914220.091 9   1248169.669 8
  21465743.742    21465746.478     2456598.241 9   2721796.904 8
  22542860.369    22542863.673    -4304469.276 9  -2329639.389 9
  20811102.566    20811104.578    -2725116.441 8  -1128269.261 7
 86  6 11 23 47 41.0800000  0  4G 6G 8G 9G11
  20662607.452    20662608.331    -2919915.006 9   1243732.077 9
  21468427.575    21468429.736     2470701.129 9   2732786.165 8
  22539610.729    22539612.703    -4321549.627 9  -2342948.738 9
  20809602.575    20809605.552    -2732998.319 8  -1134410.985 8
 86  6 11 23 47 47.0800000  0  4G 6G 8G 9G11
  20661526.064    20661527.170    -2925597.609 9   1239304.078 9
  21471115.270    21471118.392     2484824.230 9   2743791.172 9
  22536360.261    22536363.034    -4338627.456 9  -2356256.132 8
  20808107.206    20808111.342    -2740856.980 7  -1140534.616 7
 86  6 11 23 47 53.0800000  0  4G 6G 8G 9G11
  20660447.598    20660448.436    -2931267.956 9   1234885.624 9
  21473806.286    21473808.291     2498967.590 8   2754811.968 8
  22533111.029    22533113.590    -4355702.793 9  -2369561.585 9
  20806616.690    20806619.052    -2748692.372 8  -1146640.111 7
 86  6 11 23 47 59.0800000  0  4G 6G 8G 9G11
  20659370.516    20659371.201    -2936925.987 8   1230476.768 9
  21476501.592    21476503.068     2513131.159 9   2765848.510 8
  22529863.100    22529865.131    -4372775.679 8  -2382865.142 9
  20805129.081    20805132.683    -2756504.536 8  -1152727.502 8
 86  6 11 23 48  5.0800000  0  4G 6G 8G 9G11
  20658296.411    20658298.194    -2942571.624 9   1226077.579 8
  21479201.507    21479202.841     2527314.928 9   2776900.803 8
  22526614.184    22526616.781    -4389845.939 9  -2396166.629 9
  20803647.783    20803650.312    -2764293.394 8  -1158796.741 7
 86  6 11 23 48 11.0800000  0  4G 6G 8G 9G11
  20657223.941    20657226.488    -2948204.894 9   1221688.011 9
  21481904.742    21481905.662     2541518.842 9   2787968.788 8
  22523366.047    22523368.914    -4406913.721 9  -2409466.195 9
  20802169.622    20802171.869    -2772058.973 7  -1164847.843 7
 86  6 11 23 48 17.0800000  0  4G 6G 8G 9G11
  20656154.693    20656156.361    -2953825.778 9   1217308.108 9
  21484609.753    21484611.700     2555742.881 9   2799052.443 9
  22520119.170    22520121.372    -4423978.875 9  -2422763.696 9
  20800696.570    20800698.914    -2779801.309 7  -1170880.828 7
 86  6 11 23 48 23.0800000  0  4G 6G 8G 9G11
  20655086.598    20655089.002    -2959434.313 9   1212937.820 9
  21487321.488    21487323.523     2569987.026 9   2810151.785 8
  22516871.856    22516875.674    -4441041.461 9  -2436059.224 9
  20799227.960    20799229.479    -2787520.384 8  -1176895.685 8
 86  6 11 23 48 29.0800000  0  4G 6G 8G 9G11
  20654022.980    20654023.310    -2965030.437 9   1208577.199 9
  21490035.941    21490037.402     2584251.259 9   2821266.769 8
  22513626.030    22513627.975    -4458101.381 9  -2449352.663 9
  20797762.852    20797765.934    -2795216.178 8  -1182892.408 8
 86  6 11 23 48 35.0800000  0  4G 6G 8G 9G11
  20652960.532    20652961.433    -2970614.125 9   1204226.281 9
  21492754.057    21492755.319     2598535.566 9   2832397.392 8
  22510379.590    22510381.807    -4475158.777 9  -2462644.137 9
  20796303.772    20796304.794    -2802888.652 8  -1188870.953 7
 86  6 11 23 48 41.0800000  0  4G 6G 8G 9G11
  20651900.423    20651901.335    -2976185.380 9   1199885.049 9
  21495476.638    21495477.585     2612839.896 9   2843543.617 8
  22507135.353    22507136.488    -4492213.484 9  -2475933.513 9
  20794847.842    20794850.012    -2810537.833 8  -1194831.348 8
 86  6 11 23 48 47.0800000  0  4G 6G 8G 9G11
  20650842.115    20650843.449    -2981744.178 9   1195553.510 8
  21498202.138    21498202.929     2627164.259 9   2854705.466 8
  22503889.798    22503891.551    -4509265.506 9  -2489220.792 9
  20793396.819    20793399.053    -2818163.734 8  -1200773.599 8
 86  6 11 23 48 53.0800000  0  4G 6G 8G 9G11
  20649786.448    20649787.761    -2987290.454 9   1191231.735 9
  21500931.989    21500932.592     2641508.613 9   2865882.880 8
  22500645.419    22500647.671    -4526314.854 8  -2502505.983 9
  20791949.702    20791953.147    -2825766.304 9  -1206697.679 8
 86  6 11 23 48 59.0800000  0  4G 6G 8G 9G11
  20648732.856    20648734.610    -2992824.276 9   1186919.667 9
  21503665.702    21503666.566     2655872.931 9   2877075.857 8
  22497401.953    22497403.691    -4543361.576 8  -2515789.129 9
  20790508.357    20790509.431    -2833345.576 8  -1212603.609 8
 86  6 11 23 49  5.0800000  0  4G 6G 8G 9G11
  20647682.406    20647684.205    -2998345.558 8   1182617.366 9
  21506402.909    21506403.783     2670257.188 9   2888284.368 9
  22494158.187    22494159.999    -4560405.539 9  -2529070.137 9
  20789068.488    20789071.326    -2840901.505 8  -1218491.345 8
 86  6 11 23 49 11.0800000  0  4G 6G 8G 9G11
  20646633.900    20646635.326    -3003854.354 9   1178324.805 9
  21509143.520    21509144.708     2684661.347 9   2899508.392 9
  22490916.825    22490917.291    -4577446.881 9  -2542349.109 9
  20787636.635    20787638.798    -2848434.142 8  -1224360.936 7
 86  6 11 23 49 17.0800000  0  4G 6G 8G 9G11
  20645588.047    20645590.209    -3009350.607 9   1174042.014 9
  21511887.965    21511889.612     2699085.398 8   2910747.897 8
  22487673.119    22487675.115    -4594485.448 9  -2555625.893 9
  20786207.904    20786209.877    -2855943.464 8  -1230212.348 8
 86  6 11 23 49 23.0800000  0  4G 6G 8G 9G11
  20644544.331    20644545.877    -3014834.258 9   1169769.032 9
  21514636.817    21514638.064     2713529.305 9   2922002.896 8
  22484431.522    22484432.471    -4611521.310 9  -2568900.592 8
  20784782.343    20784784.233    -2863429.447 8  -1236045.572 8
 86  6 11 23 49 29.0800000  0  4G 6G 8G 9G11
  20643503.542    20643504.480    -3020305.393 8   1165505.823 9
  21517389.733    21517390.251     2727993.067 9   2933273.353 8
  22481189.961    22481191.877    -4628554.435 9  -2582173.140 9
  20783363.334    20783365.751    -2870892.063 8  -1241860.614 8
 86  6 11 23 49 35.0800000  0  4G 6G 8G 9G11
  20642465.255    20642466.257    -3025763.886 9   1161252.437 8
  21520145.054    21520147.289     2742476.657 9   2944559.272 8
  22477948.892    22477951.180    -4645584.737 9  -2595443.507 9
  20781946.791    20781949.159    -2878331.349 9  -1247657.447 8
 86  6 11 23 49 41.0800000  0  4G 6G 8G 9G11
  20641427.392    20641430.189    -3031209.830 8   1157008.846 9
  21522904.924    21522906.302     2756980.042 9   2955860.597 9
  22474708.418    22474710.386    -4662612.258 9  -2608711.704 9
  20780536.116    20780538.391    -2885747.263 8  -1253436.076 8
 86  6 11 23 49 47.0800000  0  4G 6G 8G 9G11
  20640393.984    20640395.462    -3036643.146 8   1152775.096 9
  21525668.431    21525671.295     2771503.133 9   2967177.299 9
  22471468.266    22471470.978    -4679637.062 9  -2621977.764 9
  20779128.285    20779131.540    -2893139.823 8  -1259196.518 8
 86  6 11 23 49 53.0800000  0  4G 6G 8G 9G11
  20639361.918    20639364.725    -3042063.853 9   1148551.169 9
  21528436.172    21528437.920     2786045.972 9   2978509.373 8
  22468229.723    22468231.275    -4696658.952 9  -2635241.575 9
  20777725.899    20777729.885    -2900509.009 8  -1264938.722 9
 86  6 11 23 49 59.0800000  0  4G 6G 8G 9G11
  20638332.560    20638334.946    -3047471.915 9   1144337.095 8
  21531207.261    21531208.509     2800608.544 9   2989856.828 8
  22464991.675    22464993.985    -4713678.008 9  -2648503.171 8
  20776329.439    20776331.108    -2907854.804 8  -1270662.720 6
 86  6 11 23 50  5.0800000  0  4G 6G 8G 9G11
  20637307.491    20637308.777    -3052867.261 8   1140132.924 9
  21533981.727    21533983.418     2815190.757 9   3001219.597 9
  22461753.354    22461754.562    -4730694.298 9  -2661762.627 9
  20774935.553    20774938.492    -2915177.218 8  -1276368.492 8
 86  6 11 23 50 11.0800000  0  4G 6G 8G 9G11
  20636283.300    20636284.864    -3058249.951 9   1135938.621 8
  21536759.858    21536762.578     2829792.650 9   3012597.700 9
  22458515.092    22458517.343    -4747707.773 9  -2675019.870 8
  20773546.130    20773548.413    -2922476.187 8  -1282055.996 8
 86  6 11 23 50 17.0800000  0  4G 6G 8G 9G11
  20635261.574    20635262.001    -3063619.970 8   1131754.198 9
  21539543.537    21539543.828     2844414.167 9   3023991.080 9
  22455278.967    22455280.118    -4764718.391 8  -2688274.893 8
  20772161.656    20772164.113    -2929751.797 9  -1287725.308 9
 86  6 11 23 50 23.0800000  0  4G 6G 8G 9G11
  20634241.983    20634244.118    -3068977.234 9   1127579.711 8
  21542329.194    21542331.085     2859055.323 9   3035399.760 9
  22452042.092    22452043.651    -4781726.096 8  -2701527.646 9
  20770780.921    20770784.489    -2937004.016 7  -1293376.389 8
 86  6 11 23 50 29.0800000  0  4G 6G 8G 9G11
  20633225.771    20633227.239    -3074321.794 9   1123415.114 8
  21545119.285    21545121.577     2873716.061 9   3046823.720 8
  22448805.618    22448807.800    -4798730.936 9  -2714778.173 9
  20769407.144    20769408.601    -2944232.851 8  -1299009.231 7
 86  6 11 23 50 35.0800000  0  4G 6G 8G 9G11
  20632210.279    20632212.478    -3079653.579 9   1119260.473 9
  21547912.154    21547914.432     2888396.391 9   3058262.935 9
  22445570.310    22445571.968    -4815732.838 8  -2728026.393 8
  20768033.976    20768037.908    -2951438.286 9  -1304623.852 8
 86  6 11 23 50 41.0800000  0  4G 6G 8G 9G11
  20631198.869    20631198.945    -3084972.696 9   1115115.714 9
  21550709.857    21550711.994     2903096.223 9   3069717.343 8
  22442335.452    22442337.096    -4832731.891 9  -2741272.403 8
  20766669.675    20766669.082    -2958620.260 7  -1310220.195 8
 86  6 11 23 50 47.0800000  0  4G 6G 8G 9G11
  20630188.685    20630189.127    -3090278.981 9   1110980.955 9
  21553511.827    21553512.643     2917815.573 9   3081186.964 9
  22439101.231    22439103.397    -4849727.922 9  -2754516.063 8
  20765306.519    20765307.144    -2965778.829 9  -1315798.302 7
 86  6 11 23 50 53.0800000  0  4G 6G 8G 9G11
  20629182.276    20629182.116    -3095572.481 9   1106856.149 8
  21556315.055    21556317.461     2932554.435 9   3092671.783 8
  22435867.331    22435869.778    -4866721.090 9  -2767757.481 9
  20763948.778    20763949.845    -2972913.953 8  -1321358.144 8
 86  6 11 23 50 59.0800000  0  4G 6G 8G 9G11
  20628176.927    20628177.138    -3100853.181 9   1102741.311 9
  21559124.349    21559126.112     2947312.746 9   3104171.770 8
  22432634.699    22432634.985    -4883711.204 9  -2780996.529 9
  20762594.874    20762597.478    -2980025.614 8  -1326899.695 9
 86  6 11 23 51  5.0800000  0  4G 6G 8G 9G11
  20627173.925    20627174.737    -3106121.019 9   1098636.499 8
  21561935.962    21561937.739     2962090.513 9   3115686.910 9
  22429403.111    22429403.782    -4900698.373 9  -2794233.273 8
  20761245.867    20761247.503    -2987113.835 8  -1332422.975 8
 86  6 11 23 51 11.0800000  0  4G 6G 8G 9G11
  20626173.758    20626175.487    -3111376.044 9   1094541.679 9
  21564752.611    21564753.586     2976887.693 9   3127217.185 8
  22426170.114    22426171.537    -4917682.480 9  -2807467.647 9
  20759901.051    20759904.541    -2994178.570 8  -1337927.949 8
 86  6 11 23 51 17.0800000  0  4G 6G 8G 9G11
  20625176.568    20625178.436    -3116618.143 9   1090456.939 8
  21567571.523    21567573.528     2991704.275 9   3138762.567 9
  22422938.906    22422939.628    -4934663.538 8  -2820699.632 8
  20758561.835    20758564.087    -3001219.885 8  -1343414.688 8
 86  6 11 23 51 23.0800000  0  4G 6G 8G 9G11
  20624181.209    20624182.555    -3121847.410 9   1086382.173 9
  21570393.955    21570395.917     3006540.210 9   3150323.033 9
  22419707.847    22419709.240    -4951641.585 9  -2833929.260 9
  20757226.257    20757228.619    -3008237.746 8  -1348883.155 8
 86  6 11 23 51 29.0800000  0  4G 6G 8G 9G11
  20623188.420    20623189.906    -3127063.797 9   1082317.464 9
  21573220.991    21573223.398     3021395.507 8   3161898.588 8
  22416477.754    22416479.155    -4968616.623 8  -2847156.564 9
  20755895.025    20755896.543    -3015232.137 8  -1354333.324 8
 86  6 11 23 51 35.0800000  0  4G 6G 8G 9G11
  20622198.625    20622198.586    -3132267.276 9   1078262.803 8
  21576052.067    21576053.126     3036270.131 9   3173489.189 8
  22413248.470    22413249.455    -4985588.677 8  -2860381.529 9
  20754568.629    20754571.257    -3022203.067 8  -1359765.212 8
 86  6 11 23 51 41.0800000  0  4G 6G 8G 9G11
  20621210.186    20621212.053    -3137457.771 9   1074218.264 9
  21578886.487    21578887.764     3051164.013 9   3185094.820 9
  22410019.400    22410020.348    -5002557.567 9  -2873604.036 8
  20753246.428    20753248.610    -3029150.528 8  -1365178.820 9
 86  6 11 23 51 47.0800000  0  4G 6G 8G 9G11
  20620225.355    20620226.665    -3142635.356 9   1070183.774 9
  21581724.630    21581726.793     3066077.145 9   3196715.433 9
  22406791.166    22406790.445    -5019523.322 8  -2886824.096 8
  20751929.558    20751932.052    -3036074.482 9  -1370574.103 7
 86  6 11 23 51 53.0800000  0  4G 6G 8G 9G11
  20619242.220    20619243.805    -3147800.039 9   1066159.351 9
  21584565.691    21584567.381     3081009.540 9   3208351.068 9
  22403563.372    22403564.330    -5036486.059 9  -2900041.807 8
  20750616.508    20750618.433    -3042974.953 9  -1375951.100 8
 86  6 11 23 51 59.0800000  0  4G 6G 8G 9G11
  20618261.815    20618263.214    -3152951.739 9   1062145.035 9
  21587409.985    21587412.564     3095961.161 9   3220001.685 9
  22400336.183    22400336.554    -5053445.673 9  -2913257.077 8
  20749308.769    20749309.582    -3049851.904 8  -1381309.764 8
 86  6 11 23 52  5.0800000  0  4G 6G 8G 9G11
  20617284.518    20617286.540    -3158090.390 9   1058140.895 8
  21590260.176    21590261.137     3110931.971 9   3231667.248 9
  22397108.423    22397109.031    -5070402.095 9  -2926469.872 8
  20748003.541    20748005.750    -3056705.394 9  -1386650.133 8
 86  6 11 23 52 11.0800000  0  4G 6G 8G 9G11
  20616308.439    20616310.367    -3163216.108 9   1054146.828 9
  21593113.171    21593113.588     3125921.942 9   3243347.737 9
  22393881.473    22393883.982    -5087355.470 9  -2939680.294 9
  20746703.351    20746705.659    -3063535.369 9  -1391972.190 8
 86  6 11 23 52 17.0800000  0  4G 6G 8G 9G11
  20615336.490    20615337.831    -3168328.738 9   1050162.955 9
  21595968.713    21595970.434     3140931.046 8   3255043.130 9
  22390657.260    22390659.126    -5104305.607 8  -2952888.178 8
  20745409.349    20745410.805    -3070341.845 8  -1397275.949 8
 86  6 11 23 52 23.0800000  0  4G 6G 8G 9G11
  20614365.170    20614367.264    -3173428.365 9   1046189.229 8
  21598828.177    21598830.197     3155959.257 9   3266753.427 9
  22387432.197    22387433.733    -5121252.592 8  -2966093.619 8
  20744116.892    20744119.477    -3077124.818 8  -1402561.369 8
 86  6 11 23 52 29.0800000  0  4G 6G 8G 9G11
  20613398.155    20613398.423    -3178514.905 9   1042225.689 8
  21601692.190    21601692.606     3171006.564 9   3278478.606 8
  22384207.928    22384209.386    -5138196.380 9  -2979296.563 8
  20742830.911    20742834.397    -3083884.280 8  -1407828.489 8
 86  6 11 23 52 35.0800000  0  4G 6G 8G 9G11
  20612432.328    20612433.874    -3183588.397 9   1038272.318 9
  21604559.952    21604560.870     3186072.928 9   3290218.626 9
  22380984.553    22380986.113    -5155136.964 8  -2992497.009 9
  20741550.341    20741551.444    -3090620.243 9  -1413077.276 8
 86  6 11 23 52 41.0800000  0  4G 6G 8G 9G11
  20611468.866    20611470.587    -3188648.809 9   1034329.138 9
  21607429.975    21607431.037     3201158.323 9   3301973.473 9
  22377761.530    22377762.580    -5172074.266 9  -3005694.902 9
  20740272.874    20740274.212    -3097332.677 9  -1418307.749 8
 86  6 11 23 52 47.0800000  0  4G 6G 8G 9G11
  20610509.028    20610508.905    -3193696.086 9   1030396.195 8
  21610304.463    21610304.279     3216262.739 9   3313743.142 8
  22374538.778    22374541.344    -5189008.368 9  -3018890.307 9
  20738999.839    20739002.248    -3104021.585 9  -1423519.877 8
 86  6 11 23 52 53.0800000  0  4G 6G 8G 9G11
  20609550.871    20609552.624    -3198730.244 9   1026473.483 9
  21613183.214    21613183.731     3231386.146 9   3325527.617 9
  22371316.884    22371319.172    -5205939.207 8  -3032083.160 8
  20737731.615    20737734.672    -3110686.954 8  -1428713.675 8
 86  6 11 23 52 59.0800000  0  4G 6G 8G 9G11
  20608594.853    20608596.323    -3203751.284 9   1022560.972 8
  21616063.168    21616063.772     3246528.494 9   3337326.863 8
  22368095.498    22368097.013    -5222866.782 9  -3045273.482 8
  20736467.354    20736468.638    -3117328.776 9  -1433889.118 9
 86  6 11 23 53  5.0800000  0  4G 6G 8G 9G11
  20607642.254    20607643.081    -3208759.187 9   1018658.717 9
  21618948.216    21618950.222     3261689.810 9   3349140.871 9
  22364874.743    22364876.358    -5239791.077 9  -3058461.232 8
  20735208.566    20735209.993    -3123947.057 9  -1439046.209 8
 86  6 11 23 53 11.0800000  0  4G 6G 8G 9G11
  20606692.438    20606692.399    -3213753.958 9   1014766.695 9
  21621837.184    21621838.289     3276870.056 9   3360969.625 8
  22361655.846    22361657.113    -5256712.101 8  -3071646.444 8
  20733953.626    20733955.086    -3130541.807 9  -1444184.978 8
 86  6 11 23 53 17.0800000  0  4G 6G 8G 9G11
  20605744.053    20605744.834    -3218735.538 9   1010884.944 9
  21624729.501    21624730.777     3292069.174 9   3372813.093 8
  22358435.321    22358437.681    -5273629.797 8  -3084829.075 8
  20732702.291    20732704.623    -3137113.001 8  -1449305.392 8
 86  6 11 23 53 23.0800000  0  4G 6G 8G 9G11
  20604798.544    20604799.431    -3223703.904 9   1007013.481 8
  21627626.484    21627626.371     3307287.103 9   3384671.212 8
  22355217.618    22355218.835    -5290544.142 9  -3098009.067 8
  20731457.064    20731458.532    -3143660.634 9  -1454407.433 7
 86  6 11 23 53 29.0800000  0  4G 6G 8G 9G11
  20603856.144    20603856.434    -3228659.072 9   1003152.316 8
  21630525.094    21630527.400     3322523.884 9   3396544.026 8
  22351999.102    22352001.084    -5307455.189 8  -3111186.505 8
  20730215.176    20730217.236    -3150184.723 9  -1459491.134 8
 86  6 11 23 53 35.0800000  0  4G 6G 8G 9G11
  20602914.775    20602916.596    -3233601.010 9    999301.460 9
  21633428.831    21633429.549     3337779.468 9   3408431.489 9
  22348781.194    22348782.932    -5324362.800 9  -3124361.269 8
  20728978.770    20728980.335    -3156685.233 9  -1464556.470 9
 86  6 11 23 53 41.0800000  0  4G 6G 8G 9G11
  20601978.195    20601977.848    -3238529.707 9    995460.914 9
  21636334.713    21636335.603     3353053.842 9   3420333.598 9
  22345565.182    22345566.540    -5341267.091 9  -3137533.441 8
  20727746.335    20727748.636    -3163162.131 9  -1469603.408 8
 86  6 11 23 53 47.0800000  0  4G 6G 8G 9G11
  20601041.683    20601042.355    -3243445.118 9    991630.727 9
  21639244.658    21639246.563     3368346.994 8   3432250.332 8
  22342348.818    22342351.207    -5358167.945 8  -3150702.937 9
  20726518.502    20726521.033    -3169615.490 9  -1474631.988 8
 86  6 11 23 53 53.0800000  0  4G 6G 8G 9G11
  20600109.620    20600109.801    -3248347.254 9    987810.880 9
  21642158.755    21642160.845     3383658.898 9   3444181.686 8
  22339132.155    22339135.223    -5375065.414 8  -3163869.783 9
  20725294.315    20725296.569    -3176045.269 9  -1479642.198 9
 86  6 11 23 53 59.0800000  0  4G 6G 8G 9G11
  20599178.122    20599179.485    -3253236.123 9    984001.361 9
  21645075.425    21645076.828     3398989.493 9   3456127.597 9
  22335917.466    22335920.721    -5391959.406 8  -3177033.935 8
  20724075.410    20724077.448    -3182451.430 8  -1484634.028 8
 86  6 11 23 54  5.0800000  0  4G 6G 8G 9G11
  20598250.776    20598252.416    -3258111.668 9    980202.243 9
  21647996.618    21647997.823     3414338.763 9   3468088.068 9
  22332703.207    22332705.331    -5408850.061 8  -3190195.471 9
  20722859.829    20722862.444    -3188834.022 9  -1489607.462 9
 86  6 11 23 54 11.0800000  0  4G 6G 8G 9G11
  20597325.028    20597326.935    -3262973.890 9    976413.491 8
  21650921.445    21650922.793     3429706.697 9   3480063.071 9
  22329489.433    22329492.145    -5425737.258 8  -3203354.309 9
  20721651.395    20721651.838    -3195192.974 9  -1494562.492 7
 86  6 11 23 54 17.0800000  0  4G 6G 8G 9G11
  20596403.240    20596404.595    -3267822.785 8    972635.140 9
  21653848.533    21653851.411     3445093.246 9   3492052.584 9
  22326277.872    22326279.208    -5442621.005 9  -3216510.474 9
  20720445.013    20720446.271    -3201528.319 8  -1499499.112 7
 86  6 11 23 54 23.0800000  0  4G 6G 8G 9G11
  20595482.922    20595484.067    -3272658.329 9    968867.189 8
  21656780.630    21656782.506     3460498.380 8   3504056.588 8
  22323065.771    22323067.860    -5459501.278 8  -3229663.930 9
  20719243.614    20719245.677    -3207840.021 9  -1504417.333 8
 86  6 11 23 54 29.0800000  0  4G 6G 8G 9G11
  20594565.861    20594566.394    -3277480.493 9    965109.658 9
  21659715.244    21659718.165     3475922.145 9   3516075.096 8
  22319853.996    22319855.153    -5476377.988 9  -3242814.614 9
  20718047.231    20718049.116    -3214128.120 8  -1509317.152 8
 86  6 11 23 54 35.0800000  0  4G 6G 8G 9G11
  20593649.916    20593650.802    -3282289.215 9    961362.610 9
  21662655.009    21662655.699     3491364.472 8   3528108.071 9
  22316643.133    22316644.421    -5493251.186 9  -3255962.548 9
  20716854.781    20716856.935    -3220392.618 8  -1514198.563 8
 86  6 11 23 54 41.0800000  0  4G 6G 8G 9G11
  20592737.249    20592738.484    -3287084.553 9    957625.974 9
  21665596.294    21665597.140     3506825.327 9   3540155.489 8
  22313431.995    22313433.875    -5510120.852 9  -3269107.736 8
  20715667.964    20715670.265    -3226633.509 9  -1519061.598 9
 86  6 11 23 54 47.0800000  0  4G 6G 8G 9G11
  20591827.635    20591828.451    -3291866.474 9    953899.798 8
  21668541.125    21668544.046     3522304.700 9   3552217.332 9
  22310222.686    22310224.452    -5526987.069 9  -3282250.243 9
  20714484.717    20714486.250    -3232850.769 8  -1523906.225 8
 86  6 11 23 54 53.0800000  0  4G 6G 8G 9G11
  20590921.283    20590922.174    -3296634.925 9    950184.131 9
  21671490.650    21671493.086     3537802.569 9   3564293.585 9
  22307015.080    22307016.716    -5543849.655 8  -3295389.908 8
  20713305.571    20713307.292    -3239044.466 9  -1528732.474 8
 86  6 11 23 54 59.0800000  0  4G 6G 8G 9G11
  20590016.311    20590017.623    -3301389.941 8    946478.916 9
  21674443.208    21674445.243     3553318.859 8   3576384.196 9
  22303806.144    22303808.095    -5560708.591 9  -3308526.752 8
  20712131.774    20712133.658    -3245214.549 9  -1533540.326 8
 86  6 11 23 55  5.0800000  0  4G 6G 8G 9G11
  20589113.506    20589114.819    -3306131.462 9    942784.228 9
  21677399.144    21677402.065     3568853.575 9   3588489.158 9
  22300598.495    22300601.413    -5577563.978 9  -3321660.814 9
  20710962.529    20710964.544    -3251361.005 9  -1538329.775 8
 86  6 11 23 55 11.0800000  0  4G 6G 8G 9G11
  20588213.290    20588214.282    -3310859.500 9    939100.051 9
  21680359.744    21680361.549     3584406.692 8   3600608.472 8
  22297392.212    22297394.995    -5594415.819 9  -3334792.108 9
  20709797.141    20709798.953    -3257483.791 8  -1543100.774 8
 86  6 11 23 55 17.0800000  0  4G 6G 8G 9G11
  20587315.932    20587317.699    -3315574.047 9    935426.376 9
  21683322.577    21683325.483     3599978.189 9   3612742.096 9
  22294186.366    22294188.233    -5611263.963 9  -3347920.538 8
  20708636.109    20708639.085    -3263582.925 8  -1547853.344 8
 86  6 11 23 55 23.0800000  0  4G 6G 8G 9G11
  20586422.404    20586422.404    -3320275.088 9    931763.229 9
  21686288.272    21686290.605     3615568.015 8   3624890.012 9
  22290980.578    22290982.230    -5628108.439 9  -3361046.095 8
  20707479.822    20707483.527    -3269658.378 9  -1552587.470 9
 86  6 11 23 55 29.0800000  0  4G 6G 8G 9G11
  20585529.343    20585530.556    -3324962.565 9    928110.645 9
  21689258.516    21689261.909     3631176.175 8   3637052.211 9
  22287775.905    22287777.486    -5644949.299 9  -3374168.841 9
  20706328.244    20706331.475    -3275710.214 9  -1557303.173 8
 86  6 11 23 55 35.0800000  0  4G 6G 8G 9G11
  20584640.280    20584641.909    -3329636.531 9    924468.589 9
  21692231.795    21692234.615     3646802.670 9   3649228.707 9
  22284571.805    22284573.607    -5661786.446 9  -3387288.699 9
  20705180.745    20705184.439    -3281738.406 9  -1562000.461 8
 86  6 11 23 55 41.0800000  0  4G 6G 8G 9G11
  20583752.615    20583754.177    -3334296.918 9    920837.119 9
  21695209.851    21695211.857     3662447.465 9   3661419.449 9
  22281368.607    22281370.836    -5678620.015 9  -3400405.753 9
  20704037.473    20704041.412    -3287742.896 8  -1566679.273 9
 86  6 11 23 55 47.0800000  0  4G 6G 8G 9G11
  20582868.890    20582871.024    -3338943.730 9    917216.233 9
  21698189.827    21698192.475     3678110.461 8   3673624.385 9
  22278164.799    22278168.541    -5695449.882 9  -3413519.944 8
  20702899.745    20702903.043    -3293723.744 9  -1571339.684 8
 86  6 11 23 55 53.0800000  0  4G 6G 8G 9G11
  20581986.576    20581989.266    -3343576.907 9    913605.966 9
  21701174.152    21701176.915     3693791.673 9   3685843.501 8
  22274963.382    22274965.371    -5712275.907 9  -3426631.120 9
  20701766.340    20701769.526    -3299680.943 8  -1575981.651 8
 86  6 11 23 55 59.0800000  0  4G 6G 8G 9G11
  20581108.148    20581109.498    -3348196.493 8    910006.282 9
  21704163.596    21704164.545     3709491.112 8   3698076.836 9
  22271763.176    22271765.213    -5729098.269 9  -3439739.447 9
  20700637.386    20700641.138    -3305614.500 7  -1580605.195 8
 86  6 11 23 56  5.0800000  0  4G 6G 8G 9G11
  20580231.378    20580233.296    -3352802.452 9    906417.233 8
  21707153.363    21707155.639     3725208.751 9   3710324.342 8
  22268561.834    22268564.155    -5745916.757 9  -3452844.762 8
  20699512.995    20699516.251    -3311524.364 9  -1585210.291 8
 86  6 11 23 56 11.0800000  0  4G 6G 8G 9G11
  20579358.593    20579358.827    -3357394.722 9    902838.831 9
  21710147.301    21710148.706     3740944.486 8   3722585.954 8
  22265361.944    22265365.112    -5762731.524 9  -3465947.182 9
  20698392.230    20698396.209    -3317410.588 8  -1589796.956 8
 86  6 11 23 56 17.0800000  0  4G 6G 8G 9G11
  20578485.542    20578487.872    -3361973.391 9    899271.038 8
  21713143.619    21713146.711     3756698.344 9   3734861.687 9
  22262163.111    22262165.970    -5779542.666 8  -3479046.755 8
  20697275.632    20697280.836    -3323273.180 8  -1594365.207 8
 86  6 11 23 56 23.0800000  0  4G 6G 8G 9G11
  20577617.382    20577619.897    -3366538.367 8    895713.911 9
  21716146.401    21716148.421     3772470.294 8   3747151.513 9
  22258965.048    22258966.520    -5796349.968 9  -3492143.343 8
  20696165.984    20696168.303    -3329112.098 8  -1598915.008 8
 86  6 11 23 56 29.0800000  0  4G 6G 8G 9G11
  20576751.604    20576753.650    -3371089.672 8    892167.454 8
  21719151.131    21719154.239     3788260.337 9   3759455.445 9
  22255767.465    22255769.438    -5813153.440 9  -3505236.965 8
  20695059.514    20695061.826    -3334927.274 8  -1603446.310 9
 86  6 11 23 56 35.0800000  0  4G 6G 8G 9G11
  20575889.164    20575889.213    -3375627.227 9    888631.689 9
  21722159.782    21722160.327     3804068.455 9   3771773.449 8
  22252571.156    22252572.279    -5829953.089 9  -3518327.584 9
  20693957.739    20693960.582    -3340718.774 9  -1607959.173 8
 86  6 11 23 56 41.0800000  0  4G 6G 8G 9G11
  20575027.693    20575027.389    -3380151.072 9    885106.619 9
  21725171.066    21725173.271     3819894.546 9   3784105.472 8
  22249374.426    22249375.862    -5846748.951 8  -3531415.259 8
  20692859.623    20692861.497    -3346486.548 9  -1612453.524 9
 86  6 11 23 56 47.0800000  0  4G 6G 8G 9G11
  20574168.894    20574169.331    -3384661.157 9    881592.268 8
  21728185.897    21728188.462     3835738.638 9   3796451.518 9
  22246179.241    22246180.284    -5863540.787 9  -3544499.797 9
  20691766.668    20691769.131    -3352230.601 8  -1616929.405 8
 86  6 11 23 56 53.0800000  0  4G 6G 8G 9G11
  20573313.330    20573313.996    -3389157.528 9    878088.593 8
  21731204.221    21731206.744     3851600.709 9   3808811.556 8
  22242985.093    22242985.734    -5880328.819 9  -3557581.380 8
  20690678.651    20690680.622    -3357950.949 8  -1621386.823 9
 86  6 11 23 56 59.0800000  0  4G 6G 8G 9G11
  20572460.565    20572461.790    -3393640.046 9    874595.723 9
  21734226.408    21734228.842     3867480.715 8   3821185.591 9
  22239791.803    22239792.196    -5897112.889 8  -3570659.864 8
  20689594.319    20689596.430    -3363647.588 9  -1625825.758 8
 86  6 11 23 57  5.0800000  0  4G 6G 8G 9G11
  20571609.859    20571611.569    -3398108.840 9    871113.551 8
  21737250.770    21737253.891     3883378.617 9   3833573.563 9
  22236597.755    22236599.472    -5913893.007 8  -3583735.279 9
  20688514.300    20688517.244    -3369320.537 9  -1630246.235 8
 86  6 11 23 57 11.0800000  0  4G 6G 8G 9G11
  20570762.144    20570763.965    -3402563.783 8    867642.165 8
  21740280.282    21740281.959     3899294.424 8   3845975.491 7
  22233405.810    22233406.203    -5930669.273 9  -3596807.682 9
  20687439.826    20687441.353    -3374969.768 8  -1634648.236 8
 86  6 11 23 57 17.0800000  0  4G 6G 8G 9G11
  20569917.703    20569918.474    -3407004.941 8    864181.520 9
  21743312.373    21743314.821     3915228.115 8   3858391.355 8
  22230213.301    22230214.975    -5947441.623 9  -3609877.039 9
  20686369.257    20686371.629    -3380595.282 8  -1639031.758 8
 86  6 11 23 57 23.0800000  0  4G 6G 8G 9G11
  20569074.835    20569075.793    -3411432.260 9    860731.667 8
  21746346.693    21746350.231     3931179.641 8   3870821.100 9
  22227023.116    22227023.260    -5964209.855 9  -3622943.204 8
  20685303.916    20685305.447    -3386197.150 8  -1643396.840 8
 86  6 11 23 57 29.0800000  0  4G 6G 8G 9G11
  20568234.463    20568235.586    -3415845.732 9    857292.610 9
  21749386.137    21749388.932     3947148.949 8   3883264.718 8
  22223832.253    22223833.012    -5980974.308 9  -3636006.401 8
  20684241.878    20684243.533    -3391775.328 9  -1647743.470 8
 86  6 11 23 57 35.0800000  0  4G 6G 8G 9G11
  20567397.626    20567398.735    -3420245.325 9    853864.339 9
  21752428.129    21752431.106     3963136.044 9   3895722.181 8
  22220643.263    22220644.886    -5997734.725 8  -3649066.457 9
  20683185.398    20683186.885    -3397329.759 8  -1652071.608 8
 86  6 11 23 57 41.0800000  0  4G 6G 8G 9G11
  20566562.880    20566565.159    -3424631.015 9    850446.920 8
  21755474.699    21755476.662     3979140.865 8   3908193.465 9
  22217455.046    22217454.216    -6014491.114 9  -3662123.389 9
  20682132.058    20682134.224    -3402860.493 9  -1656381.267 8
 86  6 11 23 57 47.0800000  0  4G 6G 8G 9G11
  20565731.745    20565732.729    -3429002.826 9    847040.314 8
  21758523.043    21758526.051     3995163.465 9   3920678.614 9
  22214267.187    22214268.309    -6031243.480 9  -3675177.181 9
  20681084.231    20681087.298    -3408367.524 8  -1660672.453 8
 86  6 11 23 57 53.0800000  0  4G 6G 8G 9G11
  20564902.953    20564903.118    -3433360.741 9    843644.545 9
  21761575.824    21761577.201     4011203.761 9   3933177.544 9
  22211079.342    22211080.307    -6047991.902 9  -3688227.896 8
  20680041.781    20680043.149    -3413850.851 8  -1664945.171 8
 86  6 11 23 57 59.0800000  0  4G 6G 8G 9G11
  20564075.870    20564076.916    -3437704.685 9    840259.639 8
  21764631.950    21764634.858     4027261.716 9   3945690.226 8
  22207893.244    22207895.102    -6064736.115 9  -3701275.331 8
  20679002.059    20679003.971    -3419310.462 8  -1669199.403 8
 86  6 11 23 58  5.0800000  0  4G 6G 8G 9G11
  20563251.860    20563252.753    -3442034.681 9    836885.628 9
  21767689.998    21767692.889     4043337.287 9   3958216.642 8
  22204707.452    22204709.161    -6081476.386 9  -3714319.690 9
  20677966.802    20677970.007    -3424746.325 9  -1673435.142 8
 86  6 11 23 58 11.0800000  0  4G 6G 8G 9G11
  20562430.447    20562432.404    -3446350.718 9    833522.479 9
  21770753.079    21770755.729     4059430.512 8   3970756.813 9
  22201523.377    22201524.442    -6098212.553 9  -3727360.855 9
  20676937.920    20676939.292    -3430158.435 8  -1677652.379 8
 86  6 11 23 58 17.0800000  0  4G 6G 8G 9G11
  20561611.513    20561612.738    -3450652.770 8    830170.236 9
  21773818.967    21773821.573     4075541.420 9   3983310.767 9
  22198338.000    22198340.648    -6114944.626 9  -3740398.831 9
  20675911.640    20675914.044    -3435546.829 8  -1681851.105 8
 86  6 11 23 58 23.0800000  0  4G 6G 8G 9G11
  20560795.526    20560797.746    -3454940.821 9    826828.907 8
  21776888.060    21776890.464     4091669.915 9   3995878.419 9
  22195156.265    22195156.537    -6131672.526 9  -3753433.548 8
  20674891.287    20674893.363    -3440911.431 8  -1686031.326 8
 86  6 11 23 58 29.0800000  0  4G 6G 8G 9G11
  20559981.661    20559983.059    -3459214.854 9    823498.477 9
  21779960.701    21779962.835     4107815.917 9   4008459.721 9
  22191973.157    22191975.539    -6148396.372 9  -3766465.121 9
  20673875.906    20673876.264    -3446252.282 9  -1690193.029 8
 86  6 11 23 58 35.0800000  0  4G 6G 8G 9G11
  20559172.743    20559173.044    -3463474.865 9    820178.997 9
  21783036.976    21783038.868     4123979.446 8   4021054.675 9
  22188790.223    22188793.383    -6165116.030 9  -3779493.425 9
  20672864.835    20672865.458    -3451569.417 8  -1694336.241 9
 86  6 11 23 58 41.0800000  0  4G 6G 8G 9G11
  20558363.898    20558364.382    -3467720.835 9    816870.451 9
  21786116.199    21786116.719     4140160.470 8   4033663.266 9
  22185610.740    22185612.435    -6181831.525 9  -3792518.468 8
  20671856.724    20671858.456    -3456862.835 8  -1698460.995 8
 86  6 11 23 58 47.0800000  0  4G 6G 8G 9G11
  20557558.573    20557559.451    -3471952.738 9    813572.858 8
  21789197.342    21789200.377     4156358.961 9   4046285.469 9
  22182431.215    22182432.231    -6198542.804 9  -3805540.241 9
  20670853.840    20670855.149    -3462132.513 8  -1702567.227 8
 86  6 11 23 58 53.0800000  0  4G 6G 8G 9G11
  20556755.448    20556756.367    -3476170.565 9    810286.239 8
  21792283.633    21792285.967     4172574.867 9   4058921.233 9
  22179251.999    22179253.760    -6215249.913 9  -3818558.757 9
  20669855.237    20669856.997    -3467378.427 9  -1706654.958 7
 86  6 11 23 58 59.0800000  0  4G 6G 8G 9G11
  20555956.516    20555956.093    -3480374.323 9    807010.590 9
  21795373.075    21795374.980     4188808.199 9   4071570.576 8
  22176072.877    22176074.499    -6231952.819 9  -3831574.010 9
  20668862.256    20668864.075    -3472600.631 8  -1710724.187 9
 86  6 11 23 59  5.0800000  0  4G 6G 8G 9G11
  20555158.746    20555159.740    -3484563.973 9    803745.926 9
  21798465.433    21798467.611     4205058.922 8   4084233.479 9
  22172895.204    22172896.984    -6248651.497 9  -3844585.958 8
  20667871.900    20667874.099    -3477799.069 8  -1714774.919 8
 86  6 11 23 59 11.0800000  0  4G 6G 8G 9G11
  20554363.441    20554364.643    -3488739.484 9    800492.286 9
  21801560.483    21801563.148     4221327.030 9   4096909.926 9
  22169718.735    22169721.138    -6265345.911 9  -3857594.586 9
  20666888.414    20666889.094    -3482973.731 8  -1718807.141 8
 86  6 11 23 59 17.0800000  0  4G 6G 8G 9G11
  20553571.441    20553572.876    -3492900.878 9    797249.637 9
  21804660.312    21804661.959     4237612.502 9   4109599.897 9
  22166542.933    22166544.434    -6282036.074 9  -3870599.906 9
  20665906.587    20665909.612    -3488124.628 8  -1722820.808 8
 86  6 11 23 59 23.0800000  0  4G 6G 8G 9G11
  20552782.666    20552783.748    -3497048.146 9    794017.994 8
  21807763.058    21807764.420     4253915.301 9   4122303.375 9
  22163366.935    22163369.044    -6298721.948 9  -3883601.876 9
  20664931.597    20664933.646    -3493251.736 8  -1726815.967 8
 86  6 11 23 59 29.0800000  0  4G 6G 8G 9G11
  20551995.705    20551997.073    -3501181.193 9    790797.441 9
  21810866.780    21810870.445     4270235.376 8   4135020.318 8
  22160193.086    22160194.329    -6315403.573 8  -3896600.537 9
  20663960.417    20663961.841    -3498355.065 8  -1730792.589 8
 86  6 11 23 59 35.0800000  0  4G 6G 8G 9G11
  20551213.366    20551213.325    -3505300.069 9    787587.930 8
  21813976.196    21813979.317     4286572.723 9   4147750.709 8
  22157019.034    22157021.516    -6332080.833 9  -3909595.799 8
  20662994.041    20662995.713    -3503434.663 8  -1734750.707 8
 86  6 11 23 59 41.0800000  0  4G 6G 8G 9G11
  20550430.851    20550433.151    -3509404.734 8    784389.494 9
  21817088.389    21817091.552     4302927.329 9   4160494.559 9
  22153846.387    22153849.024    -6348753.762 9  -3922587.690 9
  20662031.512    20662034.221    -3508490.470 9  -1738690.303 8
 86  6 11 23 59 47.0800000  0  4G 6G 8G 9G11
  20549653.809    20549654.239    -3513495.158 9    781202.149 8
  21820204.100    21820206.749     4319299.116 9   4173251.796 9
  22150675.047    22150675.977    -6365422.354 9  -3935576.187 9
  20661075.207    20661076.388    -3513522.508 9  -1742611.361 8
 86  6 11 23 59 53.0800000  0  4G 6G 8G 9G11
  20548877.117    20548878.869    -3517571.362 9    778025.876 9
  21823323.361    21823325.195     4335688.090 9   4186022.417 8
  22147503.393    22147505.545    -6382086.591 9  -3948561.315 9
  20660121.188    20660123.466    -3518530.787 8  -1746513.913 8
 86  6 11 23 59 59.0800000  0  4G 6G 8G 9G11
  20548104.234    20548105.751    -3521633.376 8    774860.672 9
  21826444.452    21826448.432     4352094.227 9   4198806.422 9
  22144332.812    22144335.200    -6398746.475 9  -3961543.030 9
  20659172.743    20659174.287    -3523515.309 8  -1750397.963 8
 86  6 12  0  0  5.0800000  0  4G 6G 8G 9G11
  20547334.781    20547334.743    -3525681.079 8    771706.621 9
  21829570.524    21829573.187     4368517.514 9   4211603.785 9
  22141163.234    22141165.164    -6415401.909 8  -3974521.294 8
  20658228.110    20658229.748    -3528476.033 8  -1754263.446 8
 86  6 12  0  0 11.0800000  0  4G 6G 8G 9G11
  20546566.152    20546568.124    -3529714.472 9    768563.715 9
  21832699.286    21832701.048     4384957.943 9   4224414.499 9
  22137995.007    22137997.029    -6432052.981 9  -3987496.142 8
  20657288.683    20657290.264    -3533412.968 9  -1758110.421 8
 86  6 12  0  0 17.0800000  0  4G 6G 8G 9G11
  20545802.102    20545803.576    -3533733.625 8    765431.907 9
  21835830.423    21835833.058     4401415.423 9   4237238.513 9
  22134826.830    22134828.917    -6448699.604 9  -4000467.545 9
  20656354.471    20656356.732    -3538326.134 8  -1761938.859 8
 86  6 12  0  0 23.0800000  0  4G 6G 8G 9G11
  20545039.529    20545041.776    -3537738.465 9    762311.253 9
  21838965.968    21838967.216     4417889.925 9   4250075.780 9
  22131658.697    22131661.085    -6465341.813 9  -4013435.490 8
  20655423.430    20655426.159    -3543215.543 8  -1765748.776 8
 86  6 12  0  0 29.0800000  0  4G 6G 8G 9G11
  20544280.291    20544282.234    -3541728.938 8    759201.789 8
  21842104.288    21842106.823     4434381.483 9   4262926.342 9
  22128493.495    22128496.406    -6481979.561 9  -4026399.964 8
  20654498.141    20654500.259    -3548081.165 8  -1769540.178 8
 86  6 12  0  0 35.0800000  0  4G 6G 8G 9G11
  20543523.217    20543525.254    -3545705.080 9    756103.500 8
  21845245.843    21845247.133     4450890.022 9   4275790.138 9
  22125329.153    22125331.169    -6498612.827 9  -4039360.948 9
  20653575.715    20653578.146    -3552923.024 8  -1773313.052 9
 86  6 12  0  0 41.0800000  0  4G 6G 8G 9G11
  20542768.787    20542771.279    -3549666.876 9    753016.394 9
  21848390.630    21848391.478     4467415.534 9   4288667.162 9
  22122164.347    22122166.355    -6515241.531 9  -4052318.379 8
  20652658.846    20652660.630    -3557741.073 8  -1777067.373 8
 86  6 12  0  0 47.0800000  0  4G 6G 8G 9G11
  20542018.934    20542019.485    -3553614.306 9    749940.464 8
  21851536.651    21851540.073     4483958.029 9   4301557.411 9
  22119000.612    22119001.706    -6531865.757 9  -4065272.318 9
  20651746.112    20651748.824    -3562535.366 8  -1780803.186 7
 86  6 12  0  0 53.0800000  0  4G 6G 8G 9G11
  20541269.311    20541271.218    -3557547.325 9    746875.789 9
  21854689.423    21854691.714     4500517.470 8   4314460.866 9
  22115837.951    22115839.832    -6548485.428 9  -4078222.699 9
  20650838.199    20650840.769    -3567305.879 8  -1784520.466 8
 86  6 12  0  0 59.0800000  0  4G 6G 8G 9G11
  20540524.244    20540525.899    -3561465.962 9    743822.302 8
  21857844.112    21857844.830     4517093.829 9   4327377.513 9
  22112675.776    22112677.672    -6565100.593 9  -4091169.562 8
  20649936.438    20649938.104    -3572052.607 8  -1788219.216 8
 86  6 12  0  1  5.0800000  0  4G 6G 8G 9G11
  20539781.552    20539782.461    -3565370.135 8    740780.084 9
  21861002.009    21861003.140     4533687.068 9   4340307.306 9
  22109514.798    22109517.502    -6581711.162 9  -4104112.880 8
  20649037.274    20649038.798    -3576775.504 8  -1791899.398 8
 86  6 12  0  1 11.0800000  0  4G 6G 8G 9G11
  20539042.360    20539042.330    -3569259.864 9    737749.133 8
  21864162.966    21864164.027     4550297.167 9   4353250.235 8
  22106355.079    22106357.175    -6598317.154 9  -4117052.601 8
  20648142.714    20648145.431    -3581474.575 8  -1795561.007 9
 86  6 12  0  1 17.0800000  0  4G 6G 8G 9G11
  20538304.034    20538305.011    -3573135.120 8    734729.443 9
  21867326.641    21867327.804     4566924.095 9   4366206.279 8
  22103196.238    22103197.713    -6614918.550 8  -4129988.741 8
  20647253.363    20647256.370    -3586149.834 9  -1799204.055 8
 86  6 12  0  1 23.0800000  0  4G 6G 8G 9G11
  20537569.847    20537569.737    -3576995.934 9    731721.026 9
  21870494.467    21870495.900     4583567.803 9   4379175.400 8
  22100039.036    22100039.308    -6631515.376 8  -4142921.334 8
  20646366.688    20646370.840    -3590801.329 8  -1802828.598 8
 86  6 12  0  1 29.0800000  0  4G 6G 8G 9G11
  20536836.815    20536838.866    -3580842.259 9    728723.889 9
  21873664.126    21873666.118     4600228.261 9   4392157.574 8
  22096881.347    22096882.971    -6648107.575 9  -4155850.314 9
  20645488.334    20645489.083    -3595429.070 8  -1806434.638 8
 86  6 12  0  1 35.0800000  0  4G 6G 8G 9G11
  20536108.163    20536109.122    -3584674.081 9    725738.055 9
  21876837.047    21876839.237     4616905.472 9   4405152.795 9
  22093725.169    22093726.085    -6664695.080 9  -4168775.629 9
  20644612.137    20644613.629    -3600033.032 8  -1810022.133 8
 86  6 12  0  1 41.0800000  0  4G 6G 8G 9G11
  20535381.542    20535383.249    -3588491.396 9    722763.515 8
  21880015.174    21880016.678     4633599.387 9   4418161.041 9
  22090569.048    22090570.749    -6681277.900 8  -4181697.300 9
  20643740.142    20643741.053    -3604613.205 8  -1813591.107 9
 86  6 12  0  1 47.0800000  0  4G 6G 8G 9G11
  20534658.098    20534659.011    -3592294.185 9    719800.313 8
  21883194.792    21883195.738     4650309.973 9   4431182.276 9
  22087414.478    22087415.430    -6697856.105 9  -4194615.377 9
  20642873.590    20642874.660    -3609169.608 8  -1817141.536 7
 86  6 12  0  1 53.0800000  0  4G 6G 8G 9G11
  20533937.069    20533937.903    -3596082.414 9    716848.442 9
  21886376.584    21886377.960     4667037.205 9   4444216.479 9
  22084260.283    22084261.841    -6714429.503 9  -4207529.709 9
  20642010.110    20642013.713    -3613702.184 9  -1820673.425 9
 86  6 12  0  1 59.0800000  0  4G 6G 8G 9G11
  20533218.765    20533220.734    -3599856.109 9    713907.892 8
  21889563.383    21889565.203     4683781.112 9   4457263.674 9
  22081106.894    22081109.575    -6730998.283 8  -4220440.440 8
  20641151.100    20641154.384    -3618210.955 8  -1824186.752 8
 86  6 12  0  2  5.0800000  0  4G 6G 8G 9G11
  20532503.217    20532505.353    -3603615.259 9    710978.686 9
  21892753.274    21892755.437     4700541.626 9   4470323.801 9
  22077956.053    22077956.746    -6747562.305 9  -4233347.460 9
  20640298.976    20640301.535    -3622695.920 9  -1827681.522 8
 86  6 12  0  2 11.0800000  0  4G 6G 8G 9G11
  20531790.715    20531791.602    -3607359.761 9    708060.903 8
  21895945.911    21895947.403     4717318.721 8   4483396.865 9
  22074804.089    22074805.427    -6764121.687 9  -4246250.867 8
  20639450.027    20639452.141    -3627157.065 9  -1831157.744 8
 86  6 12  0  2 17.0800000  0  4G 6G 8G 9G11
  20531080.887    20531081.897    -3611089.646 8    705154.490 8
  21899141.183    21899142.944     4734112.396 9   4496482.847 9
  22071654.019    22071655.135    -6780676.222 9  -4259150.509 9
  20638604.299    20638607.813    -3631594.397 8  -1834615.394 7
 86  6 12  0  2 23.0800000  0  4G 6G 8G 9G11
  20530374.480    20530374.581    -3614804.915 9    702259.467 9
  21902340.290    21902341.708     4750922.584 9   4509581.686 9
  22068504.017    22068505.296    -6797225.975 9  -4272046.412 9
  20637765.648    20637767.740    -3636007.928 9  -1838054.519 8
 86  6 12  0  2 29.0800000  0  4G 6G 8G 9G11
  20529669.572    20529669.892    -3618505.588 9    699375.835 9
  21905541.685    21905543.832     4767749.269 9   4522693.385 9
  22065356.274    22065356.687    -6813771.020 9  -4284938.651 9
  20636931.406    20636933.136    -3640397.670 9  -1841475.100 8
 86  6 12  0  2 35.0800000  0  4G 6G 8G 9G11
  20528969.058    20528969.772    -3622191.552 9    696503.651 8
  21908746.859    21908748.935     4784592.427 9   4535817.915 9
  22062208.778    22062209.901    -6830311.161 9  -4297827.060 8
  20636100.214    20636101.448    -3644763.608 8  -1844877.120 8
 86  6 12  0  2 41.0800000  0  4G 6G 8G 9G11
  20528270.244    20528271.645    -3625862.859 9    693642.896 8
  21911955.435    21911956.783     4801452.019 9   4548955.267 9
  22059062.510    22059063.125    -6846846.474 9  -4310711.728 9
  20635272.742    20635275.365    -3649105.704 8  -1848260.585 8
 86  6 12  0  2 47.0800000  0  4G 6G 8G 9G11
  20527574.179    20527575.365    -3629519.467 9    690793.592 8
  21915166.819    21915169.153     4818328.033 9   4562105.399 9
  22055915.662    22055918.221    -6863376.956 9  -4323592.611 8
  20634452.184    20634454.695    -3653424.063 8  -1851625.514 8
 86  6 12  0  2 53.0800000  0  4G 6G 8G 9G11
  20526881.172    20526881.648    -3633161.412 9    687955.708 8
  21918382.123    21918383.743     4835220.490 9   4575268.346 9
  22052771.588    22052773.139    -6879902.674 9  -4336469.793 8
  20633635.250    20633636.829    -3657718.607 7  -1854971.925 8
 86  6 12  0  2 59.0800000  0  4G 6G 8G 9G11
  20526191.739    20526192.174    -3636788.626 9    685129.309 8
  21921598.143    21921601.336     4852129.305 9   4588444.048 9
  22049627.924    22049628.639    -6896423.454 8  -4349343.132 8
  20632822.221    20632824.768    -3661989.355 8  -1858299.778 8
 86  6 12  0  3  5.0800000  0  4G 6G 8G 9G11
  20525503.307    20525504.230    -3640401.098 9    682314.399 8
  21924819.942    21924822.063     4869054.468 9   4601632.481 8
  22046485.295    22046485.194    -6912939.297 9  -4362212.613 9
  20632012.454    20632015.603    -3666236.265 8  -1861609.046 8
 86  6 12  0  3 11.0800000  0  4G 6G 8G 9G11
  20524818.956    20524820.354    -3643998.829 9    679510.960 8
  21928043.260    21928046.180     4885995.964 9   4614833.638 9
  22043342.389    22043344.549    -6929450.193 9  -4375078.253 8
  20631208.745    20631211.682    -3670459.382 8  -1864899.779 8
 86  6 12  0  3 17.0800000  0  4G 6G 8G 9G11
  20524137.697    20524137.390    -3647581.779 9    676719.064 8
  21931271.529    21931272.474     4902953.748 8   4628047.489 9
  22040201.965    22040202.720    -6945956.221 9  -4387940.085 9
  20630411.052    20630414.009    -3674658.656 8  -1868171.946 8
 86  6 12  0  3 23.0800000  0  4G 6G 8G 9G11
  20523458.590    20523458.845    -3651149.946 9    673938.669 9
  21934501.427    21934502.588     4919927.808 9   4641274.023 9
  22037062.141    22037062.533    -6962457.217 9  -4400797.994 9
  20629616.143    20629619.567    -3678834.074 8  -1871425.520 8
 86  6 12  0  3 29.0800000  0  4G 6G 8G 9G11
  20522781.670    20522783.638    -3654703.331 9    671169.803 8
  21937734.016    21937735.107     4936918.108 8   4654513.219 9
  22033923.017    22033923.647    -6978953.275 9  -4413652.067 9
  20628826.016    20628828.244    -3682985.673 9  -1874660.534 7
 86  6 12  0  3 35.0800000  0  4G 6G 8G 9G11
  20522108.169    20522109.413    -3658241.845 9    668412.526 8
  21940969.839    21940971.730     4953924.654 9   4667765.074 9
  22030784.762    22030786.064    -6995444.366 9  -4426502.260 7
  20628040.442    20628043.607    -3687113.482 9  -1877876.997 9
 86  6 12  0  3 41.0800000  0  4G 6G 8G 9G11
  20521438.072    20521439.795    -3661765.551 9    665666.781 8
  21944209.127    21944211.890     4970947.391 9   4681029.540 9
  22027647.143    22027648.687    -7011930.440 9  -4439348.542 9
  20627259.192    20627262.852    -3691217.477 8  -1881074.922 8
 86  6 12  0  3 47.0800000  0  4G 6G 8G 9G11
  20520769.271    20520771.295    -3665274.416 9    662932.603 8
  21947452.819    21947453.222     4987986.327 8   4694306.622 9
  22024511.598    22024512.634    -7028411.472 9  -4452190.911 8
  20626483.708    20626486.721    -3695297.667 8  -1884254.283 7
 86  6 12  0  3 53.0800000  0  4G 6G 8G 9G11
  20520105.920    20520106.420    -3668768.443 9    660209.988 8
  21950696.712    21950699.591     5005041.363 9   4707596.254 8
  22021375.889    22021376.932    -7044887.490 9  -4465029.362 9
  20625710.454    20625713.776    -3699354.025 8  -1887415.083 8
 86  6 12  0  3 59.0800000  0  4G 6G 8G 9G11
  20519442.561    20519444.680    -3672247.569 9    657498.976 9
  21953945.873    21953947.563     5022112.498 9   4720898.441 9
  22018242.011    22018242.562    -7061358.469 9  -4477863.879 8
  20624944.124    20624946.220    -3703386.609 7  -1890557.354 8
 86  6 12  0  4  5.0800000  0  4G 6G 8G 9G11
  20518783.623    20518784.084    -3675711.846 9    654799.542 9
  21957197.578    21957199.084     5039199.746 9   4734213.176 9
  22015108.019    22015110.263    -7077824.346 8  -4490694.428 8
  20624179.959    20624183.025    -3707395.424 8  -1893681.101 8
 86  6 12  0  4 11.0800000  0  4G 6G 8G 9G11
  20518128.384    20518128.380    -3679161.176 9    652111.749 8
  21960452.405    21960454.139     5056303.023 9   4747540.397 9
  22011975.150    22011977.333    -7094285.183 9  -4503521.052 8
  20623421.877    20623426.172    -3711380.383 8  -1896786.261 8
 86  6 12  0  4 17.0800000  0  4G 6G 8G 9G11
  20517475.346    20517474.814    -3682595.612 8    649435.558 8
  21963708.576    21963711.540     5073422.316 8   4760880.100 9
  22008845.738    22008845.980    -7110740.877 9  -4516343.663 9
  20622668.404    20622671.294    -3715341.519 8  -1899872.866 9
 86  6 12  0  4 23.0800000  0  4G 6G 8G 9G11
  20516823.391    20516825.055    -3686015.121 9    646771.019 9
  21966970.641    21966972.133     5090557.624 9   4774232.281 9
  22005714.571    22005716.522    -7127191.484 9  -4529162.316 9
  20621919.572    20621921.754    -3719278.882 7  -1902940.947 8
 86  6 12  0  4 29.0800000  0  4G 6G 8G 9G11
  20516175.916    20516177.013    -3689419.674 9    644118.101 9
  21970234.397    21970236.474     5107708.893 8   4787596.899 9
  22002584.600    22002586.851    -7143637.001 9  -4541976.984 8
  20621173.285    20621177.945    -3723192.460 8  -1905990.473 8
 86  6 12  0  4 35.0800000  0  4G 6G 8G 9G11
  20515531.456    20515532.037    -3692809.289 9    641476.860 9
  21973500.527    21973504.121     5124876.133 8   4800973.968 9
  21999456.353    21999458.076    -7160077.310 9  -4554787.619 9
  20620434.606    20620437.140    -3727082.263 8  -1909021.483 7
 86  6 12  0  4 41.0800000  0  4G 6G 8G 9G11
  20514888.229    20514890.277    -3696183.901 9    638847.288 8
  21976770.779    21976772.454     5142059.275 8   4814363.431 9
  21996329.466    21996329.886    -7176512.512 9  -4567594.266 9
  20619699.507    20619701.263    -3730948.310 7  -1912033.987 7
 86  6 12  0  4 47.0800000  0  4G 6G 8G 9G11
  20514248.399    20514249.179    -3699543.495 9    636229.413 8
  21980043.578    21980045.910     5159258.309 8   4827765.258 8
  21993203.150    21993202.420    -7192942.419 9  -4580396.792 9
  20618968.063    20618970.109    -3734790.546 8  -1915027.936 8
 86  6 12  0  4 53.0800000  0  4G 6G 8G 9G11
  20513611.918    20513613.578    -3702888.101 8    633623.233 9
  21983319.866    21983322.157     5176473.250 8   4841179.488 9
  21990077.164    21990077.506    -7209367.090 9  -4593195.226 9
  20618240.517    20618243.257    -3738608.950 8  -1918003.326 8
 86  6 12  0  4 59.0800000  0  4G 6G 8G 9G11
  20512979.137    20512980.664    -3706217.671 8    631028.767 8
  21986598.789    21986600.837     5193704.055 9   4854606.094 9
  21986952.215    21986952.858    -7225786.536 9  -4605989.595 7
  20617519.725    20617522.193    -3742403.545 7  -1920960.141 8
 86  6 12  0  5  5.0800000  0  4G 6G 8G 9G11
  20512348.323    20512350.076    -3709532.170 8    628446.039 9
  21989880.975    21989882.723     5210950.677 8   4868045.010 9
  21983829.098    21983829.655    -7242200.774 9  -4618779.906 9
  20616800.624    20616803.761    -3746174.295 8  -1923898.389 9
 86  6 12  0  5 11.0800000  0  4G 6G 8G 9G11
  20511720.073    20511721.932    -3712831.614 8    625875.043 8
  21993165.963    21993167.741     5228213.078 8   4881496.222 9
  21980706.882    21980707.504    -7258609.758 8  -4631566.122 9
  20616087.792    20616090.252    -3749921.201 7  -1926818.060 8
 86  6 12  0  5 17.0800000  0  4G 6G 8G 9G11
  20511095.688    20511097.177    -3716115.993 8    623315.782 9
  21996455.218    21996456.021     5245491.248 8   4894959.725 9
  21977584.974    21977586.040    -7275013.467 9  -4644348.230 9
  20615379.707    20615382.143    -3753644.295 9  -1929719.172 9
 86  6 12  0  5 23.0800000  0  4G 6G 8G 9G11
  20510473.161    20510474.399    -3719385.277 9    620768.289 9
  21999744.557    21999746.764     5262785.138 9   4908435.485 9
  21974464.019    21974465.733    -7291411.850 9  -4657126.192 8
  20614676.842    20614678.912    -3757343.587 8  -1932601.737 8
 86  6 12  0  5 29.0800000  0  4G 6G 8G 9G11
  20509853.647    20509854.392    -3722639.472 9    618232.553 8
  22003038.048    22003040.353     5280094.793 8   4921923.515 9
  21971344.920    21971345.286    -7307804.971 9  -4669900.048 8
  20613977.323    20613978.478    -3761019.047 8  -1935465.730 7
 86  6 12  0  5 35.0800000  0  4G 6G 8G 9G11
  20509238.310    20509240.215    -3725878.572 9    615708.578 8
  22006334.713    22006337.978     5297420.135 9   4935423.775 8
  21968226.412    21968226.854    -7324192.697 9  -4682669.707 8
  20613282.396    20613283.418    -3764670.681 8  -1938311.161 8
 86  6 12  0  5 41.0800000  0  4G 6G 8G 9G11
  20508624.382    20508624.645    -3729102.492 9    613196.437 8
  22009635.041    22009638.191     5314761.144 9   4948936.246 9
  21965108.826    21965109.954    -7340575.085 9  -4695435.206 8
  20612590.018    20612594.252    -3768298.529 9  -1941138.059 8
 86  6 12  0  5 47.0800000  0  4G 6G 8G 9G11
  20508013.241    20508014.272    -3732311.276 9    610696.081 9
  22012938.804    22012940.324     5332117.765 9   4962460.884 8
  21961992.590    21961993.790    -7356952.152 9  -4708196.543 8
  20611905.187    20611908.087    -3771902.560 9  -1943946.394 8
 86  6 12  0  5 53.0800000  0  4G 6G 8G 9G11
  20507406.088    20507405.928    -3735504.879 8    608207.555 8
  22016243.799    22016245.477     5349489.975 8   4975997.673 9
  21958877.866    21958878.787    -7373323.853 9  -4720953.719 8
  20611224.426    20611226.717    -3775482.786 8  -1946736.167 8
 86  6 12  0  5 59.0800000  0  4G 6G 8G 9G11
  20506801.256    20506802.780    -3738683.320 9    605730.854 8
  22019552.400    22019554.805     5366877.770 8   4989546.586 9
  21955763.041    21955763.076    -7389690.115 9  -4733706.647 8
  20610548.117    20610549.559    -3779039.213 8  -1949507.414 9
 86  6 12  0  6  5.0800000  0  4G 6G 8G 9G11
  20506199.881    20506199.851    -3741846.554 9    603265.998 8
  22022864.061    22022865.938     5384281.126 8   5003107.648 9
  21952649.274    21952650.776    -7406050.900 9  -4746455.309 8
  20609874.834    20609877.620    -3782571.837 8  -1952260.103 8
 86  6 12  0  6 11.0800000  0  4G 6G 8G 9G11
  20505600.921    20505600.197    -3744994.609 9    600812.964 8
  22026178.870    22026181.091     5401699.999 9   5016680.787 9
  21949537.196    21949538.532    -7422406.375 9  -4759199.819 9
  20609208.052    20609209.655    -3786080.691 8  -1954994.275 8
 86  6 12  0  6 17.0800000  0  4G 6G 8G 9G11
  20505004.181    20505005.237    -3748127.445 9    598371.795 8
  22029496.000    22029498.147     5419134.366 9   5030266.012 8
  21946425.571    21946426.620    -7438756.311 9  -4771940.036 9
  20608544.309    20608546.523    -3789565.693 8  -1957709.855 8
 86  6 12  0  6 23.0800000  0  4G 6G 8G 9G11
  20504410.804    20504411.563    -3751245.046 9    595942.494 7
  22032818.564    22032818.940     5436584.219 9   5043863.292 8
  21943316.353    21943316.639    -7455100.771 9  -4784675.973 9
  20607885.726    20607888.294    -3793026.932 8  -1960406.923 8
 86  6 12  0  6 29.0800000  0  4G 6G 8G 9G11
  20503821.095    20503820.601    -3754347.347 8    593525.107 8
  22036141.814    22036141.476     5454049.543 9   5057472.634 8
  21940206.924    21940208.189    -7471439.790 9  -4797407.664 9
  20607232.745    20607233.170    -3796464.364 8  -1963085.435 8
 86  6 12  0  6 35.0800000  0  4G 6G 8G 9G11
  20503232.536    20503233.115    -3757434.389 9    591119.629 8
  22039467.044    22039469.378     5471530.314 9   5071094.007 9
  21937097.921    21937100.790    -7487773.257 9  -4810135.040 9
  20606582.624    20606584.718    -3799877.979 8  -1965745.396 8
 86  6 12  0  6 41.0800000  0  4G 6G 8G 9G11
  20502648.562    20502649.079    -3760506.141 9    588726.060 9
  22042797.910    22042798.970     5489026.462 9   5084727.369 8
  21933991.446    21933993.034    -7504101.180 9  -4822858.101 9
  20605937.428    20605939.395    -3803267.805 8  -1968386.825 8
 86  6 12  0  6 47.0800000  0  4G 6G 8G 9G11
  20502066.722    20502067.720    -3763562.593 9    586344.396 8
  22046128.545    22046131.596     5506537.982 8   5098372.706 9
  21930883.670    21930886.466    -7520423.620 9  -4835576.878 9
  20605296.300    20605298.462    -3806633.827 7  -1971009.698 8
 86  6 12  0  6 53.0800000  0  4G 6G 8G 9G11
  20501488.344    20501488.581    -3766603.697 9    583974.710 8
  22049464.047    22049466.268     5524064.803 8   5112029.965 9
  21927779.096    21927781.013    -7536740.526 9  -4848291.337 9
  20604660.311    20604662.956    -3809976.083 8  -1973614.045 7
 86  6 12  0  6 59.0800000  0  4G 6G 8G 9G11
  20500913.017    20500913.398    -3769629.485 9    581616.945 9
  22052802.466    22052804.271     5541606.983 9   5125699.181 8
  21924676.169    21924678.579    -7553051.834 9  -4861001.453 9
  20604029.131    20604031.661    -3813294.545 7  -1976199.855 8
 86  6 12  0  7  5.0800000  0  4G 6G 8G 9G11
  20500339.892    20500339.667    -3772639.944 8    579271.144 8
  22056142.347    22056145.982     5559164.417 9   5139380.311 8
  21921572.834    21921574.686    -7569357.533 9  -4873707.190 8
  20603401.755    20603404.680    -3816589.198 8  -1978767.111 8
 86  6 12  0  7 11.0800000  0  4G 6G 8G 9G11
  20499769.341    20499770.976    -3775635.010 9    576937.316 8
  22059486.863    22059489.211     5576737.165 9   5153073.349 9
  21918471.088    21918473.248    -7585657.566 9  -4886408.511 9
  20602779.826    20602782.142    -3819860.080 7  -1981315.856 7
 86  6 12  0  7 17.0800000  0  4G 6G 8G 9G11
  20499202.120    20499203.419    -3778614.709 8    574615.476 9
  22062834.155    22062836.803     5594325.134 8   5166778.262 8
  21915369.778    21915373.240    -7601951.996 8  -4899105.456 8
  20602161.037    20602163.162    -3823107.207 8  -1983846.086 8
 86  6 12  0  7 23.0800000  0  4G 6G 8G 9G11
  20498639.588    20498638.955    -3781579.009 8    572305.629 8
  22066183.021    22066185.870     5611928.327 9   5180495.034 8
  21912270.206    21912272.481    -7618240.701 9  -4911797.953 8
  20601548.179    20601550.839    -3826330.504 8  -1986357.746 8
 86  6 12  0  7 29.0800000  0  4G 6G 8G 9G11
  20498077.210    20498077.909    -3784527.911 9    570007.782 8
  22069535.807    22069539.414     5629546.739 8   5194223.649 9
  21909172.167    21909173.518    -7634523.882 8  -4924486.132 9
  20600938.438    20600940.856    -3829530.025 8  -1988850.865 8
 86  6 12  0  7 35.0800000  0  4G 6G 8G 9G11
  20497518.877    20497520.962    -3787461.390 8    567721.948 8
  22072893.257    22072894.763     5647180.271 9   5207964.057 8
  21906073.691    21906076.115    -7650801.247 9  -4937169.791 9
  20600334.939    20600336.100    -3832705.761 7  -1991325.480 8
 86  6 12  0  7 41.0800000  0  4G 6G 8G 9G11
  20496963.972    20496965.125    -3790379.391 9    565448.199 8
  22076250.595    22076253.431     5664828.931 8   5221716.259 9
  21902977.704    21902979.205    -7667072.986 8  -4949849.065 9
  20599733.307    20599738.159    -3835857.679 8  -1993781.517 7
 86  6 12  0  7 47.0800000  0  4G 6G 8G 9G11
  20496411.555    20496413.105    -3793281.958 8    563186.442 8
  22079611.595    22079614.431     5682492.690 8   5235480.222 9
  21899883.446    21899884.398    -7683338.977 9  -4962523.855 8
  20599140.033    20599143.027    -3838985.765 8  -1996218.981 8
 86  6 12  0  7 53.0800000  0  4G 6G 8G 9G11
  20495861.897    20495863.835    -3796169.044 8    560936.769 8
  22082976.602    22082977.820     5700171.507 9   5249255.919 8
  21896789.028    21896789.591    -7699599.173 9  -4975194.142 8
  20598548.922    20598551.172    -3842090.093 8  -1998637.937 8
 86  6 12  0  7 59.0800000  0  4G 6G 8G 9G11
  20495315.818    20495317.510    -3799040.698 8    558699.115 8
  22086343.443    22086345.660     5717865.406 8   5263043.375 8
  21893695.916    21893698.340    -7715853.689 8  -4987859.994 8
  20597963.433    20597965.523    -3845170.622 7  -2001038.350 7
 86  6 12  0  8  5.0800000  0  4G 6G 8G 9G11
  20494771.378    20494772.874    -3801896.794 8    556473.584 8
  22089713.056    22089714.960     5735574.338 9   5276842.543 9
  21890603.872    21890605.157    -7732102.503 9  -5000521.407 9
  20597380.689    20597384.605    -3848227.371 8  -2003420.223 8
 86  6 12  0  8 11.0800000  0  4G 6G 8G 9G11
  20494231.595    20494232.570    -3804737.398 9    554260.110 8
  22093086.073    22093088.066     5753298.245 8   5290653.368 9
  21887512.105    21887513.528    -7748345.449 9  -5013178.254 8
  20596804.526    20596806.221    -3851260.306 7  -2005783.561 8
 86  6 12  0  8 17.0800000  0  4G 6G 8G 9G11
  20493694.436    20493695.106    -3807562.463 9    552058.768 9
  22096461.241    22096463.048     5771037.155 9   5304475.886 8
  21884421.784    21884423.587    -7764582.566 9  -5025830.547 9
  20596229.718    20596231.687    -3854269.509 7  -2008128.388 8
 86  6 12  0  8 23.0800000  0  4G 6G 8G 9G11
  20493159.288    20493160.114    -3810372.029 9    549869.493 8
  22099840.127    22099842.133     5788790.984 8   5318310.043 9
  21881333.583    21881335.856    -7780813.863 9  -5038478.302 9
  20595662.424    20595665.523    -3857254.918 8  -2010454.677 7
 86  6 12  0  8 29.0800000  0  4G 6G 8G 9G11
  20492627.567    20492628.533    -3813166.000 9    547692.379 8
  22103221.446    22103222.651     5806559.740 9   5332155.825 9
  21878246.834    21878247.932    -7797039.324 8  -5051121.521 9
  20595099.484    20595100.806    -3860216.549 7  -2012762.448 8
 86  6 12  0  8 35.0800000  0  4G 6G 8G 9G11
  20492098.066    20492099.540    -3815944.408 9    545527.382 8
  22106605.285    22106607.990     5824343.401 9   5346013.214 9
  21875159.245    21875162.091    -7813258.898 9  -5063760.144 8
  20594540.211    20594543.454    -3863154.380 8  -2015051.664 8
 86  6 12  0  8 41.0800000  0  4G 6G 8G 9G11
  20491572.446    20491573.888    -3818707.199 9    543374.554 9
  22109992.870    22109994.647     5842141.908 9   5359882.178 9
  21872073.982    21872076.034    -7829472.606 9  -5076394.204 9
  20593985.389    20593987.799    -3866068.471 8  -2017322.370 7
 86  6 12  0  8 47.0800000  0  4G 6G 8G 9G11
  20491049.824    20491049.565    -3821454.396 9    541233.885 8
  22113382.260    22113384.580     5859955.238 9   5373762.697 9
  21868989.823    21868991.388    -7845680.484 9  -5089023.716 9
  20593434.750    20593438.124    -3868958.803 7  -2019574.582 7
 86  6 12  0  8 53.0800000  0  4G 6G 8G 9G11
  20490529.706    20490530.719    -3824185.937 9    539105.412 8
  22116774.826    22116778.019     5877783.414 9   5387654.778 9
  21865907.078    21865908.794    -7861882.351 9  -5101648.538 8
  20592891.115    20592891.728    -3871825.388 8  -2021808.283 7
 86  6 12  0  8 59.0800000  0  4G 6G 8G 9G11
  20490013.545    20490014.212    -3826901.859 8    536989.109 8
  22120169.797    22120171.974     5895626.354 8   5401558.362 9
  21862824.570    21862826.889    -7878078.292 9  -5114268.748 9
  20592349.640    20592351.118    -3874668.227 8  -2024023.482 7
 86  6 12  0  9  5.0800000  0  4G 6G 8G 9G11
  20489498.901    20489499.768    -3829602.133 9    534884.996 8
  22123568.716    22123569.920     5913484.080 8   5415473.475 9
  21859743.693    21859745.660    -7894268.248 9  -5126884.294 9
  20591812.950    20591815.974    -3877487.249 7  -2026220.131 8
 86  6 12  0  9 11.0800000  0  4G 6G 8G 9G11
  20488989.531    20488989.050    -3832286.738 9    532793.100 8
  22126970.152    22126971.702     5931356.551 9   5429400.057 8
  21856664.556    21856667.331    -7910452.249 9  -5139495.195 9
  20591280.195    20591282.334    -3880282.541 8  -2028398.277 8
 86  6 12  0  9 17.0800000  0  4G 6G 8G 9G11
  20488480.067    20488481.612    -3834955.676 8    530713.400 8
  22130372.680    22130376.030     5949243.678 9   5443338.078 9
  21853585.297    21853588.386    -7926630.351 9  -5152101.500 8
  20590753.007    20590756.178    -3883054.065 8  -2030557.892 8
 86  6 12  0  9 23.0800000  0  4G 6G 8G 9G11
  20487976.334    20487977.523    -3837608.936 8    528645.920 7
  22133779.441    22133781.988     5967145.495 9   5457287.542 9
  21850508.305    21850510.100    -7942802.473 9  -5164703.149 9
  20590229.685    20590234.366    -3885801.829 8  -2032699.005 8
 86  6 12  0  9 29.0800000  0  4G 6G 8G 9G11
  20487474.495    20487475.333    -3840246.468 8    526590.709 9
  22137188.920    22137191.512     5985061.961 9   5471248.430 9
  21847432.194    21847433.295    -7958968.514 9  -5177300.056 9
  20589711.963    20589714.777    -3888525.820 8  -2034821.605 8
 86  6 12  0  9 35.0800000  0  4G 6G 8G 9G11
  20486976.564    20486975.624    -3842868.287 9    524547.727 8
  22140601.062    22140603.725     6002993.060 9   5485220.712 8
  21844355.983    21844358.428    -7975128.483 9  -5189892.237 9
  20589197.125    20589200.842    -3891226.079 8  -2036925.696 8
 86  6 12  0  9 41.0800000  0  4G 6G 8G 9G11
  20486478.890    20486479.943    -3845474.335 9    522517.033 9
  22144016.437    22144018.097     6020938.769 8   5499204.377 8
  21841283.112    21841284.126    -7991282.383 9  -5202479.687 9
  20588689.244    20588691.111    -3893902.560 7  -2039011.269 7
 86  6 12  0  9 47.0800000  0  4G 6G 8G 9G11
  20485985.645    20485987.413    -3848064.660 8    520498.606 8
  22147433.615    22147435.977     6038899.047 9   5513199.401 9
  21838209.405    21838211.278    -8007430.209 9  -5215062.395 9
  20588182.847    20588186.120    -3896555.304 7  -2041078.342 8
 86  6 12  0  9 53.0800000  0  4G 6G 8G 9G11
  20485497.141    20485497.170    -3850639.181 8    518492.481 9
  22150853.140    22150857.377     6056873.863 9   5527205.754 8
  21835138.507    21835140.468    -8023571.977 9  -5227640.406 9
  20587683.083    20587686.278    -3899184.308 7  -2043126.916 8
 86  6 12  0  9 59.0800000  0  4G 6G 8G 9G11
  20485009.859    20485011.115    -3853197.973 8    516498.608 9
  22154276.013    22154279.376     6074863.205 9   5541223.405 8
  21832067.376    21832069.171    -8039707.597 9  -5240213.609 9
  20587187.161    20587191.261    -3901789.615 8  -2045157.026 8
 86  6 12  0 10  5.0800000  0  4G 6G 8G 9G11
  20484524.840    20484526.827    -3855740.978 9    514517.049 8
  22157704.094    22157705.642     6092867.050 9   5555252.379 9
  21828998.205    21829000.307    -8055837.071 9  -5252782.028 9
  20586695.558    20586700.731    -3904371.176 7  -2047168.623 8
 86  6 12  0 10 11.0800000  0  4G 6G 8G 9G11
  20484043.857    20484045.284    -3858268.135 9    512547.829 9
  22161132.290    22161135.426     6110885.365 9   5569292.615 9
  21825930.914    21825932.079    -8071960.357 8  -5265345.621 9
  20586209.045    20586213.505    -3906928.984 7  -2049161.724 8
 86  6 12  0 10 17.0800000  0  4G 6G 8G 9G11
  20483566.246    20483567.904    -3860779.461 9    510590.954 8
  22164563.835    22164565.740     6128918.088 9   5583344.088 8
  21822863.610    21822864.983    -8088077.516 8  -5277904.449 9
  20585727.487    20585730.130    -3909463.054 7  -2051136.320 7
 86  6 12  0 10 23.0800000  0  4G 6G 8G 9G11
  20483090.884    20483093.882    -3863274.939 9    508646.433 8
  22167997.926    22168000.388     6146965.200 9   5597406.771 8
  21819797.814    21819799.632    -8104188.525 9  -5290458.475 9
  20585249.535    20585252.007    -3911973.431 7  -2053092.459 8
 86  6 12  0 10 29.0800000  0  4G 6G 8G 9G11
  20482619.714    20482621.010    -3865754.591 9    506714.238 9
  22171434.993    22171437.186     6165026.731 9   5611480.698 7
  21816733.080    21816734.533    -8120293.279 9  -5303007.626 8
  20584775.429    20584778.742    -3914460.078 7  -2055030.099 8
 86  6 12  0 10 35.0800000  0  4G 6G 8G 9G11
  20482150.831    20482152.472    -3868218.334 8    504794.436 8
  22174874.324    22174876.328     6183102.655 9   5625565.822 8
  21813669.411    21813670.848    -8136391.732 9  -5315551.869 8
  20584308.451    20584311.118    -3916922.940 7  -2056949.210 8
 86  6 12  0 10 41.0800000  0  4G 6G 8G 9G11
  20481684.973    20481686.380    -3870666.191 9    502887.011 8
  22178316.885    22178319.291     6201192.905 9   5639662.117 9
  21810607.729    21810607.693    -8152483.980 9  -5328091.286 9
  20583844.014    20583848.035    -3919362.052 7  -2058849.812 8
 86  6 12  0 10 47.0800000  0  4G 6G 8G 9G11
  20481222.084    20481224.136    -3873098.145 9    500991.978 9
  22181761.680    22181764.958     6219297.439 9   5653769.546 8
  21807545.649    21807547.485    -8168570.053 8  -5340625.880 9
  20583385.025    20583387.728    -3921777.407 7  -2060731.905 7
 86  6 12  0 10 53.0800000  0  4G 6G 8G 9G11
  20480763.011    20480764.431    -3875514.197 9    499109.346 7
  22185211.225    22185212.916     6237416.259 9   5667888.106 8
  21804486.578    21804487.301    -8184649.780 9  -5353155.534 9
  20582927.825    20582932.412    -3924169.044 8  -2062595.513 6
 86  6 12  0 10 59.0800000  0  4G 6G 8G 9G11
  20480306.471    20480307.872    -3877914.284 9    497239.138 8
  22188660.799    22188662.547     6255549.366 9   5682017.802 8
  21801427.495    21801430.385    -8200723.199 9  -5365680.267 9
  20582479.811    20582481.411    -3926536.953 7  -2064440.647 8
 86  6 12  0 11  5.0800000  0  4G 6G 8G 9G11
  20479851.466    20479853.021    -3880298.395 8    495381.387 8
  22192114.266    22192116.170     6273696.706 9   5696158.574 9
  21798369.880    21798371.823    -8216790.325 8  -5378200.101 9
  20582033.713    20582035.406    -3928881.174 8  -2066267.293 7
 86  6 12  0 11 11.0800000  0  4G 6G 8G 9G11
  20479401.726    20479403.182    -3882666.565 8    493536.057 8
  22195570.765    22195571.354     6291858.202 9   5710310.386 9
  21795314.751    21795315.394    -8232851.147 9  -5390715.026 9
  20581591.470    20581594.293    -3931201.697 8  -2068075.494 8
 86  6 12  0 11 17.0800000  0  4G 6G 8G 9G11
  20478955.092    20478955.112    -3885018.753 9    491703.179 8
  22199029.125    22199031.058     6310033.881 8   5724473.253 8
  21792259.452    21792259.394    -8248905.512 8  -5403224.904 9
  20581153.825    20581156.712    -3933498.428 7  -2069865.176 7
 86  6 12  0 11 23.0800000  0  4G 6G 8G 9G11
  20478509.633    20478511.288    -3887354.993 9    489882.731 9
  22202489.946    22202492.066     6328223.678 8   5738647.117 9
  21789205.900    21789205.941    -8264953.597 9  -5415729.906 9
  20580720.547    20580724.616    -3935771.503 7  -2071636.383 7
 86  6 12  0 11 29.0800000  0  4G 6G 8G 9G11
  20478068.853    20478069.576    -3889675.226 8    488074.760 8
  22205954.315    22205956.507     6346427.607 9   5752832.004 9
  21786152.891    21786153.513    -8280995.271 9  -5428229.910 9
  20580293.103    20580296.073    -3938020.928 7  -2073389.188 8
 86  6 12  0 11 35.0800000  0  4G 6G 8G 9G11
  20477630.088    20477631.395    -3891979.416 8    486279.282 7
  22209421.147    22209423.166     6364645.677 8   5767027.892 9
  21783101.120    21783102.242    -8297030.484 9  -5440724.873 9
  20579870.756    20579872.735    -3940246.678 7  -2075123.531 7
 86  6 12  0 11 41.0800000  0  4G 6G 8G 9G11
  20477194.460    20477195.448    -3894267.573 9    484496.299 9
  22212890.238    22212893.303     6382877.787 9   5781234.731 9
  21780051.286    21780052.079    -8313059.291 9  -5453214.852 9
  20579450.653    20579453.154    -3942448.667 8  -2076839.367 7
 86  6 12  0 11 47.0800000  0  4G 6G 8G 9G11
  20476761.976    20476763.639    -3896539.671 8    482725.838 8
  22216364.367    22216365.143     6401123.920 9   5795452.495 9
  21777002.491    21777003.227    -8329081.656 9  -5465699.800 9
  20579035.519    20579039.715    -3944626.950 8  -2078536.731 7
 86  6 12  0 11 53.0800000  0  4G 6G 8G 9G11
  20476332.719    20476333.369    -3898795.748 9    480967.857 7
  22219837.894    22219839.813     6419384.061 9   5809681.158 8
  21773954.582    21773954.430    -8345097.545 8  -5478179.721 9
  20578626.340    20578628.128    -3946781.549 7  -2080215.622 7
 86  6 12  0 11 59.0800000  0  4G 6G 8G 9G11
  20475905.706    20475907.221    -3901035.743 9    479222.413 8
  22223315.258    22223317.549     6437658.199 9   5823920.759 9
  21770907.812    21770908.549    -8361106.984 9  -5490654.596 9
  20578221.154    20578224.289    -3948912.429 7  -2081876.064 7
 86  6 12  0 12  5.0800000  0  4G 6G 8G 9G11
  20475483.249    20475484.559    -3903259.639 9    477489.501 8
  22226794.737    22226797.244     6455946.314 9   5838171.222 9
  21767863.259    21767863.545    -8377109.903 9  -5503124.401 8
  20577818.281    20577822.602    -3951019.656 8  -2083518.055 7
 86  6 12  0 12 11.0800000  0  4G 6G 8G 9G11
  20475063.589    20475063.847    -3905467.433 8    475769.139 7
  22230278.281    22230279.670     6474248.331 9   5852432.537 9
  21764818.328    21764819.493    -8393106.323 9  -5515589.142 8
  20577422.931    20577426.840    -3953103.193 7  -2085141.578 7
 86  6 12  0 12 17.0800000  0  4G 6G 8G 9G11
  20474646.293    20474647.468    -3907659.134 9    474061.316 9
  22233764.028    22233766.421     6492564.257 8   5866704.680 8
  21761774.992    21761776.894    -8409096.285 8  -5528048.844 9
  20577031.098    20577032.838    -3955163.068 8  -2086746.686 7
 86  6 12  0 12 23.0800000  0  4G 6G 8G 9G11
  20474232.246    20474232.179    -3909834.706 8    472366.071 8
  22237250.663    22237253.486     6510894.044 9   5880987.636 8
  21758734.932    21758735.661    -8425079.644 9  -5540503.414 9
  20576643.822    20576646.340    -3957199.279 7  -2088333.328 8
 86  6 12  0 12 29.0800000  0  4G 6G 8G 9G11
  20473820.975    20473821.276    -3911994.072 9    470683.458 8
  22240742.221    22240745.243     6529237.727 9   5895281.404 9
  21755694.943    21755694.928    -8441056.384 9  -5552952.812 9
  20576259.336    20576262.894    -3959211.832 8  -2089901.557 8
 86  6 12  0 12 35.0800000  0  4G 6G 8G 9G11
  20473413.418    20473414.208    -3914137.285 8    469013.405 8
  22244235.039    22244237.387     6547595.231 9   5909585.936 9
  21752654.241    21752656.065    -8457026.507 9  -5565397.071 8
  20575882.381    20575885.221    -3961200.693 8  -2091451.316 8
 86  6 12  0 12 41.0800000  0  4G 6G 8G 9G11
  20473009.821    20473009.446    -3916264.324 8    467355.987 8
  22247731.174    22247733.909     6565966.506 9   5923901.208 9
  21749616.614    21749618.745    -8472990.036 9  -5577836.180 9
  20575508.161    20575509.451    -3963165.910 7  -2092982.641 7
 86  6 12  0 12 47.0800000  0  4G 6G 8G 9G11
  20472607.809    20472608.364    -3918375.182 8    465711.155 8
  22251230.601    22251231.262     6584351.575 8   5938227.233 9
  21746580.289    21746583.457    -8488946.921 9  -5590270.109 8
  20575138.505    20575141.729    -3965107.418 6  -2094495.504 7
 86  6 12  0 12 53.0800000  0  4G 6G 8G 9G11
  20472208.764    20472209.055    -3920469.821 9    464078.972 8
  22254732.144    22254733.208     6602750.414 9   5952563.995 8
  21743545.596    21743546.682    -8504897.096 8  -5602698.813 9
  20574774.946    20574777.223    -3967025.294 7  -2095989.955 8
 86  6 12  0 12 59.0800000  0  4G 6G 8G 9G11
  20471813.086    20471814.116    -3922548.235 8    462459.429 7
  22258235.664    22258236.540     6621162.983 9   5966911.452 9
  21740511.496    21740513.191    -8520840.626 9  -5615122.343 9
  20574414.418    20574416.424    -3968919.507 7  -2097465.974 7
 86  6 12  0 13  5.0800000  0  4G 6G 8G 9G11
  20471420.842    20471421.357    -3924610.418 8    460852.523 8
  22261741.532    22261743.238     6639589.250 9   5981269.573 8
  21737479.227    21737480.615    -8536777.512 8  -5627540.689 9
  20574057.357    20574060.418    -3970790.038 7  -2098923.522 6
 86  6 12  0 13 11.0800000  0  4G 6G 8G 9G11
  20471031.285    20471030.373    -3926656.317 9    459258.317 8
  22265249.545    22265253.926     6658029.183 9   5995638.342 8
  21734447.017    21734448.676    -8552707.652 9  -5639953.779 9
  20573706.298    20573709.247    -3972636.919 8  -2100362.641 7
 86  6 12  0 13 17.0800000  0  4G 6G 8G 9G11
  20470645.295    20470646.015    -3928685.956 9    457676.783 9
  22268762.737    22268764.442     6676482.748 8   6010017.731 8
  21731415.312    21731419.141    -8568631.124 9  -5652361.676 8
  20573360.680    20573362.117    -3974460.208 8  -2101783.390 8
 86  6 12  0 13 23.0800000  0  4G 6G 8G 9G11
  20470261.786    20470262.289    -3930699.321 8    456107.921 8
  22272276.046    22272278.666     6694949.944 8   6024407.763 9
  21728388.441    21728390.199    -8584547.729 9  -5664764.213 8
  20573018.380    20573019.768    -3976259.825 8  -2103185.694 7
 86  6 12  0 13 29.0800000  0  4G 6G 8G 9G11
  20469881.040    20469882.654    -3932696.359 8    454551.786 9
  22275793.787    22275794.119     6713430.716 9   6038808.349 9
  21725360.078    21725362.196    -8600457.699 9  -5677161.588 8
  20572677.975    20572681.682    -3978035.824 8  -2104569.578 8
 86  6 12  0 13 35.0800000  0  4G 6G 8G 9G11
  20469504.551    20469505.685    -3934677.109 8    453008.340 8
  22279313.019    22279314.437     6731925.042 9   6053219.514 8
  21722334.242    21722335.045    -8616360.784 9  -5689553.608 8
  20572347.184    20572349.149    -3979788.210 8  -2105935.076 7
 86  6 12  0 13 41.0800000  0  4G 6G 8G 9G11
  20469130.677    20469132.402    -3936641.529 9    451477.634 9
  22282834.912    22282835.614     6750432.896 8   6067641.210 9
  21719309.194    21719311.425    -8632257.054 9  -5701940.316 9
  20572017.918    20572019.040    -3981516.971 7  -2107282.168 7
 86  6 12  0 13 47.0800000  0  4G 6G 8G 9G11
  20468760.046    20468760.878    -3938589.665 9    449959.590 8
  22286358.665    22286361.100     6768954.274 9   6082073.439 8
  21716286.369    21716288.162    -8648146.558 9  -5714321.737 8
  20571693.084    20571694.079    -3983222.110 7  -2108610.846 7
 86  6 12  0 13 53.0800000  0  4G 6G 8G 9G11
  20468392.540    20468393.423    -3940521.417 9    448454.340 8
  22289887.368    22289887.900     6787489.096 7   6096516.160 9
  21713263.439    21713265.618    -8664029.252 9  -5726697.857 9
  20571373.421    20571375.200    -3984903.576 7  -2109921.079 8
 86  6 12  0 13 59.0800000  0  4G 6G 8G 9G11
  20468027.566    20468028.414    -3942436.783 9    446961.842 8
  22293415.700    22293417.434     6806037.397 9   6110969.378 8
  21710241.672    21710244.698    -8679905.024 9  -5739068.584 9
  20571057.210    20571058.694    -3986561.439 7  -2111212.909 7
 86  6 12  0 14  5.0800000  0  4G 6G 8G 9G11
  20467667.096    20467667.222    -3944335.797 9    445482.101 8
  22296947.295    22296949.601     6824599.097 9   6125433.036 9
  21707222.961    21707224.944    -8695774.015 9  -5751434.021 9
  20570746.590    20570747.598    -3988195.722 7  -2112486.390 8
 86  6 12  0 14 11.0800000  0  4G 6G 8G 9G11
  20467308.436    20467309.112    -3946218.471 9    444015.088 9
  22300482.638    22300483.328     6843174.212 9   6139907.143 9
  21704204.823    21704206.740    -8711636.101 9  -5763794.093 9
  20570439.527    20570442.132    -3989806.411 7  -2113741.468 8
 86  6 12  0 14 17.0800000  0  4G 6G 8G 9G11
  20466953.463    20466954.333    -3948084.630 9    442560.930 8
  22304020.214    22304020.546     6861762.765 8   6154391.721 9
  21701187.710    21701187.629    -8727491.199 9  -5776148.716 9
  20570139.146    20570139.889    -3991393.489 7  -2114978.145 8
 86  6 12  0 14 23.0800000  0  4G 6G 8G 9G11
  20466601.251    20466601.418    -3949934.430 9    441119.521 8
  22307560.307    22307561.741     6880364.610 8   6168886.662 8
  21698171.832    21698171.146    -8743339.430 9  -5788497.982 9
  20569840.656    20569842.749    -3992956.978 8  -2116196.445 8
 86  6 12  0 14 29.0800000  0  4G 6G 8G 9G11
  20466252.814    20466252.930    -3951767.751 9    439690.964 8
  22311101.632    22311103.466     6898979.785 9   6183391.990 8
  21695157.158    21695158.187    -8759180.693 9  -5800841.829 8
  20569547.782    20569549.578    -3994496.851 8  -2117396.343 8
 86  6 12  0 14 35.0800000  0  4G 6G 8G 9G11
  20465906.287    20465907.605    -3953584.637 9    438275.210 8
  22314646.334    22314648.369     6917608.232 8   6197907.657 9
  21692143.591    21692145.666    -8775014.932 9  -5813180.194 8
  20569258.920    20569260.363    -3996013.166 8  -2118577.888 8
 86  6 12  0 14 41.0800000  0  4G 6G 8G 9G11
  20465563.977    20465563.867    -3955385.078 9    436872.268 8
  22318193.897    22318195.416     6936249.968 8   6212433.685 7
  21689131.893    21689133.975    -8790842.264 9  -5825513.180 8
  20568974.186    20568976.907    -3997505.912 8  -2119741.066 7
 86  6 12  0 14 47.0800000  0  4G 6G 8G 9G11
  20465225.902    20465224.991    -3957169.044 9    435482.161 8
  22321744.780    22321745.212     6954904.947 9   6226970.024 9
  21686121.340    21686124.328    -8806662.524 9  -5837840.646 8
  20568694.964    20568698.205    -3998975.085 8  -2120885.866 7
 86  6 12  0 14 53.0800000  0  4G 6G 8G 9G11
  20464888.858    20464888.908    -3958936.511 9    434104.912 9
  22325297.208    22325297.653     6973573.108 8   6241516.640 8
  21683112.538    21683114.511    -8822475.728 9  -5850162.617 9
  20568419.751    20568421.309    -4000420.619 7  -2122012.256 8
 86  6 12  0 14 59.0800000  0  4G 6G 8G 9G11
  20464554.713    20464555.868    -3960687.484 8    432740.510 8
  22328851.240    22328853.431     6992254.429 8   6256073.503 9
  21680104.439    21680106.111    -8838281.977 9  -5862479.165 8
  20568149.876    20568150.496    -4001842.566 7  -2123120.277 8
 86  6 12  0 15  5.0800000  0  4G 6G 8G 9G11
  20464224.439    20464225.115    -3962421.905 9    431389.022 9
  22332408.390    22332411.096     7010948.930 9   6270640.653 8
  21677098.275    21677099.050    -8854081.129 8  -5874790.199 9
  20567884.253    20567885.333    -4003241.006 7  -2124209.974 8
 86  6 12  0 15 11.0800000  0  4G 6G 8G 9G11
  20463897.048    20463899.211    -3964139.795 9    430050.396 8
  22335970.204    22335970.323     7029656.613 8   6285218.051 9
  21674092.724    21674094.255    -8869873.249 9  -5887095.740 9
  20567621.317    20567622.533    -4004615.837 7  -2125281.264 7
 86  6 12  0 15 17.0800000  0  4G 6G 8G 9G11
  20463573.559    20463575.214    -3965841.146 9    428724.671 7
  22339531.937    22339533.155     7048377.354 8   6299805.632 8
  21671089.074    21671089.624    -8885658.177 9  -5899395.682 9
  20567364.903    20567366.537    -4005967.120 7  -2126334.202 7
 86  6 12  0 15 23.0800000  0  4G 6G 8G 9G11
  20463252.661    20463254.135    -3967525.922 9    427411.850 8
  22343096.355    22343097.488     7067111.151 8   6314403.403 9
  21668086.863    21668088.715    -8901435.965 9  -5911690.063 9
  20567110.915    20567113.207    -4007294.837 7  -2127368.799 8
 86  6 12  0 15 29.0800000  0  4G 6G 8G 9G11
  20462935.234    20462937.074    -3969194.110 9    426111.960 8
  22346663.492    22346666.372     7085858.026 8   6329011.343 9
  21665086.133    21665087.619    -8917206.686 8  -5923978.926 9
  20566862.154    20566866.814    -4008599.070 7  -2128385.076 8
 86  6 12  0 15 35.0800000  0  4G 6G 8G 9G11
  20462621.744    20462622.779    -3970845.704 8    424825.011 8
  22350233.837    22350235.184     7104617.943 8   6343629.453 8
  21662085.588    21662086.932    -8932970.252 9  -5936262.220 8
  20566620.627    20566620.557    -4009879.725 8  -2129382.986 8
 86  6 12  0 15 41.0800000  0  4G 6G 8G 9G11
  20462309.052    20462311.091    -3972480.664 9    423551.010 8
  22353806.069    22353807.904     7123390.895 8   6358257.714 9
  21659087.626    21659088.563    -8948726.612 9  -5948539.901 9
  20566379.681    20566382.223    -4011136.800 6  -2130362.522 7
 86  6 12  0 15 47.0800000  0  4G 6G 8G 9G11
  20462001.994    20462003.975    -3974099.025 8    422289.943 8
  22357381.250    22357382.639     7142176.825 8   6372896.108 9
  21656090.543    21656091.830    -8964475.696 9  -5960811.916 9
  20566145.468    20566147.156    -4012370.335 7  -2131323.732 8
 86  6 12  0 15 53.0800000  0  4G 6G 8G 9G11
  20461697.040    20461698.080    -3975700.732 9    421041.855 8
  22360958.977    22360960.996     7160975.683 9   6387544.552 9
  21653094.134    21653096.373    -8980217.683 9  -5973078.391 8
  20565915.982    20565917.853    -4013580.363 7  -2132266.586 8
 86  6 12  0 15 59.0800000  0  4G 6G 8G 9G11
  20461395.566    20461397.324    -3977285.805 9    419806.740 7
  22364539.451    22364540.084     7179787.474 9   6402203.076 8
  21650099.744    21650101.574    -8995952.305 9  -5985339.133 8
  20565688.852    20565692.181    -4014766.823 8  -2133191.113 9
 86  6 12  0 16  5.0800000  0  4G 6G 8G 9G11
  20461097.435    20461099.259    -3978854.175 8    418584.635 8
  22368120.269    22368121.546     7198612.149 9   6416871.663 9
  21647107.461    21647108.570    -9011679.712 9  -5997594.252 8
  20565469.127    20565470.424    -4015929.770 6  -2134097.287 8
 86  6 12  0 16 11.0800000  0  4G 6G 8G 9G11
  20460803.108    20460804.252    -3980405.875 8    417375.517 8
  22371705.008    22371707.128     7217449.735 9   6431550.295 9
  21644116.411    21644116.761    -9027399.867 9  -6009843.728 7
  20565251.637    20565253.100    -4017069.230 6  -2134985.181 8
 86  6 12  0 16 17.0800000  0  4G 6G 8G 9G11
  20460510.457    20460511.599    -3981940.892 9    416179.403 8
  22375292.266    22375294.914     7236300.159 9   6446238.929 9
  21641126.119    21641127.334    -9043112.745 9  -6022087.525 8
  20565038.672    20565040.668    -4018185.147 8  -2135854.723 7
 86  6 12  0 16 23.0800000  0  4G 6G 8G 9G11
  20460222.241    20460222.226    -3983459.207 9    414996.294 7
  22378882.069    22378884.476     7255163.359 9   6460937.526 9
  21638136.993    21638138.930    -9058818.257 9  -6034325.589 8
  20564830.618    20564833.178    -4019277.533 7  -2136705.951 7
 86  6 12  0 16 29.0800000  0  4G 6G 8G 9G11
  20459936.851    20459937.202    -3984960.826 9    413826.215 8
  22382473.246    22382476.053     7274039.331 9   6475646.061 9
  21635149.318    21635152.667    -9074516.500 9  -6046557.995 8
  20564626.986    20564629.096    -4020346.518 8  -2137538.922 7
 86  6 12  0 16 35.0800000  0  4G 6G 8G 9G11
  20459654.510    20459654.392    -3986445.701 9    412669.168 8
  22386068.546    22386070.136     7292928.068 9   6490364.562 9
  21632164.128    21632165.264    -9090207.378 8  -6058784.651 9
  20564428.814    20564430.427    -4021392.017 8  -2138353.590 7
 86  6 12  0 16 41.0800000  0  4G 6G 8G 9G11
  20459374.286    20459374.304    -3987913.809 9    411525.182 8
  22389665.219    22389667.281     7311829.579 9   6505093.004 8
  21629179.002    21629181.639    -9105890.850 8  -6071005.544 8
  20564234.108    20564234.530    -4022414.023 7  -2139149.956 7
 86  6 12  0 16 47.0800000  0  4G 6G 8G 9G11
  20459098.027    20459098.665    -3989365.152 8    410394.261 8
  22393263.953    22393266.458     7330743.814 9   6519831.361 9
  21626195.370    21626196.994    -9121566.961 8  -6083220.673 9
  20564045.969    20564046.884    -4023412.512 7  -2139928.014 7
 86  6 12  0 16 53.0800000  0  4G 6G 8G 9G11
  20458825.244    20458825.677    -3990799.766 8    409276.385 8
  22396866.205    22396867.411     7349670.706 8   6534579.576 7
  21623214.408    21623216.697    -9137235.608 8  -6095430.015 8
  20563857.899    20563861.012    -4024387.543 7  -2140687.769 7
 86  6 12  0 16 59.0800000  0  4G 6G 8G 9G11
  20458555.255    20458555.920    -3992217.573 9    408171.596 8
  22400470.547    22400471.364     7368610.217 9   6549337.634 9
  21620234.148    21620236.621    -9152896.907 8  -6107633.617 9
  20563678.081    20563680.159    -4025339.127 8  -2141429.258 7
 86  6 12  0 17  5.0800000  0  4G 6G 8G 9G11
  20458288.888    20458288.554    -3993618.605 9    407079.876 7
  22404076.378    22404078.854     7387562.390 8   6564105.554 8
  21617255.494    21617256.539    -9168550.741 9  -6119831.403 9
  20563501.109    20563503.304    -4026267.194 8  -2142152.432 8
 86  6 12  0 17 11.0800000  0  4G 6G 8G 9G11
  20458024.794    20458025.596    -3995002.805 8    406001.287 7
  22407685.643    22407686.947     7406527.145 9   6578883.281 9
  21614278.346    21614280.383    -9184197.032 8  -6132023.327 9
  20563329.156    20563330.729    -4027171.812 8  -2142857.335 8
 86  6 12  0 17 17.0800000  0  4G 6G 8G 9G11
  20457764.559    20457765.262    -3996370.144 9    404935.833 8
  22411295.564    22411298.615     7425504.495 9   6593670.807 8
  21611302.220    21611303.929    -9199835.896 8  -6144209.444 9
  20563161.886    20563163.624    -4028052.940 7  -2143543.918 7
 86  6 12  0 17 23.0800000  0  4G 6G 8G 9G11
  20457508.134    20457508.193    -3997720.677 8    403883.459 9
  22414910.010    22414912.456     7444494.389 9   6608468.136 9
  21608327.418    21608329.219    -9215467.285 9  -6156389.734 8
  20562997.995    20562999.194    -4028910.610 7  -2144212.226 7
 86  6 12  0 17 29.0800000  0  4G 6G 8G 9G11
  20457254.041    20457253.880    -3999054.310 8    402844.260 9
  22418526.084    22418527.749     7463496.817 9   6623275.216 9
  21605355.184    21605357.207    -9231091.138 9  -6168564.152 9
  20562839.958    20562841.936    -4029744.786 7  -2144862.239 8
 86  6 12  0 17 35.0800000  0  4G 6G 8G 9G11
  20457003.449    20457004.081    -4000371.080 8    401818.202 8
  22422144.394    22422147.530     7482511.721 9   6638092.017 8
  21602383.907    21602384.365    -9246707.397 9  -6180732.671 8
  20562685.457    20562687.482    -4030555.579 8  -2145494.042 7
 86  6 12  0 17 41.0800000  0  4G 6G 8G 9G11
  20456755.686    20456757.354    -4001670.967 8    400805.307 9
  22425765.420    22425767.797     7501539.074 9   6652918.513 9
  21599414.070    21599414.042    -9262316.136 9  -6192895.324 8
  20562535.532    20562537.546    -4031342.928 7  -2146107.552 8
 86  6 12  0 17 47.0800000  0  4G 6G 8G 9G11
  20456510.490    20456511.407    -4002953.926 8    399805.598 8
  22429388.794    22429390.170     7520578.865 8   6667754.718 9
  21596444.097    21596445.463    -9277917.282 9  -6205052.058 8
  20562387.357    20562393.241    -4032106.820 8  -2146702.786 8
 86  6 12  0 17 53.0800000  0  4G 6G 8G 9G11
  20456269.918    20456270.558    -4004219.993 8    398819.060 8
  22433014.256    22433015.575     7539631.131 9   6682600.629 9
  21593476.987    21593477.230    -9293510.833 9  -6217202.870 9
  20562248.470    20562250.944    -4032847.289 7  -2147279.781 7
 86  6 12  0 17 59.0800000  0  4G 6G 8G 9G11
  20456032.135    20456034.443    -4005469.127 8    397845.701 8
  22436641.035    22436644.114     7558695.792 9   6697456.202 8
  21590510.571    21590511.806    -9309096.749 9  -6229347.744 8
  20562111.941    20562113.441    -4033564.292 7  -2147838.480 7
 86  6 12  0 18  5.0800000  0  4G 6G 8G 9G11
  20455799.254    20455798.992    -4006701.339 9    396885.543 8
  22440271.104    22440273.770     7577772.810 8   6712321.413 8
  21587546.370    21587546.777    -9324674.955 9  -6241486.586 9
  20561980.680    20561982.180    -4034257.908 7  -2148378.966 8
 86  6 12  0 18 11.0800000  0  4G 6G 8G 9G11
  20455567.331    20455568.145    -4007916.599 8    395938.575 9
  22443905.410    22443907.231     7596862.150 9   6727196.211 8
  21584583.381    21584585.496    -9340245.545 8  -6253619.520 8
  20561853.805    20561854.698    -4034928.128 7  -2148901.211 8
 86  6 12  0 18 17.0800000  0  4G 6G 8G 9G11
  20455338.731    20455340.130    -4009114.879 8    395004.851 8
  22447540.176    22447541.608     7615963.769 9   6742080.590 8
  21581623.166    21581622.408    -9355808.476 9  -6265746.488 8
  20561728.462    20561731.432    -4035574.948 8  -2149405.218 8
 86  6 12  0 18 23.0800000  0  4G 6G 8G 9G11
  20455114.409    20455116.383    -4010296.196 9    394084.346 8
  22451177.199    22451178.347     7635077.710 9   6756974.565 9
  21578662.359    21578662.449    -9371363.708 9  -6277867.441 8
  20561610.670    20561613.780    -4036198.365 7  -2149890.996 6
 86  6 12  0 18 29.0800000  0  4G 6G 8G 9G11
  20454893.935    20454895.179    -4011460.497 9    393177.091 8
  22454817.027    22454817.561     7654203.893 9   6771878.074 8
  21575703.404    21575704.403    -9386911.245 9  -6289982.398 8
  20561496.584    20561500.271    -4036798.363 7  -2150358.525 7
 86  6 12  0 18 35.0800000  0  4G 6G 8G 9G11
  20454674.863    20454675.581    -4012607.819 9    392283.072 7
  22458458.975    22458460.194     7673342.287 9   6786791.109 9
  21572746.715    21572747.116    -9402450.996 9  -6302091.293 8
  20561387.730    20561390.171    -4037374.992 7  -2150807.858 7
 86  6 12  0 18 41.0800000  0  4G 6G 8G 9G11
  20454460.261    20454461.367    -4013738.083 9    391402.351 9
  22462103.155    22462103.300     7692492.905 9   6801713.667 8
  21569790.601    21569791.982    -9417982.906 9  -6314194.082 8
  20561281.055    20561284.341    -4037928.315 6  -2151239.006 7
 86  6 12  0 18 47.0800000  0  4G 6G 8G 9G11
  20454248.118    20454248.477    -4014851.322 9    390534.878 8
  22465749.508    22465751.443     7711655.704 8   6816645.736 8
  21566836.456    21566838.963    -9433507.135 9  -6326290.881 8
  20561180.808    20561183.243    -4038458.227 8  -2151651.926 7
 86  6 12  0 18 53.0800000  0  4G 6G 8G 9G11
  20454039.483    20454039.714    -4015947.527 8    389680.693 8
  22469398.639    22469399.471     7730830.688 9   6831587.258 9
  21563883.709    21563884.331    -9449023.521 9  -6338381.557 8
  20561084.569    20561086.456    -4038964.748 6  -2152046.617 7
 86  6 12  0 18 59.0800000  0  4G 6G 8G 9G11
  20453834.165    20453835.293    -4017026.675 9    388839.798 8
  22473050.515    22473050.904     7750017.747 8   6846538.205 9
  21560931.980    21560934.690    -9464532.258 8  -6350466.290 9
  20560993.023    20560995.238    -4039447.913 7  -2152423.103 7
 86  6 12  0 19  5.0800000  0  4G 6G 8G 9G11
  20453632.005    20453632.815    -4018088.746 9    388012.216 9
  22476702.651    22476705.157     7769216.897 8   6861498.579 8
  21557983.142    21557983.549    -9480033.053 8  -6362544.824 8
  20560904.521    20560908.557    -4039907.715 8  -2152781.380 7
 86  6 12  0 19 11.0800000  0  4G 6G 8G 9G11
  20453433.136    20453434.881    -4019133.717 9    387197.947 8
  22480359.336    22480360.382     7788428.118 9   6876468.356 9
  21555033.909    21555035.762    -9495525.987 9  -6374617.231 8
  20560821.181    20560824.117    -4040344.131 7  -2153121.469 8
 86  6 12  0 19 17.0800000  0  4G 6G 8G 9G11
  20453236.529    20453238.818    -4020161.578 9    386397.021 8
  22484016.823    22484017.412     7807651.396 9   6891447.536 8
  21552088.177    21552090.265    -9511011.030 9  -6386683.500 9
  20560743.995    20560746.630    -4040757.208 8  -2153443.328 7
 86  6 12  0 19 23.0800000  0  4G 6G 8G 9G11
  20453043.897    20453046.859    -4021172.323 8    385609.423 8
  22487677.172    22487678.275     7826886.676 9   6906436.069 8
  21549143.215    21549144.760    -9526488.216 8  -6398743.633 9
  20560668.852    20560672.325    -4041146.963 8  -2153747.032 7
 86  6 12  0 19 29.0800000  0  4G 6G 8G 9G11
  20452856.224    20452856.843    -4022165.957 8    384835.157 7
  22491340.210    22491340.928     7846133.966 9   6921433.943 9
  21546199.521    21546200.894    -9541957.544 8  -6410797.653 9
  20560600.198    20560601.959    -4041513.380 7  -2154032.548 7
 86  6 12  0 19 35.0800000  0  4G 6G 8G 9G11
  20452668.960    20452671.979    -4023142.416 8    384074.284 8
  22495005.367    22495005.840     7865393.278 9   6936441.202 8
  21543256.858    21543258.367    -9557418.823 9  -6422845.402 9
  20560534.618    20560537.480    -4041856.451 7  -2154299.879 8
 86  6 12  0 19 41.0800000  0  4G 6G 8G 9G11
  20452486.413    20452487.838    -4024101.746 9    383326.749 9
  22498672.296    22498673.173     7884664.536 8   6951457.764 8
  21540315.595    21540318.027    -9572872.161 9  -6434886.959 9
  20560471.977    20560474.896    -4042176.183 7  -2154549.032 8
 86  6 12  0 19 47.0800000  0  4G 6G 8G 9G11
  20452307.899    20452309.738    -4025043.875 8    382592.617 8
  22502342.317    22502343.122     7903947.656 8   6966483.572 9
  21537376.668    21537378.555    -9588317.507 9  -6446922.286 9
  20560416.936    20560419.714    -4042472.592 8  -2154779.983 8
 86  6 12  0 19 53.0800000  0  4G 6G 8G 9G11
  20452131.327    20452133.446    -4025968.850 8    381871.859 8
  22506013.342    22506014.618     7923242.643 8   6981518.617 8
  21534439.632    21534440.899    -9603754.849 8  -6458951.384 9
  20560364.999    20560366.600    -4042745.724 8  -2154992.812 7
 86  6 12  0 19 59.0800000  0  4G 6G 8G 9G11
  20451958.381    20451960.716    -4026876.618 8    381164.504 9
  22509687.026    22509689.047     7942549.508 9   6996562.921 9
  21531503.772    21531504.960    -9619184.209 9  -6470974.258 8
  20560316.711    20560321.235    -4042995.494 7  -2155187.449 7
 86  6 12  0 20  5.0800000  0  4G 6G 8G 9G11
  20451789.450    20451792.570    -4027767.159 8    380470.572 8
  22513362.858    22513365.148     7961868.182 9   7011616.429 9
  21528567.812    21528570.202    -9634605.504 9  -6482990.858 9
  20560274.966    20560276.727    -4043222.022 7  -2155363.954 8
 86  6 12  0 20 11.0800000  0  4G 6G 8G 9G11
  20451623.031    20451624.313    -4028640.459 8    379790.085 8
  22517041.864    22517043.471     7981198.728 8   7026679.180 8
  21525635.852    21525637.368    -9650018.686 9  -6495001.127 8
  20560235.790    20560237.674    -4043425.219 6  -2155522.295 8
 86  6 12  0 20 17.0800000  0  4G 6G 8G 9G11
  20451461.329    20451460.652    -4029496.583 8    379122.967 8
  22520723.389    22520724.137     8000540.967 9   7041751.056 9
  21522703.900    21522705.794    -9665423.977 9  -6507005.245 9
  20560201.242    20560203.913    -4043605.203 7  -2155662.543 7
 86  6 12  0 20 23.0800000  0  4G 6G 8G 9G11
  20451301.444    20451302.012    -4030335.406 9    378469.343 8
  22524404.432    22524406.163     8019895.012 8   7056832.130 8
  21519773.290    21519775.937    -9680821.021 9  -6519002.949 9
  20560172.942    20560174.866    -4043761.906 7  -2155784.666 7
 86  6 12  0 20 29.0800000  0  4G 6G 8G 9G11
  20451144.947    20451146.065    -4031156.963 8    377829.157 8
  22528090.564    22528092.956     8039260.836 9   7071922.375 9
  21516845.888    21516847.711    -9696209.967 8  -6530994.316 9
  20560146.717    20560148.442    -4043895.298 8  -2155888.588 7
 86  6 12  0 20 35.0800000  0  4G 6G 8G 9G11
  20450992.024    20450993.480    -4031961.181 8    377202.492 8
  22531777.843    22531780.736     8058638.350 9   7087021.726 9
  21513918.241    21513920.602    -9711590.756 9  -6542979.344 9
  20560125.082    20560127.201    -4044005.407 7  -2155974.383 6
 86  6 12  0 20 41.0800000  0  4G 6G 8G 9G11
  20450842.815    20450843.288    -4032748.293 9    376589.159 8
  22535467.154    22535469.659     8078027.388 8   7102130.056 9
  21510992.869    21510995.553    -9726963.591 8  -6554958.179 8
  20560107.924    20560111.067    -4044092.414 7  -2156042.183 8
 86  6 12  0 20 47.0800000  0  4G 6G 8G 9G11
  20450695.758    20450697.436    -4033517.839 8    375989.522 8
  22539159.439    22539162.017     8097428.301 8   7117247.650 8
  21508068.792    21508071.182    -9742327.935 9  -6566930.392 8
  20560096.223    20560099.606    -4044155.891 7  -2156091.660 7
 86  6 12  0 20 53.0800000  0  4G 6G 8G 9G11
  20450553.300    20450554.245    -4034270.317 8    375403.167 8
  22542852.957    22542855.634     8116840.652 8   7132374.137 9
  21505147.457    21505149.875    -9757684.326 8  -6578896.418 9
  20560089.676    20560091.758    -4044196.363 7  -2156123.173 7
 86  6 12  0 20 59.0800000  0  4G 6G 8G 9G11
  20450412.383    20450413.438    -4035005.519 9    374830.280 9
  22546549.849    22546551.599     8136264.511 9   7147509.619 8
  21502226.757    21502229.032    -9773032.544 9  -6590856.052 9
  20560085.423    20560087.210    -4044213.659 7  -2156136.670 7
 86  6 12  0 21  5.0800000  0  4G 6G 8G 9G11
  20450277.380    20450275.783    -4035723.392 8    374270.902 8
  22550247.031    22550250.110     8155699.986 9   7162654.126 8
  21499308.240    21499310.156    -9788372.581 9  -6602809.327 9
  20560088.310    20560089.814    -4044207.752 8  -2156132.065 8
 86  6 12  0 21 11.0800000  0  4G 6G 8G 9G11
  20450142.783    20450143.241    -4036423.888 9    373725.063 8
  22553948.390    22553950.968     8175146.947 8   7177807.603 9
  21496390.094    21496392.126    -9803704.331 9  -6614756.137 9
  20560090.726    20560094.646    -4044178.642 7  -2156109.373 7
 86  6 12  0 21 17.0800000  0  4G 6G 8G 9G11
  20450013.027    20450014.147    -4037106.826 9    373192.909 8
  22557650.808    22557653.428     8194605.620 9   7192970.202 8
  21493474.518    21493476.192    -9819027.606 9  -6626696.353 9
  20560101.251    20560105.054    -4044126.114 6  -2156068.440 7
 86  6 12  0 21 23.0800000  0  4G 6G 8G 9G11
  20449886.337    20449888.301    -4037772.407 9    372674.271 8
  22561357.259    22561358.594     8214075.804 8   7208141.772 8
  21490560.085    21490561.888    -9834342.603 8  -6638630.110 9
  20560116.162    20560119.868    -4044050.360 7  -2156009.419 8
 86  6 12  0 21 29.0800000  0  4G 6G 8G 9G11
  20449763.427    20449763.413    -4038420.559 9    372169.197 9
  22565064.171    22565065.003     8233557.464 9   7223322.280 8
  21487646.670    21487649.474    -9849649.285 9  -6650557.390 8
  20560135.291    20560137.378    -4043951.449 8  -2155932.342 8
 86  6 12  0 21 35.0800000  0  4G 6G 8G 9G11
  20449643.027    20449643.960    -4039051.428 9    371677.631 8
  22568772.854    22568774.688     8253050.471 9   7238511.626 8
  21484735.900    21484737.632    -9864947.748 8  -6662478.271 8
  20560157.735    20560161.017    -4043829.443 7  -2155837.279 8
 86  6 12  0 21 41.0800000  0  4G 6G 8G 9G11
  20449525.419    20449526.515    -4039664.786 8    371199.675 8
  22572483.858    22572486.851     8272554.925 8   7253709.893 9
  21481825.697    21481828.336    -9880237.836 8  -6674392.620 9
  20560185.870    20560189.030    -4043684.143 7  -2155724.045 7
 86  6 12  0 21 47.0800000  0  4G 6G 8G 9G11
  20449412.794    20449413.597    -4040260.700 8    370735.332 7
  22576198.753    22576200.159     8292070.748 9   7268917.027 8
  21478918.319    21478920.544    -9895519.480 9  -6686300.382 9
  20560217.911    20560221.597    -4043515.671 7  -2155592.767 8
 86  6 12  0 21 53.0800000  0  4G 6G 8G 9G11
  20449302.266    20449304.606    -4040839.165 9    370284.583 8
  22579914.421    22579915.884     8311597.934 8   7284133.015 9
  21476011.529    21476013.148    -9910792.739 9  -6698201.628 9
  20560254.166    20560257.133    -4043323.962 7  -2155443.409 8
 86  6 12  0 21 59.0800000  0  4G 6G 8G 9G11
  20449195.126    20449196.527    -4041400.183 8    369847.422 7
  22583633.351    22583634.041     8331136.462 8   7299357.834 9
  21473108.560    21473108.401    -9926057.646 9  -6710096.353 9
  20560295.999    20560299.259    -4043109.150 7  -2155276.003 8
 86  6 12  0 22  5.0800000  0  4G 6G 8G 9G11
  20449092.890    20449092.728    -4041943.739 9    369423.873 7
  22587353.142    22587353.872     8350686.294 9   7314591.456 9
  21470203.936    21470205.116    -9941314.094 9  -6721984.495 9
  20560339.528    20560343.268    -4042871.173 8  -2155090.574 7
 86  6 12  0 22 11.0800000  0  4G 6G 8G 9G11
  20448993.310    20448993.917    -4042469.820 8    369013.938 8
  22591076.706    22591076.538     8370247.394 9   7329833.878 8
  21467302.461    21467302.854    -9956562.171 9  -6733866.106 9
  20560390.348    20560392.945    -4042610.050 7  -2154887.100 8
 86  6 12  0 22 17.0800000  0  4G 6G 8G 9G11
  20448895.641    20448896.979    -4042978.383 8    368617.660 8
  22594800.216    22594800.462     8389819.742 8   7345085.045 8
  21464401.708    21464403.768    -9971801.722 9  -6745741.068 9
  20560444.752    20560447.447    -4042325.757 7  -2154665.569 8
 86  6 12  0 22 23.0800000  0  4G 6G 8G 9G11
  20448802.152    20448803.527    -4043469.450 9    368235.016 8
  22598526.931    22598526.032     8409403.309 9   7360344.972 8
  21461502.752    21461504.253    -9987032.789 9  -6757609.432 9
  20560502.273    20560505.604    -4042018.362 7  -2154426.036 7
 86  6 12  0 22 29.0800000  0  4G 6G 8G 9G11
  20448712.695    20448713.736    -4043942.987 9    367866.017 8
  22602255.676    22602255.979     8428998.075 8   7375613.623 8
  21458607.701    21458608.359   -10002255.273 8  -6769471.112 9
  20560566.273    20560569.546    -4041687.852 7  -2154168.488 7
 86  6 12  0 22 35.0800000  0  4G 6G 8G 9G11
  20448625.379    20448626.085    -4044398.987 9    367510.689 8
  22605985.418    22605987.046     8448604.015 8   7390890.966 9
  21455711.029    21455713.745   -10017469.337 9  -6781326.216 9
  20560632.572    20560636.368    -4041334.248 7  -2153892.952 7
 86  6 12  0 22 41.0800000  0  4G 6G 8G 9G11
  20448542.988    20448541.932    -4044837.422 8    367169.053 8
  22609719.852    22609719.318     8468221.098 8   7406176.998 8
  21452818.252    21452819.461   -10032674.865 9  -6793174.678 8
  20560703.006    20560708.650    -4040957.526 7  -2153599.427 8
 86  6 12  0 22 47.0800000  0  4G 6G 8G 9G11
  20448462.454    20448462.975    -4045258.362 9    366841.043 8
  22613454.267    22613455.472     8487849.312 8   7421471.710 9
  21449926.866    21449928.324   -10047871.766 8  -6805016.428 9
  20560780.565    20560784.156    -4040557.723 8  -2153287.885 8
 86  6 12  0 22 53.0800000  0  4G 6G 8G 9G11
  20448385.214    20448386.335    -4045661.693 9    366526.761 8
  22617191.365    22617192.148     8507488.635 8   7436775.072 8
  21447036.244    21447037.246   -10063060.091 9  -6816851.479 9
  20560861.411    20560865.256    -4040134.808 8  -2152958.335 8
 86  6 12  0 22 59.0800000  0  4G 6G 8G 9G11
  20448312.351    20448311.310    -4046047.381 7    366226.222 8
  22620930.912    22620932.230     8527139.027 8   7452087.063 9
  21444148.777    21444149.493   -10078239.872 9  -6828679.868 9
  20560946.248    20560948.544    -4039688.750 6  -2152610.755 8
 86  6 12  0 23  5.0800000  0  4G 6G 8G 9G11
  20448242.006    20448242.998    -4046415.502 9    365939.372 8
  22624671.949    22624674.238     8546800.427 8   7467407.626 8
  21441260.839    21441262.162   -10093410.989 9  -6840501.509 9
  20561035.054    20561038.732    -4039219.643 8  -2152245.231 7
 86  6 12  0 23 11.0800000  0  4G 6G 8G 9G11
  20448176.013    20448175.873    -4046765.993 8    365666.254 8
  22628416.424    22628416.880     8566472.878 8   7482736.806 7
  21438376.327    21438377.286   -10108573.348 9  -6852316.334 9
  20561127.963    20561133.040    -4038727.425 7  -2151861.666 7
 86  6 12  0 23 17.0800000  0  4G 6G 8G 9G11
  20448111.791    20448110.423    -4047098.819 9    365406.921 9
  22632161.737    22632163.607     8586156.316 8   7498074.549 8
  21435493.055    21435493.505   -10123727.053 9  -6864124.411 9
  20561227.944    20561229.656    -4038212.162 7  -2151460.177 8
 86  6 12  0 23 23.0800000  0  4G 6G 8G 9G11
  20448051.522    20448052.126    -4047414.050 9    365161.275 9
  22635909.330    22635910.991     8605850.725 8   7513420.826 8
  21432610.339    21432611.568   -10138872.125 9  -6875925.761 9
  20561329.657    20561332.271    -4037673.893 8  -2151040.736 7
 86  6 12  0 23 29.0800000  0  4G 6G 8G 9G11
  20447995.144    20447995.335    -4047711.589 9    364929.433 8
  22639657.704    22639660.590     8625556.073 8   7528775.640 9
  21429729.797    21429731.019   -10154008.400 9  -6887720.262 9
  20561434.644    20561439.607    -4037112.509 7  -2150603.291 7
 86  6 12  0 23 35.0800000  0  4G 6G 8G 9G11
  20447941.456    20447942.303    -4047991.492 8    364711.322 8
  22643409.674    22643412.377     8645272.330 8   7544138.947 9
  21426850.602    21426851.683   -10169135.977 9  -6899507.976 9
  20561547.055    20561549.396    -4036528.102 8  -2150147.924 7
 86  6 12  0 23 41.0800000  0  4G 6G 8G 9G11
  20447892.117    20447893.708    -4048253.721 9    364506.979 8
  22647163.547    22647166.498     8664999.444 8   7559510.731 7
  21423974.576    21423975.634   -10184254.917 9  -6911288.966 9
  20561662.985    20561666.362    -4035920.696 8  -2149674.612 7
 86  6 12  0 23 47.0800000  0  4G 6G 8G 9G11
  20447844.496    20447845.988    -4048498.239 9    364316.452 9
  22650919.939    22650921.995     8684737.449 9   7574890.985 9
  21421098.758    21421100.273   -10199364.970 9  -6923063.033 8
  20561782.807    20561786.858    -4035290.176 8  -2149183.286 8
 86  6 12  0 23 53.0800000  0  4G 6G 8G 9G11
  20447801.798    20447802.860    -4048725.028 9    364139.732 8
  22654678.113    22654680.119     8704486.265 9   7590279.662 8
  21418224.835    21418226.466   -10214466.255 9  -6934830.257 8
  20561907.029    20561910.008    -4034636.618 7  -2148674.021 8
 86  6 12  0 23 59.0800000  0  4G 6G 8G 9G11
  20447761.188    20447762.108    -4048934.136 8    363976.792 8
  22658438.422    22658440.315     8724245.906 9   7605676.789 8
  21415352.415    21415354.295   -10229558.695 9  -6946590.598 9
  20562035.782    20562039.050    -4033959.960 7  -2148146.760 8
 86  6 12  0 24  5.0800000  0  4G 6G 8G 9G11
  20447723.755    20447727.235    -4049125.545 9    363827.635 8
  22662200.784    22662203.058     8744016.272 9   7621082.266 9
  21412482.942    21412484.486   -10244642.394 9  -6958344.127 9
  20562169.040    20562172.133    -4033260.369 7  -2147601.636 7
 86  6 12  0 24 11.0800000  0  4G 6G 8G 9G11
  20447692.617    20447693.824    -4049299.226 8    363692.296 8
  22665966.072    22665967.921     8763797.425 9   7636496.131 9
  21409613.727    21409615.086   -10259717.216 9  -6970090.736 9
  20562307.338    20562309.778    -4032537.804 7  -2147038.590 8
 86  6 12  0 24 17.0800000  0  4G 6G 8G 9G11
  20447662.396    20447664.189    -4049455.152 9    363570.793 9
  22669731.981    22669734.542     8783589.280 8   7651918.356 9
  21406746.165    21406747.896   -10274783.195 9  -6981830.456 9
  20562449.724    20562451.256    -4031792.244 7  -2146457.628 7
 86  6 12  0 24 23.0800000  0  4G 6G 8G 9G11
  20447635.924    20447637.459    -4049593.286 8    363463.160 9
  22673499.398    22673501.882     8803391.813 7   7667348.889 9
  21403881.837    21403882.337   -10289840.287 8  -6993563.243 9
  20562595.596    20562598.507    -4031023.709 8  -2145858.776 7
 86  6 12  0 24 29.0800000  0  4G 6G 8G 9G11
  20447613.458    20447614.651    -4049713.597 8    363369.405 8
  22677269.496    22677272.583     8823205.112 9   7682787.814 9
  21401017.967    21401019.591   -10304888.404 8  -7005289.056 9
  20562744.076    20562747.837    -4030232.127 6  -2145241.947 8
 86  6 12  0 24 35.0800000  0  4G 6G 8G 9G11
  20447593.596    20447595.434    -4049816.110 8    363289.524 8
  22681043.631    22681044.785     8843029.070 8   7698235.042 9
  21398156.336    21398158.201   -10319927.534 9  -7017007.859 9
  20562900.751    20562904.098    -4029417.514 7  -2144607.213 8
 86  6 12  0 24 41.0800000  0  4G 6G 8G 9G11
  20447577.971    20447579.061    -4049901.015 8    363223.367 8
  22684815.019    22684819.795     8862863.458 9   7713690.394 9
  21395296.199    21395297.801   -10334957.905 9  -7028719.828 8
  20563061.390    20563063.174    -4028580.185 7  -2143954.737 8
 86  6 12  0 24 47.0800000  0  4G 6G 8G 9G11
  20447565.550    20447566.785    -4049967.819 9    363171.301 7
  22688593.759    22688595.728     8882708.726 8   7729154.246 9
  21392437.738    21392439.074   -10349978.992 9  -7040424.569 9
  20563225.080    20563226.509    -4027719.681 7  -2143284.213 7
 86  6 12  0 24 53.0800000  0  4G 6G 8G 9G11
  20447555.220    20447557.112    -4050017.042 9    363132.960 9
  22692371.807    22692373.885     8902564.324 9   7744626.125 8
  21389581.057    21389581.460   -10364991.424 9  -7052122.566 9
  20563391.969    20563394.551    -4026836.492 7  -2142596.017 7
 86  6 12  0 24 59.0800000  0  4G 6G 8G 9G11
  20447551.040    20447551.961    -4050048.436 8    363108.491 8
  22696152.515    22696154.699     8922430.430 9   7760106.211 9
  21386724.964    21386727.589   -10379994.903 9  -7063813.591 8
  20563564.272    20563567.510    -4025930.381 7  -2141889.948 7
 86  6 12  0 25  5.0800000  0  4G 6G 8G 9G11
  20447547.205    20447548.412    -4050061.824 8    363098.059 8
  22699934.616    22699937.230     8942307.183 9   7775594.575 9
  21383872.705    21383874.179   -10394989.114 9  -7075497.385 8
  20563741.292    20563744.444    -4025001.276 8  -2141165.979 7
 86  6 12  0 25 11.0800000  0  4G 6G 8G 9G11
  20447549.438    20447549.382    -4050057.373 9    363101.525 8
  22703719.416    22703721.608     8962194.444 9   7791091.137 9
  21381021.048    21381022.657   -10409974.239 9  -7087174.099 9
  20563922.249    20563926.160    -4024049.206 7  -2140424.096 7
 86  6 12  0 25 17.0800000  0  4G 6G 8G 9G11
  20447553.072    20447553.191    -4050035.061 8    363118.904 9
  22707505.424    22707507.805     8982092.083 8   7806595.773 9
  21378170.656    21378173.131   -10424950.435 9  -7098843.868 9
  20564108.139    20564110.214    -4023074.236 8  -2139664.383 8
 86  6 12  0 25 23.0800000  0  4G 6G 8G 9G11
  20447560.342    20447561.545    -4049995.052 9    363150.089 8
  22711294.050    22711296.216     9002000.044 9   7822108.475 8
  21375322.092    21375325.187   -10439917.606 9  -7110506.585 8
  20564298.734    20564301.953    -4022076.467 8  -2138886.906 8
 86  6 12  0 25 29.0800000  0  4G 6G 8G 9G11
  20447571.359    20447573.351    -4049936.871 8    363195.419 9
  22715083.859    22715086.869     9021918.665 9   7837629.460 9
  21372477.465    21372478.210   -10454875.453 9  -7122162.055 8
  20564491.732    20564494.499    -4021055.597 8  -2138091.416 8
 86  6 12  0 25 35.0800000  0  4G 6G 8G 9G11
  20447585.324    20447586.903    -4049860.832 9    363254.668 8
  22718875.968    22718879.622     9041847.603 8   7853158.503 8
  21369631.682    21369633.885   -10469824.167 8  -7133810.401 9
  20564690.946    20564693.234    -4020011.936 8  -2137278.181 7
 86  6 12  0 25 41.0800000  0  4G 6G 8G 9G11
  20447604.040    20447603.759    -4049766.900 8    363327.870 7
  22722671.914    22722673.957     9061786.886 9   7868695.591 9
  21366788.810    21366791.070   -10484763.749 9  -7145451.622 9
  20564892.483    20564895.513    -4018945.387 8  -2136447.107 8
 86  6 12  0 25 47.0800000  0  4G 6G 8G 9G11
  20447625.189    20447625.324    -4049655.111 9    363414.977 9
  22726467.271    22726470.131     9081736.374 9   7884240.646 8
  21363948.321    21363949.336   -10499694.364 9  -7157085.862 8
  20565100.113    20565103.804    -4017856.057 7  -2135598.278 7
 86  6 12  0 25 53.0800000  0  4G 6G 8G 9G11
  20447649.458    20447649.690    -4049525.224 9    363516.178 8
  22730265.234    22730267.829     9101696.320 9   7899793.856 9
  21361108.589    21361109.147   -10514615.514 9  -7168712.737 9
  20565312.811    20565315.422    -4016743.744 8  -2134731.551 8
 86  6 12  0 25 59.0800000  0  4G 6G 8G 9G11
  20447677.561    20447678.666    -4049377.402 9    363631.367 8
  22734066.524    22734068.044     9121666.545 9   7915355.064 9
  21358270.813    21358271.892   -10529527.507 9  -7180332.469 9
  20565529.643    20565531.656    -4015608.684 7  -2133847.063 8
 86  6 12  0 26  5.0800000  0  4G 6G 8G 9G11
  20447709.212    20447709.717    -4049211.605 9    363760.554 8
  22737868.599    22737871.084     9141647.018 9   7930924.253 9
  21355434.896    21355435.703   -10544430.333 8  -7191945.061 8
  20565749.147    20565752.400    -4014450.812 7  -2132944.837 7
 86  6 12  0 26 11.0800000  0  4G 6G 8G 9G11
  20447743.726    20447745.104    -4049027.825 9    363903.767 9
  22741672.625    22741674.907     9161637.663 9   7946501.381 9
  21352599.437    21352602.125   -10559323.943 9  -7203550.466 7
  20565973.545    20565977.337    -4013270.136 7  -2132024.830 8
 86  6 12  0 26 17.0800000  0  4G 6G 8G 9G11
  20447782.676    20447783.981    -4048826.020 8    364061.010 8
  22745477.972    22745480.293     9181638.592 8   7962086.511 8
  21349767.440    21349769.570   -10574208.129 9  -7215148.534 8
  20566202.803    20566204.498    -4012066.546 7  -2131086.968 7
 86  6 12  0 26 23.0800000  0  4G 6G 8G 9G11
  20447824.114    20447825.005    -4048606.242 9    364232.264 7
  22749286.804    22749287.972     9201649.676 9   7977679.565 9
  21346937.960    21346938.897   -10589083.122 8  -7226739.434 9
  20566436.088    20566439.708    -4010840.192 8  -2130131.358 7
 86  6 12  0 26 29.0800000  0  4G 6G 8G 9G11
  20447869.673    20447871.366    -4048368.431 9    364417.570 8
  22753096.042    22753097.157     9221670.892 9   7993280.514 8
  21344109.649    21344109.820   -10603948.779 9  -7238323.063 8
  20566675.038    20566675.729    -4009591.062 7  -2129158.012 7
 86  6 12  0 26 35.0800000  0  4G 6G 8G 9G11
  20447918.812    20447920.148    -4048112.624 8    364616.913 8
  22756907.028    22756910.458     9241702.225 9   8008889.334 9
  21341280.550    21341283.016   -10618805.084 9  -7249899.395 8
  20566915.146    20566918.869    -4008319.113 7  -2128166.886 8
 86  6 12  0 26 41.0800000  0  4G 6G 8G 9G11
  20447969.580    20447971.787    -4047838.652 9    364830.392 8
  22760721.832    22760724.336     9261743.698 9   8024506.072 9
  21338456.007    21338458.267   -10633651.896 9  -7261468.338 9
  20567162.373    20567164.674    -4007024.275 8  -2127157.927 7
 86  6 12  0 26 47.0800000  0  4G 6G 8G 9G11
  20448026.389    20448027.737    -4047546.665 9    365057.909 8
  22764537.382    22764539.534     9281795.254 8   8040130.649 9
  21335633.005    21335634.792   -10648489.415 9  -7273030.044 9
  20567411.939    20567416.800    -4005706.644 7  -2126131.205 7
 86  6 12  0 26 53.0800000  0  4G 6G 8G 9G11
  20448085.400    20448086.176    -4047236.619 8    365299.504 9
  22768354.045    22768356.732     9301856.828 9   8055763.045 9
  21332811.239    21332812.140   -10663317.601 9  -7284584.470 8
  20567667.552    20567671.285    -4004366.270 8  -2125086.755 7
 86  6 12  0 26 59.0800000  0  4G 6G 8G 9G11
  20448148.532    20448148.377    -4046908.495 9    365555.180 9
  22772174.070    22772176.402     9321928.431 9   8071403.244 9
  21329990.806    21329991.849   -10678136.306 9  -7296131.521 9
  20567927.948    20567929.394    -4003003.164 8  -2124024.588 8
 86  6 12  0 27  5.0800000  0  4G 6G 8G 9G11
  20448212.465    20448215.515    -4046562.279 9    365824.958 8
  22775995.705    22775997.953     9342010.029 8   8087051.233 9
  21327172.887    21327174.182   -10692945.541 9  -7307671.171 9
  20568190.864    20568193.465    -4001617.296 7  -2122944.689 8
 86  6 12  0 27 11.0800000  0  4G 6G 8G 9G11
  20448283.038    20448283.485    -4046197.914 9    366108.888 9
  22779818.607    22779821.048     9362101.609 9   8102707.009 8
  21324356.717    21324358.611   -10707745.263 9  -7319203.434 9
  20568458.651    20568461.362    -4000208.699 7  -2121847.085 6
 86  6 12  0 27 17.0800000  0  4G 6G 8G 9G11
  20448356.415    20448357.019    -4045815.449 9    366406.902 8
  22783644.422    22783646.323     9382203.123 8   8118370.516 9
  21321541.348    21321543.343   -10722535.601 9  -7330728.364 9
  20568732.243    20568732.587    -3998777.383 8  -2120731.779 8
 86  6 12  0 27 23.0800000  0  4G 6G 8G 9G11
  20448431.967    20448432.429    -4045414.856 9    366719.062 8
  22787470.274    22787473.288     9402314.558 9   8134041.767 9
  21318729.933    21318730.757   -10737316.386 9  -7342245.856 9
  20569008.401    20569010.652    -3997323.317 8  -2119598.737 7
 86  6 12  0 27 29.0800000  0  4G 6G 8G 9G11
  20448513.129    20448512.303    -4044996.088 9    367045.375 8
  22791299.454    22791302.289     9422435.882 8   8149720.711 9
  21315918.679    21315920.154   -10752087.591 9  -7353755.884 8
  20569289.615    20569291.553    -3995846.513 8  -2118447.969 8
 86  6 12  0 27 35.0800000  0  4G 6G 8G 9G11
  20448595.033    20448595.682    -4044559.180 9    367385.817 8
  22795131.114    22795133.597     9442567.070 9   8165407.334 8
  21313110.248    21313111.157   -10766849.332 9  -7365258.539 9
  20569574.204    20569577.072    -3994347.003 8  -2117279.522 8
 86  6 12  0 27 41.0800000  0  4G 6G 8G 9G11
  20448681.031    20448682.124    -4044104.160 9    367740.382 8
  22798963.507    22798965.843     9462708.121 9   8181101.657 8
  21310302.613    21310303.751   -10781601.551 9  -7376753.771 8
  20569864.453    20569866.695    -3992824.847 7  -2116093.429 7
 86  6 12  0 27 47.0800000  0  4G 6G 8G 9G11
  20448772.038    20448772.114    -4043630.877 9    368109.166 9
  22802798.180    22802800.275     9482858.989 9   8196803.622 9
  21307496.189    21307498.905   -10796344.113 9  -7388241.476 8
  20570158.116    20570160.957    -3991280.035 7  -2114889.680 8
 86  6 12  0 27 53.0800000  0  4G 6G 8G 9G11
  20448865.219    20448865.151    -4043139.393 9    368492.137 9
  22806634.925    22806636.871     9503019.658 9   8212513.225 9
  21304692.810    21304694.711   -10811077.088 9  -7399721.718 9
  20570457.315    20570458.505    -3989712.598 8  -2113668.304 8
 86  6 12  0 27 59.0800000  0  4G 6G 8G 9G11
  20448962.865    20448962.899    -4042629.742 8    368889.272 8
  22810472.551    22810475.317     9523190.094 8   8228230.434 9
  21301891.835    21301892.907   -10825800.462 9  -7411194.470 9
  20570760.305    20570762.373    -3988122.485 7  -2112429.238 8
 86  6 12  0 28  5.0800000  0  4G 6G 8G 9G11
  20449062.198    20449062.918    -4042101.890 8    369300.589 8
  22814312.991    22814315.558     9543370.207 8   8243955.195 9
  21299090.997    21299092.834   -10840514.156 9  -7422659.689 8
  20571067.221    20571068.250    -3986509.714 8  -2111172.540 8
 86  6 12  0 28 11.0800000  0  4G 6G 8G 9G11
  20449166.027    20449167.919    -4041555.816 9    369726.100 8
  22818155.059    22818157.329     9563560.049 9   8259687.542 9
  21296293.364    21296295.079   -10855218.233 9  -7434117.405 9
  20571377.581    20571379.570    -3984874.257 8  -2109898.168 8
 86  6 12  0 28 17.0800000  0  4G 6G 8G 9G11
  20449273.060    20449275.395    -4040991.493 8    370165.821 8
  22821999.080    22822001.720     9583759.539 9   8275427.395 9
  21293497.091    21293497.825   -10869912.693 9  -7445567.629 8
  20571693.991    20571695.387    -3983216.162 7  -2108606.130 8
 86  6 12  0 28 23.0800000  0  4G 6G 8G 9G11
  20449383.811    20449386.391    -4040408.927 8    370619.773 8
  22825844.931    22825847.732     9603968.711 9   8291174.787 9
  21290703.048    21290704.178   -10884597.294 9  -7457010.189 8
  20572012.945    20572014.786    -3981535.413 8  -2107296.464 7
 86  6 12  0 28 29.0800000  0  4G 6G 8G 9G11
  20449497.771    20449499.520    -4039808.112 8    371087.934 9
  22829692.131    22829694.251     9624187.547 9   8306929.717 9
  21287911.080    21287910.887   -10899272.193 9  -7468445.160 8
  20572337.271    20572339.527    -3979832.072 8  -2105969.186 8
 86  6 12  0 28 35.0800000  0  4G 6G 8G 9G11
  20449616.251    20449617.472    -4039189.021 9    371570.340 8
  22833541.909    22833544.165     9644415.981 9   8322692.128 9
  21285120.430    21285121.775   -10913937.355 9  -7479872.563 8
  20572665.804    20572668.227    -3978106.129 8  -2104624.310 9
 86  6 12  0 28 41.0800000  0  4G 6G 8G 9G11
  20449737.364    20449739.684    -4038551.638 9    372067.012 8
  22837392.720    22837396.048     9664653.965 9   8338461.980 9
  21282331.791    21282331.827   -10928592.833 8  -7491292.426 8
  20572998.244    20573000.097    -3976357.624 7  -2103261.825 7
 86  6 12  0 28 47.0800000  0  4G 6G 8G 9G11
  20449861.424    20449863.803    -4037895.958 9    372577.923 7
  22841246.252    22841248.585     9684901.508 9   8354239.279 9
  21279543.124    21279545.497   -10943238.394 9  -7502704.541 8
  20573336.040    20573338.507    -3974586.567 7  -2101881.778 8
 86  6 12  0 28 53.0800000  0  4G 6G 8G 9G11
  20449989.863    20449992.284    -4037222.014 9    373103.063 8
  22845101.072    22845102.987     9705158.540 9   8370023.981 8
  21276758.725    21276759.654   -10957874.194 9  -7514109.065 9
  20573677.630    20573678.747    -3972792.902 8  -2100484.126 7
 86  6 12  0 28 59.0800000  0  4G 6G 8G 9G11
  20450122.709    20450123.915    -4036529.725 8    373642.513 8
  22848957.268    22848959.395     9725425.130 9   8385816.122 8
  21273976.539    21273976.511   -10972500.139 9  -7525505.901 8
  20574022.160    20574024.237    -3970976.640 8  -2099068.850 8
 86  6 12  0 29  5.0800000  0  4G 6G 8G 9G11
  20450258.416    20450258.776    -4035819.120 9    374196.246 8
  22852815.980    22852817.567     9745701.157 9   8401615.615 9
  21271192.663    21271195.317   -10987116.227 9  -7536895.054 8
  20574372.920    20574376.058    -3969137.815 8  -2097636.007 7
 86  6 12  0 29 11.0800000  0  4G 6G 8G 9G11
  20450396.415    20450397.578    -4035090.144 8    374764.262 9
  22856676.014    22856677.828     9765986.655 9   8417422.488 9
  21268414.727    21268415.378   -11001722.490 9  -7548276.552 8
  20574725.893    20574729.660    -3967276.436 8  -2096185.579 8
 86  6 12  0 29 17.0800000  0  4G 6G 8G 9G11
  20450538.076    20450538.768    -4034342.811 8    375346.604 8
  22860538.687    22860540.038     9786281.597 9   8433236.719 9
  21265636.212    21265639.537   -11016318.757 9  -7559650.278 8
  20575085.311    20575087.665    -3965392.531 7  -2094717.616 7
 86  6 12  0 29 23.0800000  0  4G 6G 8G 9G11
  20450684.887    20450685.664    -4033577.082 9    375943.265 8
  22864402.374    22864404.311     9806585.930 9   8449058.275 9
  21262860.829    21262862.474   -11030905.160 9  -7571016.302 9
  20575447.019    20575450.925    -3963486.149 7  -2093232.103 8
 86  6 12  0 29 29.0800000  0  4G 6G 8G 9G11
  20450834.388    20450833.064    -4032792.975 8    376554.268 8
  22868267.218    22868270.197     9826899.658 9   8464887.150 8
  21260087.444    21260088.623   -11045481.638 9  -7582374.600 8
  20575814.025    20575817.115    -3961557.170 7  -2091729.016 8
 86  6 12  0 29 35.0800000  0  4G 6G 8G 9G11
  20450986.639    20450986.944    -4031990.476 9    377179.586 8
  22872135.257    22872137.613     9847222.758 9   8480723.324 9
  21257315.151    21257316.239   -11060048.109 9  -7593725.094 8
  20576185.520    20576188.846    -3959605.667 8  -2090208.354 9
 86  6 12  0 29 41.0800000  0  4G 6G 8G 9G11
  20451142.668    20451144.444    -4031169.587 8    377819.234 8
  22876004.488    22876006.469     9867555.176 9   8496566.762 9
  21254545.034    21254547.351   -11074604.646 9  -7605067.849 8
  20576560.707    20576564.570    -3957631.650 8  -2088670.164 8
 86  6 12  0 29 47.0800000  0  4G 6G 8G 9G11
  20451303.330    20451303.835    -4030330.246 9    378473.275 8
  22879874.924    22879877.431     9887896.878 9   8512417.431 9
  21251776.707    21251779.251   -11089151.084 9  -7616402.727 8
  20576940.508    20576942.986    -3955635.181 7  -2087114.471 8
 86  6 12  0 29 53.0800000  0  4G 6G 8G 9G11
  20451466.254    20451466.202    -4029472.517 8    379141.625 9
  22883747.159    22883749.870     9908247.842 8   8528275.323 9
  21249012.104    21249011.927   -11103687.503 9  -7627729.803 8
  20577326.377    20577328.315    -3953616.221 8  -2085541.263 8
 86  6 12  0 29 59.0800000  0  4G 6G 8G 9G11
  20451633.442    20451634.292    -4028596.349 9    379824.358 8
  22887621.745    22887624.108     9928608.065 8   8544140.425 9
  21246247.276    21246248.313   -11118213.999 9  -7639049.154 8
  20577714.245    20577715.782    -3951574.802 8  -2083950.556 8
 86  6 12  0 30  5.0800000  0  4G 6G 8G 9G11
  20451802.806    20451804.514    -4027701.673 9    380521.496 8
  22891498.351    22891500.944     9948977.516 8   8560012.721 9
  21243484.909    21243485.044   -11132730.283 9  -7650360.546 9
  20578107.022    20578110.581    -3949510.878 7  -2082342.294 8
 86  6 12  0 30 11.0800000  0  4G 6G 8G 9G11
  20451976.920    20451978.239    -4026788.577 8    381233.002 8
  22895377.669    22895377.988     9969356.170 7   8575892.184 8
  21240724.114    21240725.895   -11147236.529 9  -7661664.115 8
  20578504.467    20578507.333    -3947424.537 7  -2080716.575 7
 86  6 12  0 30 17.0800000  0  4G 6G 8G 9G11
  20452153.267    20452155.415    -4025857.048 8    381958.874 8
  22899255.504    22899258.358     9989744.004 8   8591778.798 8
  21237966.075    21237967.583   -11161732.696 8  -7672959.821 8
  20578903.818    20578908.374    -3945315.767 7  -2079073.365 8
 86  6 12  0 30 23.0800000  0  4G 6G 8G 9G11
  20452334.935    20452336.671    -4024906.991 9    382699.172 8
  22903137.301    22903138.839    10010140.974 8   8607672.536 9
  21235209.587    21235210.165   -11176218.632 9  -7684247.564 8
  20579310.989    20579313.055    -3943184.539 8  -2077412.679 7
 86  6 12  0 30 29.0800000  0  4G 6G 8G 9G11
  20452518.896    20452519.342    -4023938.402 8    383453.904 8
  22907018.361    22907023.187    10030547.071 9   8623573.392 8
  21232454.738    21232456.025   -11190694.535 9  -7695527.479 8
  20579720.476    20579723.544    -3941030.901 8  -2075734.509 8
 86  6 12  0 30 35.0800000  0  4G 6G 8G 9G11
  20452706.144    20452707.236    -4022951.336 9    384223.041 8
  22910905.083    22910907.042    10050962.257 9   8639481.326 9
  21229702.608    21229702.794   -11205160.265 9  -7706799.495 9
  20580132.816    20580137.632    -3938854.820 8  -2074038.860 8
 86  6 12  0 30 41.0800000  0  4G 6G 8G 9G11
  20452898.232    20452899.365    -4021945.794 8    385006.584 8
  22914792.228    22914793.361    10071386.511 9   8655396.312 8
  21226950.800    21226952.711   -11219615.788 9  -7718063.539 8
  20580552.040    20580555.734    -3936656.390 7  -2072325.808 8
 86  6 12  0 30 47.0800000  0  4G 6G 8G 9G11
  20453092.319    20453093.783    -4020921.710 9    385804.577 8
  22918679.654    22918682.321    10091819.779 8   8671318.330 8
  21224202.027    21224203.328   -11234061.134 9  -7729319.642 8
  20580975.553    20580979.174    -3934435.603 8  -2070595.315 8
 86  6 12  0 30 53.0800000  0  4G 6G 8G 9G11
  20453290.360    20453291.594    -4019879.104 8    386616.992 8
  22922569.871    22922572.827    10112262.038 8   8687247.365 9
  21221455.498    21221456.413   -11248496.255 9  -7740567.788 8
  20581402.396    20581405.753    -3932192.403 8  -2068847.385 8
 86  6 12  0 30 59.0800000  0  4G 6G 8G 9G11
  20453492.919    20453494.283    -4018817.957 9    387443.849 9
  22926460.678    22926463.897    10132713.300 9   8703183.406 8
  21218711.109    21218710.844   -11262921.165 9  -7751807.970 8
  20581832.441    20581836.757    -3929926.855 7  -2067082.010 8
 86  6 12  0 31  5.0800000  0  4G 6G 8G 9G11
  20453698.344    20453700.679    -4017738.240 9    388285.194 8
  22930355.445    22930356.923    10153173.519 9   8719126.434 8
  21215967.993    21215968.402   -11277335.724 9  -7763040.102 8
  20582268.828    20582271.050    -3927638.894 9  -2065299.189 8
 86  6 12  0 31 11.0800000  0  4G 6G 8G 9G11
  20453907.029    20453908.748    -4016640.002 9    389140.962 8
  22934250.253    22934252.950    10173642.689 8   8735076.424 9
  21213227.126    21213228.355   -11291740.076 9  -7774264.263 9
  20582708.585    20582712.539    -3925328.581 8  -2063498.946 8
 86  6 12  0 31 17.0800000  0  4G 6G 8G 9G11
  20454119.490    20454120.739    -4015523.153 8    390011.222 8
  22938147.260    22938150.051    10194120.732 8   8751033.333 8
  21210487.638    21210488.451   -11306134.077 9  -7785480.369 8
  20583151.882    20583155.276    -3922995.920 7  -2061681.285 7
 86  6 12  0 31 23.0800000  0  4G 6G 8G 9G11
  20454335.817    20454337.194    -4014387.733 9    390895.967 8
  22942046.326    22942047.109    10214607.651 8   8766997.160 8
  21207750.554    21207751.404   -11320517.790 9  -7796688.460 9
  20583599.432    20583602.925    -3920640.992 7  -2059846.278 8
 86  6 12  0 31 29.0800000  0  4G 6G 8G 9G11
  20454554.804    20454557.525    -4013233.767 9    391795.165 8
  22945945.944    22945948.308    10235103.431 9   8782967.880 8
  21205015.517    21205016.253   -11334891.149 9  -7807888.476 8
  20584051.947    20584056.441    -3918263.788 8  -2057993.911 8
 86  6 12  0 31 35.0800000  0  4G 6G 8G 9G11
  20454779.170    20454780.421    -4012061.105 9    392708.926 8
  22949847.717    22949850.065    10255608.020 9   8798945.493 8
  21202281.909    21202283.312   -11349254.188 9  -7819080.445 8
  20584510.312    20584512.662    -3915864.265 7  -2056124.148 7
 86  6 12  0 31 41.0800000  0  4G 6G 8G 9G11
  20455005.372    20455007.836    -4010869.849 8    393637.162 8
  22953750.645    22953754.001    10276121.444 8   8814929.972 9
  21199550.427    21199551.435   -11363606.739 7  -7830264.240 8
  20584969.929    20584973.389    -3913442.402 7  -2054236.991 7
 86  6 12  0 31 47.0800000  0  4G 6G 8G 9G11
  20455236.093    20455236.970    -4009659.956 8    394579.942 8
  22957656.768    22957660.022    10296643.635 8   8830921.281 7
  21196821.729    21196821.198   -11377948.850 9  -7841439.927 9
  20585435.627    20585439.686    -3910998.253 9  -2052332.450 7
 86  6 12  0 31 53.0800000  0  4G 6G 8G 9G11
  20455469.476    20455471.367    -4008431.409 8    395537.251 9
  22961563.422    22961565.657    10317174.624 9   8846919.447 9
  21194094.161    21194094.919   -11392280.535 9  -7852607.472 8
  20585904.389    20585907.460    -3908531.815 8  -2050410.552 8
 86  6 12  0 31 59.0800000  0  4G 6G 8G 9G11
  20455707.408    20455707.884    -4007184.251 8    396509.058 8
  22965472.693    22965474.205    10337714.335 9   8862924.417 8
  21191369.120    21191368.874   -11406601.812 9  -7863766.898 9
  20586378.660    20586382.457    -3906043.107 8  -2048471.297 8
 86  6 12  0 32  5.0800000  0  4G 6G 8G 9G11
  20455948.718    20455949.353    -4005918.378 9    397495.462 8
  22969382.618    22969383.958    10358262.745 9   8878936.159 9
  21188645.599    21188647.229   -11420912.565 9  -7874918.137 8
  20586857.656    20586858.993    -3903532.170 8  -2046514.730 8
 86  6 12  0 32 11.0800000  0  4G 6G 8G 9G11
  20456192.777    20456194.997    -4004633.810 9    398496.407 7
  22973294.765    22973296.715    10378819.845 9   8894954.681 7
  21185924.277    21185925.449   -11435212.832 9  -7886061.217 8
  20587338.502    20587341.818    -3900998.969 8  -2044540.815 9
 86  6 12  0 32 17.0800000  0  4G 6G 8G 9G11
  20456440.783    20456440.143    -4003330.591 9    399511.912 8
  22977209.310    22977210.375    10399385.615 9   8910979.948 7
  21183205.108    21183206.187   -11449502.505 9  -7897196.009 9
  20587825.797    20587828.650    -3898443.528 8  -2042549.553 8
 86  6 12  0 32 23.0800000  0  4G 6G 8G 9G11
  20456692.653    20456693.058    -4002008.600 9    400542.016 8
  22981123.078    22981125.183    10419960.014 9   8927011.943 8
  21180487.492    21180489.344   -11463781.711 9  -7908322.662 8
  20588315.368    20588319.184    -3895865.883 7  -2040540.999 8
 86  6 12  0 32 29.0800000  0  4G 6G 8G 9G11
  20456947.757    20456947.789    -4000667.914 9    401586.712 8
  22985039.639    22985041.417    10440543.047 9   8943050.664 8
  21177771.729    21177774.412   -11478050.266 9  -7919441.024 8
  20588810.992    20588814.093    -3893266.015 7  -2038515.136 8
 86  6 12  0 32 35.0800000  0  4G 6G 8G 9G11
  20457206.181    20457207.243    -3999308.547 9    402645.965 8
  22988958.355    22988960.192    10461134.647 9   8959096.063 8
  21175059.443    21175060.814   -11492308.302 9  -7930551.181 8
  20589308.967    20589311.903    -3890643.944 7  -2036471.959 8
 86  6 12  0 32 41.0800000  0  4G 6G 8G 9G11
  20457468.696    20457468.272    -3997930.434 9    403719.827 7
  22992879.663    22992880.627    10481734.789 9   8975148.116 8
  21172348.237    21172349.983   -11506555.709 9  -7941653.052 8
  20589811.376    20589815.261    -3887999.679 8  -2034411.492 8
 86  6 12  0 32 47.0800000  0  4G 6G 8G 9G11
  20457734.332    20457734.250    -3996533.531 9    404808.313 8
  22996800.067    22996802.235    10502343.472 9   8991206.826 8
  21169637.796    21169640.071   -11520792.453 8  -7952746.627 8
  20590319.012    20590322.815    -3885333.298 8  -2032333.793 9
 86  6 12  0 32 53.0800000  0  4G 6G 8G 9G11
  20458003.946    20458003.922    -3995117.905 8    405911.388 9
  23000724.101    23000725.608    10522960.613 9   9007272.115 8
  21166931.457    21166932.929   -11535018.517 9  -7963831.862 8
  20590832.096    20590833.820    -3882644.752 8  -2030238.829 8
 86  6 12  0 32 59.0800000  0  4G 6G 8G 9G11
  20458276.221    20458275.882    -3993683.531 9    407029.087 8
  23004649.034    23004650.799    10543586.228 9   9023344.036 8
  21164226.733    21164228.357   -11549234.028 9  -7974908.880 9
  20591347.843    20591350.393    -3879934.055 8  -2028126.596 8
 86  6 12  0 33  5.0800000  0  4G 6G 8G 9G11
  20458553.047    20458553.250    -3992230.341 9    408161.443 9
  23008574.412    23008577.280    10564220.314 9   9039422.533 9
  21161523.418    21161526.135   -11563438.725 8  -7985977.481 8
  20591867.455    20591870.435    -3877201.238 8  -2025997.122 8
 86  6 12  0 33 11.0800000  0  4G 6G 8G 9G11
  20458833.820    20458832.967    -3990758.449 8    409308.376 8
  23012503.211    23012504.371    10584862.851 9   9055507.624 9
  21158822.873    21158824.282   -11577632.762 9  -7997037.764 9
  20592391.670    20592394.590    -3874446.318 8  -2023850.439 7
 86  6 12  0 33 17.0800000  0  4G 6G 8G 9G11
  20459117.144    20459116.888    -3989267.727 9    410469.974 8
  23016433.967    23016435.858    10605513.793 9   9071599.265 8
  21156123.852    21156125.847   -11591816.150 9  -8008089.758 9
  20592918.792    20592922.586    -3871669.265 8  -2021686.499 8
 86  6 12  0 33 23.0800000  0  4G 6G 8G 9G11
  20459403.957    20459404.117    -3987758.191 8    411646.228 7
  23020365.045    23020367.552    10626173.119 8   9087697.437 8
  21153427.335    21153428.285   -11605988.737 9  -8019133.318 8
  20593452.837    20593455.782    -3868870.090 8  -2019505.335 8
 86  6 12  0 33 29.0800000  0  4G 6G 8G 9G11
  20459695.462    20459695.595    -3986229.803 8    412837.179 7
  23024296.796    23024299.999    10646840.769 8   9103802.097 9
  21150732.198    21150733.621   -11620150.529 9  -8030168.481 9
  20593989.247    20593993.024    -3866048.862 9  -2017306.967 8
 86  6 12  0 33 35.0800000  0  4G 6G 8G 9G11
  20459988.974    20459989.893    -3984682.605 8    414042.787 8
  23028232.020    23028233.503    10667516.721 9   9119913.217 9
  21148039.471    21148039.815   -11634301.504 9  -8041195.220 8
  20594530.431    20594532.795    -3863205.541 9  -2015091.392 8
 86  6 12  0 33 41.0800000  0  4G 6G 8G 9G11
  20460287.406    20460287.838    -3983116.569 8    415263.070 8
  23032167.256    23032168.796    10688201.002 8   9136030.834 9
  21145348.150    21145349.753   -11648441.663 8  -8052213.527 8
  20595076.133    20595078.202    -3860340.151 8  -2012858.630 8
 86  6 12  0 33 47.0800000  0  4G 6G 8G 9G11
  20460588.928    20460588.618    -3981531.705 9    416498.035 8
  23036106.290    23036108.099    10708893.582 8   9152154.911 8
  21142658.494    21142660.518   -11662571.006 9  -8063223.408 8
  20595625.212    20595627.510    -3857452.700 8  -2010608.660 8
 86  6 12  0 33 53.0800000  0  4G 6G 8G 9G11
  20460892.741    20460895.377    -3979927.968 8    417747.708 8
  23040044.605    23040047.344    10729594.404 8   9168285.414 9
  21139973.503    21139974.052   -11676689.387 9  -8074224.743 9
  20596178.332    20596182.083    -3854543.197 8  -2008341.524 9
 86  6 12  0 33 59.0800000  0  4G 6G 8G 9G11
  20461201.591    20461201.824    -3978305.343 9    419012.073 8
  23043984.792    23043987.981    10750303.431 9   9184422.325 9
  21137288.769    21137289.698   -11690796.991 9  -8085217.678 8
  20596737.587    20596738.553    -3851611.635 8  -2006057.174 8
 86  6 12  0 34  5.0800000  0  4G 6G 8G 9G11
  20461514.504    20461515.437    -3976663.875 9    420291.144 9
  23047927.335    23047929.775    10771020.687 9   9200565.628 9
  21134606.595    21134607.103   -11704893.603 9  -8096202.043 8
  20597299.271    20597301.417    -3848658.020 8  -2003755.659 8
 86  6 12  0 34 11.0800000  0  4G 6G 8G 9G11
  20461830.651    20461831.858    -3975003.454 9    421584.976 8
  23051872.232    23051873.355    10791746.071 9   9216715.282 8
  21131925.826    21131925.855   -11718979.309 9  -8107177.914 8
  20597865.457    20597867.823    -3845682.380 8  -2001436.997 8
 86  6 12  0 34 17.0800000  0  4G 6G 8G 9G11
  20462150.232    20462152.353    -3973324.170 8    422893.511 8
  23055816.590    23055820.975    10812479.626 8   9232871.279 9
  21129247.488    21129248.254   -11733054.120 9  -8118145.305 8
  20598434.631    20598438.086    -3842684.740 8  -1999101.163 8
 86  6 12  0 34 23.0800000  0  4G 6G 8G 9G11
  20462474.134    20462474.096    -3971625.953 8    424216.801 9
  23059763.874    23059766.576    10833221.313 9   9249033.635 8
  21126571.097    21126572.163   -11747117.949 9  -8129104.133 8
  20599010.597    20599012.175    -3839665.079 8  -1996748.175 8
 86  6 12  0 34 29.0800000  0  4G 6G 8G 9G11
  20462800.156    20462800.918    -3969908.857 9    425554.788 9
  23063713.629    23063715.289    10853971.105 8   9265202.295 8
  21123897.302    21123897.911   -11761170.821 9  -8140054.419 9
  20599590.077    20599592.464    -3836623.428 8  -1994378.051 9
 86  6 12  0 34 35.0800000  0  4G 6G 8G 9G11
  20463130.526    20463130.717    -3968172.826 9    426907.545 8
  23067662.916    23067663.978    10874728.961 9   9281377.244 8
  21121225.776    21121226.147   -11775212.550 9  -8150996.029 9
  20600174.045    20600174.159    -3833559.830 8  -1991990.833 7
 86  6 12  0 34 41.0800000  0  4G 6G 8G 9G11
  20463463.873    20463465.178    -3966417.790 9    428275.104 9
  23071614.281    23071617.259    10895494.849 9   9297558.449 8
  21118555.417    21118556.267   -11789243.359 9  -8161929.122 9
  20600760.782    20600762.370    -3830474.291 8  -1989586.523 8
 86  6 12  0 34 47.0800000  0  4G 6G 8G 9G11
  20463802.370    20463803.347    -3964643.861 9    429657.379 8
  23075567.560    23075570.288    10916268.742 9   9313745.897 9
  21115887.740    21115888.225   -11803263.114 9  -8172853.599 8
  20601351.048    20601352.470    -3827366.879 8  -1987165.166 8
 86  6 12  0 34 53.0800000  0  4G 6G 8G 9G11
  20464142.671    20464145.323    -3962850.961 8    431054.444 8
  23079521.926    23079524.882    10937050.662 8   9329939.596 8
  21113222.608    21113222.851   -11817271.744 9  -8183769.414 8
  20601946.718    20601947.913    -3824237.494 8  -1984726.670 8
 86  6 12  0 34 59.0800000  0  4G 6G 8G 9G11
  20464489.040    20464490.144    -3961039.047 8    432466.324 8
  23083477.762    23083481.476    10957840.588 9   9346139.529 9
  21110557.980    21110558.422   -11831269.317 9  -8194676.615 9
  20602546.453    20602547.730    -3821086.114 9  -1982271.069 9
 86  6 12  0 35  5.0800000  0  4G 6G 8G 9G11
  20464837.755    20464838.029    -3959208.186 9    433892.960 8
  23087435.908    23087438.715    10978638.435 9   9362345.638 8
  21107896.535    21107896.392   -11845255.744 9  -8205575.128 9
  20603151.286    20603153.617    -3817912.830 8  -1979798.371 7
 86  6 12  0 35 11.0800000  0  4G 6G 8G 9G11
  20465189.244    20465190.577    -3957358.351 9    435334.404 8
  23091395.204    23091398.047    10999444.190 9   9378557.911 9
  21105236.650    21105238.392   -11859231.064 9  -8216464.984 8
  20603758.658    20603759.543    -3814717.619 8  -1977308.600 9
 86  6 12  0 35 17.0800000  0  4G 6G 8G 9G11
  20465544.512    20465544.791    -3955489.484 9    436790.647 8
  23095356.332    23095359.524    11020257.849 8   9394776.347 9
  21102579.733    21102580.969   -11873195.176 9  -8227346.108 8
  20604370.643    20604371.604    -3811500.550 8  -1974801.793 8
 86  6 12  0 35 23.0800000  0  4G 6G 8G 9G11
  20465903.616    20465904.307    -3953601.631 9    438261.711 9
  23099318.433    23099320.472    11041079.383 9   9411000.911 9
  21099924.304    21099924.996   -11887148.194 9  -8238218.593 9
  20604987.509    20604988.496    -3808261.620 8  -1972277.958 7
 86  6 12  0 35 29.0800000  0  4G 6G 8G 9G11
  20466266.584    20466267.834    -3951694.703 9    439747.625 8
  23103281.298    23103284.831    11061908.750 8   9427231.580 9
  21097271.337    21097272.223   -11901090.071 9  -8249082.386 9
  20605608.299    20605609.429    -3805000.847 8  -1969737.076 8
 86  6 12  0 35 35.0800000  0  4G 6G 8G 9G11
  20466633.957    20466633.948    -3949768.758 9    441248.362 8
  23107246.242    23107249.445    11082745.950 8   9443468.355 9
  21094620.322    21094620.602   -11915020.655 9  -8259937.378 9
  20606232.075    20606234.129    -3801718.219 8  -1967179.198 9
 86  6 12  0 35 41.0800000  0  4G 6G 8G 9G11
  20467003.192    20467005.069    -3947823.768 9    442763.934 8
  23111214.465    23111216.172    11103590.916 8   9459711.190 8
  21091971.269    21091972.369   -11928939.941 8  -8270783.582 8
  20606860.732    20606862.777    -3798413.763 8  -1964604.297 8
 86  6 12  0 35 47.0800000  0  4G 6G 8G 9G11
  20467377.749    20467378.138    -3945859.714 9    444294.366 8
  23115182.810    23115184.709    11124443.671 8   9475960.074 9
  21089324.412    21089325.556   -11942848.046 9  -8281621.071 8
  20607493.395    20607495.891    -3795087.505 8  -1962012.400 8
 86  6 12  0 35 53.0800000  0  4G 6G 8G 9G11
  20467755.140    20467755.372    -3943876.638 9    445839.617 8
  23119151.949    23119154.683    11145304.162 8   9492214.998 9
  21086679.757    21086681.817   -11956744.832 9  -8292449.727 9
  20608130.367    20608133.187    -3791739.389 9  -1959403.494 9
 86  6 12  0 35 59.0800000  0  4G 6G 8G 9G11
  20468135.706    20468136.797    -3941874.500 9    447399.719 8
  23123122.604    23123126.200    11166172.335 9   9508475.911 9
  21084037.923    21084038.752   -11970630.246 9  -8303269.527 8
  20608771.781    20608773.182    -3788369.498 8  -1956777.608 8
 86  6 12  0 36  5.0800000  0  4G 6G 8G 9G11
  20468519.649    20468521.728    -3939853.278 8    448974.685 9
  23127094.488    23127098.861    11187048.228 8   9524742.832 9
  21081397.576    21081398.799   -11984504.455 9  -8314080.598 8
  20609416.459    20609419.551    -3784977.815 8  -1954134.725 9
 86  6 12  0 36 11.0800000  0  4G 6G 8G 9G11
  20468908.515    20468909.221    -3937812.949 9    450564.558 8
  23131069.203    23131071.452    11207931.828 9   9541015.768 8
  21078759.216    21078760.356   -11998367.243 9  -8324882.769 8
  20610067.702    20610068.761    -3781564.349 7  -1951474.890 7
 86  6 12  0 36 17.0800000  0  4G 6G 8G 9G11
  20469300.531    20469301.365    -3935753.540 8    452169.296 8
  23135044.231    23135048.113    11228823.037 8   9557294.613 8
  21076123.351    21076124.415   -12012218.714 9  -8335676.133 9
  20610719.762    20610722.563    -3778129.090 8  -1948798.065 7
 86  6 12  0 36 23.0800000  0  4G 6G 8G 9G11
  20469696.553    20469697.300    -3933675.023 8    453788.909 8
  23139021.565    23139024.650    11249721.838 9   9573579.393 8
  21073489.510    21073491.783   -12026058.736 9  -8346460.561 8
  20611378.386    20611380.359    -3774672.129 8  -1946104.320 8
 86  6 12  0 36 29.0800000  0  4G 6G 8G 9G11
  20470094.519    20470096.312    -3931577.355 8    455423.451 8
  23143001.265    23143003.794    11270628.263 8   9589870.105 9
  21070859.038    21070859.663   -12039887.376 9  -8357236.120 8
  20612039.553    20612042.095    -3771193.433 9  -1943393.653 8
 86  6 12  0 36 35.0800000  0  4G 6G 8G 9G11
  20470497.351    20470497.600    -3929460.592 8    457072.883 8
  23146980.081    23146982.687    11291542.252 9   9606166.718 9
  21068230.192    21068230.622   -12053704.636 9  -8368002.818 9
  20612706.534    20612708.525    -3767692.991 9  -1940666.047 7
 86  6 12  0 36 41.0800000  0  4G 6G 8G 9G11
  20470904.333    20470905.296    -3927324.677 8    458737.220 8
  23150962.369    23150964.133    11312463.779 9   9622469.195 9
  21065602.010    21065603.839   -12067510.343 9  -8378760.504 9
  20613376.019    20613377.841    -3764170.804 9  -1937921.488 9
 86  6 12  0 36 47.0800000  0  4G 6G 8G 9G11
  20471314.320    20471314.311    -3925169.623 9    460416.498 9
  23154943.410    23154946.789    11333392.851 8   9638777.556 9
  21062976.845    21062978.549   -12081304.644 9  -8389509.316 9
  20614050.639    20614053.171    -3760626.955 8  -1935160.036 9
 86  6 12  0 36 53.0800000  0  4G 6G 8G 9G11
  20471727.256    20471728.732    -3922995.378 9    462110.713 8
  23158927.683    23158931.090    11354329.427 9   9655091.762 9
  21060354.595    21060355.432   -12095087.375 9  -8400249.103 9
  20614729.864    20614731.460    -3757061.382 8  -1932381.671 8
 86  6 12  0 36 59.0800000  0  4G 6G 8G 9G11
  20472144.338    20472145.258    -3920801.985 8    463819.840 8
  23162914.258    23162916.887    11375273.461 8   9671411.780 9
  21057734.093    21057735.573   -12108858.654 9  -8410979.971 8
  20615412.273    20615414.559    -3753474.142 8  -1929586.423 8
 86  6 12  0 37  5.0800000  0  4G 6G 8G 9G11
  20472565.944    20472566.850    -3918589.426 8    465543.907 8
  23166901.258    23166903.076    11396224.933 9   9687737.594 9
  21055115.875    21055116.493   -12122618.332 9  -8421701.793 8
  20616099.215    20616100.466    -3749865.250 8  -1926774.309 8
 86  6 12  0 37 11.0800000  0  4G 6G 8G 9G11
  20472990.813    20472993.279    -3916357.655 8    467282.950 8
  23170889.107    23170891.757    11417183.809 7   9704069.180 9
  21052500.233    21052500.193   -12136366.480 9  -8432414.634 8
  20616789.083    20616792.655    -3746234.735 8  -1923945.327 8
 86  6 12  0 37 17.0800000  0  4G 6G 8G 9G11
  20473418.857    20473419.105    -3914106.714 9    469036.937 9
  23174878.476    23174881.533    11438150.121 8   9720406.559 9
  21049886.363    21049885.932   -12150102.994 9  -8443118.410 8
  20617484.835    20617487.122    -3742582.552 8  -1921099.461 9
 86  6 12  0 37 23.0800000  0  4G 6G 8G 9G11
  20473851.224    20473853.174    -3911836.570 9    470805.863 8
  23178868.415    23178872.458    11459123.785 8   9736749.648 9
  21047274.784    21047276.050   -12163827.932 9  -8453813.158 9
  20618183.258    20618187.070    -3738908.724 9  -1918236.749 8
 86  6 12  0 37 29.0800000  0  4G 6G 8G 9G11
  20474286.109    20474289.145    -3909547.213 8    472589.778 8
  23182862.060    23182864.531    11480104.757 8   9753098.447 9
  21044664.429    21044665.088   -12177541.223 9  -8464498.839 9
  20618888.142    20618889.713    -3735213.294 8  -1915357.191 8
 86  6 12  0 37 35.0800000  0  4G 6G 8G 9G11
  20474724.714    20474727.379    -3907238.577 7    474388.711 8
  23186854.555    23186859.270    11501093.122 8   9769453.007 9
  21042056.711    21042059.033   -12191242.958 9  -8475175.518 8
  20619594.447    20619597.384    -3731496.261 8  -1912460.811 8
 86  6 12  0 37 41.0800000  0  4G 6G 8G 9G11
  20475168.526    20475170.606    -3904910.702 8    476202.631 8
  23190850.995    23190853.953    11522088.776 7   9785813.247 9
  21039452.381    21039452.905   -12204932.969 9  -8485843.042 9
  20620305.823    20620307.816    -3727757.637 8  -1909547.595 8
 86  6 12  0 37 47.0800000  0  4G 6G 8G 9G11
  20475614.973    20475616.681    -3902563.604 9    478031.532 7
  23194847.760    23194851.792    11543091.669 8   9802179.130 9
  21036848.695    21036850.166   -12218611.251 9  -8496501.459 8
  20621021.235    20621023.760    -3723997.364 9  -1906617.511 8
 86  6 12  0 37 53.0800000  0  4G 6G 8G 9G11
  20476065.972    20476067.907    -3900197.234 8    479875.467 8
  23198845.915    23198849.035    11564101.799 8   9818550.649 9
  21034248.388    21034249.637   -12232277.873 9  -8507150.759 7
  20621741.395    20621743.063    -3720215.544 9  -1903670.643 8
 86  6 12  0 37 59.0800000  0  4G 6G 8G 9G11
  20476519.914    20476521.264    -3897811.581 9    481734.410 9
  23202846.254    23202848.819    11585119.157 8   9834927.806 9
  21031649.911    21031650.212   -12245932.724 8  -8517790.908 9
  20622464.738    20622468.687    -3716412.165 9  -1900706.965 8
 86  6 12  0 38  5.0800000  0  4G 6G 8G 9G11
  20476977.181    20476979.172    -3895406.650 9    483608.386 9
  23206845.803    23206849.897    11606143.726 9   9851310.570 9
  21029052.735    21029054.265   -12259575.878 9  -8528421.938 8
  20623192.763    20623195.420    -3712587.235 7  -1897726.503 8
 86  6 12  0 38 11.0800000  0  4G 6G 8G 9G11
  20477439.481    20477439.786    -3892982.461 8    485497.353 9
  23210848.485    23210852.108    11627175.468 8   9867698.937 9
  21026459.744    21026461.300   -12273207.094 9  -8539043.666 9
  20623925.500    20623926.780    -3708740.790 8  -1894729.268 8
 86  6 12  0 38 17.0800000  0  4G 6G 8G 9G11
  20477903.586    20477904.576    -3890538.942 9    487401.390 9
  23214852.146    23214854.834    11648214.359 8   9884092.869 9
  21023867.350    21023869.333   -12286826.651 9  -8549656.309 9
  20624659.383    20624663.138    -3704872.783 8  -1891715.246 8
 86  6 12  0 38 23.0800000  0  4G 6G 8G 9G11
  20478372.297    20478374.101    -3888076.151 9    489320.455 8
  23218856.840    23218860.018    11669260.381 8   9900492.353 9
  21021278.093    21021279.586   -12300434.302 9  -8560259.671 8
  20625399.833    20625404.299    -3700983.305 8  -1888684.477 8
 86  6 12  0 38 29.0800000  0  4G 6G 8G 9G11
  20478845.416    20478846.507    -3885594.032 9    491254.569 8
  23222864.185    23222866.077    11690313.484 8   9916897.364 9
  21018690.682    21018692.185   -12314030.150 9  -8570853.838 8
  20626144.458    20626147.912    -3697072.337 9  -1885636.972 8
 86  6 12  0 38 35.0800000  0  4G 6G 8G 9G11
  20479321.626    20479322.145    -3883092.598 9    493203.738 8
  23226870.674    23226873.679    11711373.637 9   9933307.876 9
  21016106.091    21016107.308   -12327614.126 9  -8581438.755 8
  20626893.471    20626896.869    -3693139.895 7  -1882572.735 9
 86  6 12  0 38 41.0800000  0  4G 6G 8G 9G11
  20479801.670    20479801.660    -3880571.810 8    495167.990 8
  23230880.782    23230882.273    11732440.869 8   9949723.881 9
  21013522.613    21013523.983   -12341186.237 9  -8592014.416 8
  20627646.510    20627649.695    -3689186.013 8  -1879491.795 8
 86  6 12  0 38 47.0800000  0  4G 6G 8G 9G11
  20480284.461    20480284.652    -3878031.707 9    497147.292 9
  23234889.759    23234894.311    11753515.121 8   9966145.373 9
  21010943.509    21010943.345   -12354746.491 9  -8602580.847 8
  20628402.319    20628405.978    -3685210.648 8  -1876394.112 8
 86  6 12  0 38 53.0800000  0  4G 6G 8G 9G11
  20480771.374    20480773.338    -3875472.256 8    499141.664 9
  23238901.176    23238905.407    11774596.385 8   9982572.327 9
  21008364.504    21008365.607   -12368294.695 9  -8613137.882 8
  20629163.921    20629166.058    -3681213.815 9  -1873279.688 8
 86  6 12  0 38 59.0800000  0  4G 6G 8G 9G11
  20481262.066    20481262.700    -3872893.435 8    501151.132 8
  23242914.956    23242917.884    11795684.606 9   9999004.702 9
  21005790.069    21005789.775   -12381831.014 9  -8623685.683 9
  20629927.653    20629930.651    -3677195.566 9  -1870148.586 8
 86  6 12  0 39  5.0800000  0  4G 6G 8G 9G11
  20481757.049    20481757.756    -3870295.240 9    503175.698 7
  23246927.990    23246932.570    11816779.801 8  10015442.499 9
  21003215.315    21003215.343   -12395355.381 9  -8634224.144 8
  20630696.728    20630700.241    -3673155.932 9  -1867000.818 8
 86  6 12  0 39 11.0800000  0  4G 6G 8G 9G11
  20482254.093    20482255.430    -3867677.728 9    505215.313 7
  23250945.759    23250947.823    11837881.902 8  10031885.686 9
  21000644.483    21000645.846   -12408867.763 9  -8644753.264 8
  20631468.795    20631471.797    -3669094.925 8  -1863836.394 8
 86  6 12  0 39 17.0800000  0  4G 6G 8G 9G11
  20482755.774    20482756.864    -3865040.771 8    507270.080 9
  23254961.249    23254964.157    11858990.901 8  10048334.253 8
  20998074.911    20998075.917   -12422368.073 9  -8655272.986 8
  20632245.701    20632248.502    -3665012.531 9  -1860655.315 8
 86  6 12  0 39 23.0800000  0  4G 6G 8G 9G11
  20483261.718    20483262.223    -3862384.449 9    509339.939 8
  23258980.957    23258982.993    11880106.729 7  10064788.155 9
  20995508.641    20995509.616   -12435856.383 9  -8665783.357 8
  20633027.200    20633030.033    -3660908.782 9  -1857457.586 8
 86  6 12  0 39 29.0800000  0  4G 6G 8G 9G11
  20483772.097    20483772.458    -3859708.770 8    511424.872 9
  23262999.751    23263002.502    11901229.466 8  10081247.410 8
  20992943.937    20992944.574   -12449332.679 9  -8676284.364 9
  20633812.046    20633814.421    -3656783.672 9  -1854243.220 9
 86  6 12  0 39 35.0800000  0  4G 6G 8G 9G11
  20484285.111    20484285.355    -3857013.683 9    513524.946 8
  23267020.448    23267022.447    11922358.987 8  10097711.978 9
  20990381.072    20990382.612   -12462796.928 9  -8686775.974 8
  20634601.304    20634602.790    -3652637.254 8  -1851012.248 9
 86  6 12  0 39 41.0800000  0  4G 6G 8G 9G11
  20484800.557    20484801.761    -3854299.154 9    515640.154 8
  23271042.392    23271045.160    11943495.309 8  10114181.833 9
  20987821.902    20987821.822   -12476249.068 9  -8697258.157 8
  20635393.763    20635397.916    -3648469.491 8  -1847764.637 8
 86  6 12  0 39 47.0800000  0  4G 6G 8G 9G11
  20485321.641    20485320.582    -3851565.252 9    517770.473 8
  23275066.314    23275068.227    11964638.384 8  10130656.951 8
  20985263.840    20985263.603   -12489689.090 9  -8707730.900 8
  20636191.615    20636193.199    -3644280.438 9  -1844500.447 9
 86  6 12  0 39 53.0800000  0  4G 6G 8G 9G11
  20485844.667    20485845.931    -3848811.838 8    519915.981 9
  23279091.768    23279092.994    11985788.219 7  10147137.337 8
  20982709.098    20982708.710   -12503116.930 9  -8718194.154 9
  20636992.350    20636994.892    -3640070.106 8  -1841219.666 8
 86  6 12  0 39 59.0800000  0  4G 6G 8G 9G11
  20486372.678    20486373.340    -3846039.027 9    522076.613 8
  23283116.565    23283118.895    12006944.784 9  10163622.966 7
  20980157.142    20980156.052   -12516532.624 9  -8728647.942 8
  20637798.285    20637800.291    -3635838.416 9  -1837922.248 9
 86  6 12  0 40  5.0800000  0  4G 6G 8G 9G11
  20486904.606    20486904.740    -3843246.728 9    524252.430 8
  23287143.156    23287146.129    12028108.122 8  10180113.872 8
  20977605.409    20977606.306   -12529936.091 9  -8739092.194 8
  20638606.686    20638609.398    -3631585.441 8  -1834608.242 8
 86  6 12  0 40 11.0800000  0  4G 6G 8G 9G11
  20487439.085    20487439.015    -3840434.967 9    526443.411 8
  23291172.576    23291174.518    12049278.106 8  10196609.954 8
  20975057.827    20975057.614   -12543327.426 9  -8749527.001 8
  20639421.254    20639422.672    -3627311.207 8  -1831277.667 8
 86  6 12  0 40 17.0800000  0  4G 6G 8G 9G11
  20487977.338    20487977.198    -3837603.756 9    528649.548 8
  23295202.545    23295204.650    12070454.731 8  10213111.209 7
  20972510.978    20972512.648   -12556706.446 9  -8759952.216 8
  20640237.252    20640240.288    -3623015.695 8  -1827930.516 8
 86  6 12  0 40 23.0800000  0  4G 6G 8G 9G11
  20488520.400    20488520.649    -3834753.044 8    530870.879 8
  23299233.479    23299234.662    12091638.009 8  10229617.656 8
  20969967.626    20969968.195   -12570073.232 9  -8770367.881 8
  20641059.650    20641061.715    -3618698.955 9  -1824566.822 9
 86  6 12  0 40 29.0800000  0  4G 6G 8G 9G11
  20489066.238    20489067.501    -3831882.843 9    533107.405 9
  23303265.747    23303267.487    12112827.852 8  10246129.212 9
  20967426.693    20967426.932   -12583427.734 9  -8780773.983 8
  20641884.878    20641887.630    -3614360.988 9  -1821186.579 8
 86  6 12  0 40 35.0800000  0  4G 6G 8G 9G11
  20489615.940    20489617.978    -3828993.147 9    535359.118 8
  23307298.692    23307300.939    12134024.283 8  10262645.902 8
  20964887.356    20964887.995   -12596769.915 9  -8791170.494 8
  20642714.047    20642716.978    -3610001.823 8  -1817789.836 8
 86  6 12  0 40 41.0800000  0  4G 6G 8G 9G11
  20490170.678    20490170.339    -3826083.912 9    537626.041 8
  23311333.598    23311336.525    12155227.283 8  10279167.711 9
  20962350.752    20962351.902   -12610099.825 9  -8801557.439 8
  20643547.153    20643550.178    -3605621.463 9  -1814376.575 8
 86  6 12  0 40 47.0800000  0  4G 6G 8G 9G11
  20490726.335    20490728.326    -3823155.183 9    539908.175 8
  23315369.304    23315371.876    12176436.803 8  10295694.599 8
  20959816.917    20959816.824   -12623417.429 9  -8811934.791 9
  20644385.056    20644387.230    -3601219.940 8  -1810946.809 8
 86  6 12  0 40 53.0800000  0  4G 6G 8G 9G11
  20491288.025    20491288.574    -3820206.908 9    542205.523 9
  23319407.766    23319409.587    12197652.833 9  10312226.555 9
  20957283.253    20957285.820   -12636722.667 8  -8822302.504 8
  20645227.204    20645229.551    -3596797.273 8  -1807500.584 9
 86  6 12  0 40 59.0800000  0  4G 6G 8G 9G11
  20491852.207    20491853.601    -3817239.087 9    544518.111 8
  23323445.641    23323447.668    12218875.361 8  10328763.587 9
  20954753.989    20954756.533   -12650015.582 9  -8832660.612 8
  20646072.502    20646075.431    -3592353.415 9  -1804037.833 8
 86  6 12  0 41  5.0800000  0  4G 6G 8G 9G11
  20492420.969    20492421.145    -3814251.716 9    546845.938 7
  23327485.678    23327487.755    12240104.386 8  10345305.671 9
  20952227.412    20952228.347   -12663296.012 8  -8843008.991 8
  20646922.423    20646924.889    -3587888.392 8  -1800558.593 9
 86  6 12  0 41 11.0800000  0  4G 6G 8G 9G11
  20492993.453    20492994.243    -3811244.834 8    549188.950 9
  23331525.900    23331528.750    12261339.835 9  10361852.763 8
  20949703.659    20949702.843   -12676564.062 8  -8853347.724 9
  20647775.216    20647779.319    -3583402.259 8  -1797062.918 8
 86  6 12  0 41 17.0800000  0  4G 6G 8G 9G11
  20493569.282    20493569.700    -3808218.369 9    551547.241 8
  23335569.154    23335569.716    12282581.680 9  10378404.857 8
  20947180.162    20947181.953   -12689819.559 8  -8863676.686 8
  20648633.682    20648636.165    -3578895.008 9  -1793550.773 8
 86  6 12  0 41 23.0800000  0  4G 6G 8G 9G11
  20494148.175    20494150.196    -3805172.313 9    553920.789 8
  23339612.404    23339614.551    12303829.895 8  10394961.884 9
  20944660.309    20944661.498   -12703062.661 9  -8873995.988 8
  20649495.865    20649497.430    -3574366.599 9  -1790022.135 8
 86  6 12  0 41 29.0800000  0  4G 6G 8G 9G11
  20494732.332    20494734.453    -3802106.714 9    556309.559 9
  23343656.510    23343658.309    12325084.466 9  10411523.888 9
  20942142.486    20942144.594   -12716293.280 9  -8884305.562 8
  20650362.205    20650363.115    -3569817.108 8  -1786477.076 9
 86  6 12  0 41 35.0800000  0  4G 6G 8G 9G11
  20495319.810    20495320.716    -3799021.519 8    558713.607 8
  23347702.334    23347704.634    12346345.377 9  10428090.828 8
  20939626.761    20939629.504   -12729511.403 8  -8894605.399 9
  20651231.191    20651232.674    -3565246.572 9  -1782915.620 9
 86  6 12  0 41 41.0800000  0  4G 6G 8G 9G11
  20495909.235    20495911.271    -3795916.767 8    561132.887 8
  23351749.525    23351751.424    12367612.553 9  10444662.649 8
  20937114.364    20937116.320   -12742716.980 9  -8904895.454 9
  20652105.524    20652107.456    -3560654.967 9  -1779337.736 8
 86  6 12  0 41 47.0800000  0  4G 6G 8G 9G11
  20496504.041    20496506.103    -3792792.426 8    563567.445 8
  23355798.331    23355800.179    12388886.021 8  10461239.375 8
  20934604.495    20934605.739   -12755910.034 9  -8915175.765 9
  20652982.573    20652984.572    -3556042.337 8  -1775743.495 9
 86  6 12  0 41 53.0800000  0  4G 6G 8G 9G11
  20497102.850    20497104.555    -3789648.491 8    566017.252 8
  23359846.787    23359849.608    12410165.755 9  10477820.968 9
  20932097.082    20932097.313   -12769090.507 9  -8925446.261 8
  20653864.503    20653867.264    -3551408.739 8  -1772132.898 9
 86  6 12  0 41 59.0800000  0  4G 6G 8G 9G11
  20497705.094    20497705.813    -3786484.947 8    568482.362 9
  23363897.621    23363899.848    12431451.732 9  10494407.442 8
  20929589.867    20929591.602   -12782258.424 9  -8935706.972 7
  20654750.643    20654751.815    -3546754.125 8  -1768505.926 8
 86  6 12  0 42  5.0800000  0  4G 6G 8G 9G11
  20498311.061    20498311.422    -3783301.743 8    570962.778 8
  23367949.776    23367952.031    12452743.892 9  10510998.722 8
  20927086.428    20927088.140   -12795413.711 9  -8945957.844 8
  20655641.155    20655642.372    -3542078.491 7  -1764862.569 8
 86  6 12  0 42 11.0800000  0  4G 6G 8G 9G11
  20498920.232    20498920.993    -3780098.921 9    573458.471 8
  23372001.825    23372005.010    12474042.245 9  10527594.842 7
  20924585.149    20924587.155   -12808556.328 9  -8956198.847 8
  20656534.414    20656535.642    -3537381.827 9  -1761202.841 8
 86  6 12  0 42 17.0800000  0  4G 6G 8G 9G11
  20499532.721    20499534.858    -3776876.444 9    575969.491 8
  23376056.276    23376059.935    12495346.782 9  10544195.785 7
  20922086.504    20922088.787   -12821686.266 9  -8966429.973 8
  20657431.702    20657434.183    -3532664.180 8  -1757526.749 8
 86  6 12  0 42 23.0800000  0  4G 6G 8G 9G11
  20500150.306    20500152.198    -3773634.355 9    578495.792 8
  23380111.723    23380114.510    12516657.455 9  10560801.499 8
  20919590.107    20919592.731   -12834803.527 9  -8976651.211 8
  20658333.614    20658334.854    -3527925.588 9  -1753834.338 9
 86  6 12  0 42 29.0800000  0  4G 6G 8G 9G11
  20500770.982    20500773.175    -3770372.572 9    581037.435 9
  23384168.137    23384170.070    12537974.250 9  10577411.983 7
  20917098.018    20917098.969   -12847908.215 9  -8986862.648 8
  20659238.947    20659241.541    -3523165.989 8  -1750125.558 9
 86  6 12  0 42 35.0800000  0  4G 6G 8G 9G11
  20501395.264    20501397.614    -3767091.093 8    583594.429 8
  23388226.137    23388227.628    12559297.127 9  10594027.210 7
  20914606.325    20914608.616   -12861000.046 9  -8997064.074 8
  20660148.507    20660151.040    -3518385.455 9  -1746400.467 8
 86  6 12  0 42 41.0800000  0  4G 6G 8G 9G11
  20502023.551    20502024.272    -3763789.980 8    586166.717 8
  23392284.066    23392286.910    12580626.065 9  10610647.153 7
  20912117.181    20912119.208   -12874079.150 9  -9007255.579 8
  20661061.881    20661064.172    -3513584.003 8  -1742659.083 8
 86  6 12  0 42 47.0800000  0  4G 6G 8G 9G11
  20502656.359    20502656.523    -3760469.179 8    588754.351 8
  23396344.013    23396346.148    12601961.044 9  10627271.809 7
  20909630.504    20909632.516   -12887145.451 9  -9017437.121 8
  20661980.290    20661982.115    -3508761.725 8  -1738901.463 8
 86  6 12  0 42 53.0800000  0  4G 6G 8G 9G11
  20503291.916    20503292.236    -3757128.688 8    591357.337 9
  23400405.827    23400407.376    12623302.042 9  10643901.175 8
  20907147.692    20907148.641   -12900198.998 9  -9027608.700 8
  20662902.098    20662903.816    -3503918.502 8  -1735127.525 9
 86  6 12  0 42 59.0800000  0  4G 6G 8G 9G11
  20503931.022    20503931.928    -3753768.523 9    593975.643 9
  23404468.272    23404469.303    12644649.106 9  10660535.246 7
  20904665.836    20904665.616   -12913239.689 9  -9037770.282 8
  20663826.530    20663829.775    -3499054.420 8  -1731337.332 8
 86  6 12  0 43  5.0800000  0  4G 6G 8G 9G11
  20504573.764    20504575.684    -3750388.653 8    596609.318 7
  23408531.425    23408533.811    12666002.073 9  10677173.919 7
  20902185.985    20902187.476   -12926267.629 9  -9047921.925 7
  20664757.107    20664759.025    -3494169.471 9  -1727530.875 9
 86  6 12  0 43 11.0800000  0  4G 6G 8G 9G11
  20505220.823    20505221.443    -3746989.065 9    599258.328 8
  23412596.000    23412597.690    12687360.994 9  10693817.233 8
  20899710.308    20899709.813   -12939282.747 9  -9058063.570 8
  20665691.453    20665693.325    -3489263.724 8  -1723708.216 9
 86  6 12  0 43 17.0800000  0  4G 6G 8G 9G11
  20505871.720    20505872.325    -3743569.801 8    601922.690 9
  23416661.112    23416662.719    12708725.831 9  10710465.162 8
  20897235.559    20897235.708   -12952284.977 9  -9068195.175 8
  20666627.595    20666630.564    -3484337.140 9  -1719869.320 8
 86  6 12  0 43 23.0800000  0  4G 6G 8G 9G11
  20506526.107    20506526.927    -3740130.749 9    604602.485 8
  23420727.943    23420729.225    12730096.604 9  10727117.715 8
  20894763.560    20894763.884   -12965274.258 9  -9078316.702 9
  20667569.846    20667571.143    -3479389.755 9  -1716014.208 8
 86  6 12  0 43 29.0800000  0  4G 6G 8G 9G11
  20507183.644    20507185.064    -3736671.977 8    607297.610 7
  23424795.731    23424797.043    12751473.207 8  10743774.809 8
  20892294.126    20892295.157   -12978250.604 9  -9088428.131 8
  20668514.771    20668517.080    -3474421.598 8  -1712142.926 8
 86  6 12  0 43 35.0800000  0  4G 6G 8G 9G11
  20507846.158    20507847.538    -3733193.440 8    610008.156 9
  23428864.400    23428867.221    12772855.646 9  10760436.444 8
  20889827.159    20889827.557   -12991214.123 9  -9098529.571 8
  20669463.442    20669465.970    -3469432.679 9  -1708255.454 8
 86  6 12  0 43 41.0800000  0  4G 6G 8G 9G11
  20508512.251    20508513.415    -3729695.219 9    612734.048 8
  23432934.256    23432936.161    12794243.908 9  10777102.613 8
  20887363.471    20887364.920   -13004164.622 9  -9108620.866 8
  20670416.679    20670419.418    -3464422.964 8  -1704351.785 8
 86  6 12  0 43 47.0800000  0  4G 6G 8G 9G11
  20509181.807    20509181.367    -3726177.185 9    615475.372 8
  23437005.206    23437007.798    12815638.023 8  10793773.345 8
  20884901.238    20884902.546   -13017102.151 9  -9118702.054 8
  20671373.971    20671376.767    -3459392.489 9  -1700431.929 8
 86  6 12  0 43 53.0800000  0  4G 6G 8G 9G11
  20509855.254    20509855.747    -3722639.415 9    618232.077 9
  23441077.511    23441080.023    12837037.891 8  10810448.567 9
  20882441.295    20882441.968   -13030026.669 9  -9128773.119 8
  20672335.622    20672338.706    -3454341.292 9  -1696495.931 9
 86  6 12  0 43 59.0800000  0  4G 6G 8G 9G11
  20510531.077    20510532.684    -3719081.827 9    621004.214 9
  23445150.871    23445153.834    12858443.562 7  10827128.299 8
  20879983.505    20879985.295   -13042938.188 9  -9138834.042 8
  20673301.328    20673304.197    -3449269.242 9  -1692543.691 9
 86  6 12  0 44  5.0800000  0  4G 6G 8G 9G11
  20511212.482    20511213.487    -3715504.455 8    623791.775 8
  23449225.184    23449228.349    12879854.950 8  10843812.494 8
  20877529.549    20877530.675   -13055836.644 9  -9148884.780 8
  20674270.107    20674271.490    -3444176.444 9  -1688575.279 9
 86  6 12  0 44 11.0800000  0  4G 6G 8G 9G11
  20511897.062    20511898.195    -3711907.321 8    626594.732 8
  23453301.688    23453303.443    12901271.997 9  10860501.097 8
  20875078.202    20875078.998   -13068721.955 9  -9158925.286 8
  20675243.110    20675245.761    -3439063.008 8  -1684590.788 8
 86  6 12  0 44 17.0800000  0  4G 6G 8G 9G11
  20512585.075    20512585.380    -3708290.371 9    629413.138 9
  23457377.476    23457380.467    12922694.746 8  10877194.137 8
  20872629.306    20872629.876   -13081594.216 9  -9168955.612 9
  20676220.527    20676222.199    -3433928.856 8  -1680590.147 9
 86  6 12  0 44 23.0800000  0  4G 6G 8G 9G11
  20513277.440    20513278.531    -3704653.607 9    632246.967 9
  23461456.066    23461458.621    12944123.179 8  10893891.605 8
  20870182.491    20870182.365   -13094453.358 9  -9178975.721 9
  20677201.136    20677202.579    -3428773.951 8  -1676573.346 8
 86  6 12  0 44 29.0800000  0  4G 6G 8G 9G11
  20513973.953    20513973.214    -3700997.012 8    635096.258 8
  23465534.445    23465537.774    12965557.277 8  10910593.486 8
  20867737.389    20867738.687   -13107299.330 9  -9188985.565 8
  20678185.531    20678187.333    -3423598.424 8  -1672540.466 9
 86  6 12  0 44 35.0800000  0  4G 6G 8G 9G11
  20514673.129    20514674.162    -3697320.592 9    637961.004 8
  23469613.803    23469617.302    12986996.958 8  10927299.719 9
  20865295.272    20865296.223   -13120132.103 9  -9198985.129 9
  20679173.773    20679176.888    -3418402.219 9  -1668491.478 8
 86  6 12  0 44 41.0800000  0  4G 6G 8G 9G11
  20515377.199    20515376.672    -3693624.370 9    640841.173 8
  23473694.854    23473698.141    13008442.220 8  10944010.308 9
  20862855.597    20862857.274   -13132951.776 8  -9208974.483 8
  20680167.632    20680169.674    -3413185.396 9  -1664426.427 9
 86  6 12  0 44 47.0800000  0  4G 6G 8G 9G11
  20516083.959    20516084.864    -3689908.221 8    643736.870 8
  23477776.160    23477780.309    13029893.081 7  10960725.254 9
  20860418.377    20860419.320   -13145758.196 9  -9218953.500 8
  20681163.775    20681166.487    -3407947.935 8  -1660345.275 9
 86  6 12  0 44 53.0800000  0  4G 6G 8G 9G11
  20516794.838    20516795.100    -3686172.257 9    646648.001 8
  23481860.395    23481863.002    13051349.522 8  10977444.559 9
  20857983.765    20857984.843   -13158551.346 9  -9228922.210 8
  20682163.907    20682167.008    -3402689.832 9  -1656248.063 8
 86  6 12  0 44 59.0800000  0  4G 6G 8G 9G11
  20517509.125    20517509.901    -3682416.441 9    649574.629 8
  23485943.659    23485946.916    13072811.453 8  10994168.128 9
  20855552.493    20855553.168   -13171331.307 8  -9238880.612 8
  20683169.419    20683171.504    -3397411.165 8  -1652134.819 8
 86  6 12  0 45  5.0800000  0  4G 6G 8G 9G11
  20518228.018    20518227.479    -3678640.777 9    652516.693 8
  23490029.083    23490032.062    13094278.897 9  11010895.991 9
  20853122.459    20853123.467   -13184097.990 9  -9248828.674 9
  20684177.714    20684179.534    -3392111.937 8  -1648005.545 9
 86  6 12  0 45 11.0800000  0  4G 6G 8G 9G11
  20518950.461    20518950.564    -3674845.205 9    655474.284 8
  23494115.801    23494118.539    13115751.827 7  11027628.118 8
  20850695.703    20850697.254   -13196851.417 8  -9258766.410 8
  20685189.984    20685192.224    -3386792.120 7  -1643860.236 8
 86  6 12  0 45 17.0800000  0  4G 6G 8G 9G11
  20519675.965    20519676.384    -3671029.789 8    658447.334 8
  23498202.207    23498204.807    13137230.174 8  11044364.490 9
  20848271.227    20848272.403   -13209591.481 9  -9268693.731 9
  20686205.787    20686209.126    -3381451.746 8  -1639698.900 8
 86  6 12  0 45 23.0800000  0  4G 6G 8G 9G11
  20520405.163    20520405.581    -3667194.480 9    661435.889 8
  23502290.229    23502293.867    13158713.916 8  11061105.057 9
  20845849.096    20845850.469   -13222318.216 9  -9278610.668 9
  20687226.651    20687229.135    -3376090.858 7  -1635521.588 8
 86  6 12  0 45 29.0800000  0  4G 6G 8G 9G11
  20521137.907    20521139.326    -3663339.236 9    664439.972 9
  23506380.010    23506383.303    13180203.119 8  11077849.888 9
  20843429.820    20843431.071   -13235031.549 9  -9288517.159 9
  20688249.931    20688252.778    -3370709.437 9  -1631328.272 8
 86  6 12  0 45 35.0800000  0  4G 6G 8G 9G11
  20521876.919    20521877.780    -3659464.137 9    667459.531 8
  23510469.729    23510473.064    13201697.713 8  11094598.915 9
  20841013.222    20841015.048   -13247731.597 9  -9298413.299 8
  20689278.280    20689280.774    -3365307.542 9  -1627119.007 8
 86  6 12  0 45 41.0800000  0  4G 6G 8G 9G11
  20522617.590    20522618.424    -3655569.122 9    670494.609 8
  23514562.328    23514563.691    13223197.665 8  11111352.112 9
  20838599.136    20838601.850   -13260418.238 9  -9308298.985 9
  20690310.313    20690312.095    -3359885.253 8  -1622893.848 9
 86  6 12  0 45 47.0800000  0  4G 6G 8G 9G11
  20523361.927    20523364.062    -3651654.153 9    673545.219 8
  23518654.651    23518657.050    13244702.910 8  11128109.445 8
  20836188.048    20836190.850   -13273091.391 9  -9318174.178 8
  20691346.528    20691347.944    -3354442.513 9  -1618652.742 8
 86  6 12  0 45 53.0800000  0  4G 6G 8G 9G11
  20524111.526    20524113.277    -3647719.312 9    676611.331 9
  23522747.466    23522750.959    13266213.487 9  11144870.919 8
  20833778.645    20833779.244   -13285751.091 9  -9328038.871 8
  20692385.343    20692387.925    -3348979.249 8  -1614395.657 8
 86  6 12  0 45 59.0800000  0  4G 6G 8G 9G11
  20524864.362    20524864.565    -3643764.526 9    679692.972 8
  23526841.705    23526845.176    13287729.384 8  11161636.543 9
  20831372.107    20831372.894   -13298397.319 9  -9337893.064 9
  20693428.675    20693430.687    -3343495.505 8  -1610122.608 9
 86  6 12  0 46  5.0800000  0  4G 6G 8G 9G11
  20525619.172    20525623.238    -3639789.776 9    682790.181 9
  23530937.009    23530940.216    13309250.508 8  11178406.248 9
  20828968.015    20828969.573   -13311030.041 9  -9347736.753 8
  20694476.416    20694479.245    -3337991.334 9  -1605833.643 9
 86  6 12  0 46 11.0800000  0  4G 6G 8G 9G11
  20526380.592    20526382.185    -3635795.100 9    685902.912 8
  23535034.061    23535036.231    13330776.875 8  11195180.034 9
  20826567.054    20826568.230   -13323649.320 9  -9357569.953 8
  20695527.236    20695530.295    -3332466.739 9  -1601528.763 8
 86  6 12  0 46 17.0800000  0  4G 6G 8G 9G11
  20527144.874    20527145.880    -3631780.461 9    689031.208 9
  23539131.166    23539133.568    13352308.498 8  11211957.910 9
  20824168.082    20824169.305   -13336255.058 9  -9367392.611 8
  20696582.961    20696584.138    -3326921.751 9  -1597207.992 9
 86  6 12  0 46 23.0800000  0  4G 6G 8G 9G11
  20527911.761    20527913.082    -3627745.846 9    692175.059 9
  23543229.900    23543232.486    13373845.223 8  11228739.774 9
  20821771.604    20821773.588   -13348847.203 9  -9377204.660 8
  20697641.778    20697644.134    -3321356.361 8  -1592871.325 8
 86  6 12  0 46 29.0800000  0  4G 6G 8G 9G11
  20528683.369    20528685.148    -3623691.285 9    695334.455 9
  23547328.134    23547332.204    13395387.133 8  11245525.669 9
  20819379.175    20819379.570   -13361425.794 8  -9387006.161 9
  20698704.678    20698706.657    -3315770.583 9  -1588518.777 9
 86  6 12  0 46 35.0800000  0  4G 6G 8G 9G11
  20529457.954    20529460.120    -3619616.703 8    698509.453 9
  23551429.118    23551432.591    13416934.223 8  11262315.595 9
  20816987.901    20816989.407   -13373990.780 9  -9396797.057 8
  20699771.298    20699774.064    -3310164.457 9  -1584150.367 9
 86  6 12  0 46 41.0800000  0  4G 6G 8G 9G11
  20530237.149    20530239.241    -3615522.171 9    701699.986 8
  23555529.975    23555532.947    13438486.450 8  11279109.531 9
  20814599.811    20814600.044   -13386542.063 9  -9406577.279 8
  20700842.299    20700844.026    -3304538.001 9  -1579766.114 8
 86  6 12  0 46 47.0800000  0  4G 6G 8G 9G11
  20531020.947    20531023.554    -3611407.631 9    704906.123 8
  23559631.555    23559635.792    13460043.811 8  11295907.470 9
  20812213.085    20812214.168   -13399079.760 9  -9416346.910 9
  20701916.615    20701918.902    -3298891.206 9  -1575366.015 9
 86  6 12  0 46 53.0800000  0  4G 6G 8G 9G11
  20531806.924    20531809.818    -3607273.086 9    708127.841 9
  23563734.645    23563738.188    13481606.226 7  11312709.334 9
  20809830.933    20809831.565   -13411603.845 9  -9426105.937 8
  20702995.487    20702996.950    -3293224.130 9  -1570950.120 8
 86  6 12  0 46 59.0800000  0  4G 6G 8G 9G11
  20532597.934    20532600.371    -3603118.554 9    711365.135 9
  23567839.465    23567843.531    13503173.671 8  11329515.127 9
  20807448.967    20807450.701   -13424114.161 9  -9435854.239 8
  20704076.988    20704080.028    -3287536.748 8  -1566518.391 8
 86  6 12  0 47  5.0800000  0  4G 6G 8G 9G11
  20533392.408    20533393.986    -3598944.045 9    714618.000 9
  23571944.036    23571948.238    13524746.177 7  11346324.847 9
  20805070.379    20805072.668   -13436610.741 9  -9445591.836 9
  20705162.760    20705165.776    -3281829.064 8  -1562070.840 8
 86  6 12  0 47 11.0800000  0  4G 6G 8G 9G11
  20534190.748    20534192.897    -3594749.444 8    717886.518 8
  23576050.529    23576053.715    13546323.673 7  11363138.476 8
  20802695.456    20802696.450   -13449093.629 9  -9455318.747 8
  20706253.817    20706256.417    -3276101.063 9  -1557607.470 8
 86  6 12  0 47 17.0800000  0  4G 6G 8G 9G11
  20534992.176    20534994.556    -3590534.874 9    721170.595 9
  23580156.274    23580161.391    13567906.164 8  11379955.997 9
  20800323.076    20800324.343   -13461562.842 9  -9465035.019 8
  20707347.414    20707350.775    -3270352.866 9  -1553128.349 8
 86  6 12  0 47 23.0800000  0  4G 6G 8G 9G11
  20535799.501    20535800.792    -3586300.252 9    724470.290 8
  23584263.926    23584268.751    13589493.607 7  11396777.360 9
  20797952.453    20797954.348   -13474018.251 9  -9474740.537 8
  20708445.128    20708447.515    -3264584.434 9  -1548633.472 8
 86  6 12  0 47 29.0800000  0  4G 6G 8G 9G11
  20536608.544    20536609.505    -3582045.631 8    727785.575 8
  23588375.102    23588378.416    13611085.972 8  11413602.569 9
  20795585.240    20795586.896   -13486459.839 9  -9484435.284 9
  20709546.185    20709549.180    -3258795.810 9  -1544122.860 8
 86  6 12  0 47 35.0800000  0  4G 6G 8G 9G11
  20537422.306    20537424.027    -3577770.957 9    731116.487 9
  23592483.534    23592488.425    13632683.246 7  11430431.598 9
  20793219.137    20793221.285   -13498887.645 9  -9494119.279 8
  20710651.770    20710654.061    -3252987.004 9  -1539596.517 9
 86  6 12  0 47 41.0800000  0  4G 6G 8G 9G11
  20538238.787    20538240.995    -3573476.251 8    734463.008 7
  23596595.524    23596598.166    13654285.353 8  11447264.400 9
  20790856.874    20790859.638   -13511301.560 9  -9503792.461 8
  20711761.404    20711764.374    -3247157.991 8  -1535054.434 9
 86  6 12  0 47 47.0800000  0  4G 6G 8G 9G11
  20539060.765    20539062.486    -3569161.480 9    737825.175 8
  23600706.697    23600710.600    13675892.379 7  11464101.028 9
  20788497.392    20788499.259   -13523701.663 9  -9513454.873 8
  20712874.786    20712877.579    -3241308.788 8  -1530496.618 9
 86  6 12  0 47 53.0800000  0  4G 6G 8G 9G11
  20539885.146    20539886.338    -3564826.672 9    741202.946 9
  23604819.539    23604821.688    13697504.236 8  11480941.424 9
  20786140.179    20786142.491   -13536087.840 9  -9523106.442 8
  20713989.809    20713994.687    -3235439.471 8  -1525923.122 9
 86  6 12  0 47 59.0800000  0  4G 6G 8G 9G11
  20540713.649    20540715.328    -3560471.786 8    744596.354 7
  23608933.317    23608935.823    13719120.912 8  11497785.585 9
  20783786.452    20783788.727   -13548460.137 9  -9532747.186 8
  20715111.942    20715115.424    -3229549.972 8  -1521333.904 8
 86  6 12  0 48  5.0800000  0  4G 6G 8G 9G11
  20541545.555    20541548.822    -3556096.812 9    748005.421 9
  23613047.040    23613050.482    13740742.397 8  11514633.481 9
  20781434.578    20781436.345   -13560818.481 9  -9542377.079 9
  20716236.983    20716239.755    -3223640.332 8  -1516729.003 8
 86  6 12  0 48 11.0800000  0  4G 6G 8G 9G11
  20542382.014    20542384.680    -3551701.708 8    751430.169 9
  23617163.700    23617166.121    13762368.632 8  11531485.079 9
  20779085.534    20779087.403   -13573162.978 9  -9551996.159 9
  20717365.291    20717366.540    -3217710.571 8  -1512108.399 9
 86  6 12  0 48 17.0800000  0  4G 6G 8G 9G11
  20543222.707    20543225.100    -3547286.509 9    754870.586 8
  23621278.946    23621282.052    13783999.589 9  11548340.365 9
  20776739.675    20776741.564   -13585493.369 9  -9561604.248 8
  20718496.827    20718498.915    -3211760.707 9  -1507472.142 9
 86  6 12  0 48 23.0800000  0  4G 6G 8G 9G11
  20544066.892    20544068.070    -3542851.283 9    758326.605 8
  23625396.531    23625399.559    13805635.311 8  11565199.353 9
  20774395.463    20774396.516   -13597809.860 8  -9571201.513 8
  20719633.082    20719635.745    -3205790.746 8  -1502820.232 8
 86  6 12  0 48 29.0800000  0  4G 6G 8G 9G11
  20544915.282    20544916.403    -3538395.945 8    761798.292 8
  23629513.972    23629516.463    13827275.730 9  11582062.018 9
  20772054.380    20772056.107   -13610112.257 9  -9580787.803 9
  20720773.973    20720776.397    -3199800.726 8  -1498152.669 8
 86  6 12  0 48 35.0800000  0  4G 6G 8G 9G11
  20545766.137    20545768.345    -3533920.480 9    765285.664 8
  23633633.351    23633636.688    13848920.842 9  11598928.333 9
  20769716.185    20769718.112   -13622400.642 9  -9590363.168 8
  20721916.537    20721919.395    -3193790.622 8  -1493469.485 9
 86  6 12  0 48 41.0800000  0  4G 6G 8G 9G11
  20546623.170    20546623.905    -3529424.849 9    768788.748 8
  23637753.590    23637756.282    13870570.619 8  11615798.274 9
  20767381.541    20767381.574   -13634674.977 9  -9599927.571 8
  20723063.625    20723066.906    -3187760.436 8  -1488770.636 8
 86  6 12  0 48 47.0800000  0  4G 6G 8G 9G11
  20547481.408    20547482.814    -3524909.149 9    772307.476 8
  23641874.279    23641876.586    13892225.009 9  11632671.820 9
  20765046.661    20765048.130   -13646935.091 9  -9609480.923 8
  20724215.090    20724218.048    -3181710.277 9  -1484056.233 9
 86  6 12  0 48 53.0800000  0  4G 6G 8G 9G11
  20548345.224    20548345.872    -3520373.286 9    775841.913 8
  23645995.485    23645997.383    13913884.022 9  11649548.967 9
  20762717.181    20762718.521   -13659181.314 9  -9619023.416 8
  20725370.425    20725373.213    -3175640.132 8  -1479326.240 7
 86  6 12  0 48 59.0800000  0  4G 6G 8G 9G11
  20549212.334    20549213.637    -3515817.322 8    779392.007 8
  23650116.711    23650121.270    13935547.596 9  11666429.665 9
  20760388.660    20760390.387   -13671413.344 9  -9628554.868 8
  20726528.976    20726531.536    -3169549.949 9  -1474580.650 8
 86  6 12  0 49  5.0800000  0  4G 6G 8G 9G11
  20550082.847    20550083.765    -3511241.220 9    782957.808 8
  23654241.564    23654243.685    13957215.741 9  11683313.934 9
  20758063.885    20758065.269   -13683631.229 9  -9638075.291 9
  20727691.976    20727694.763    -3163439.837 9  -1469819.531 8
 86  6 12  0 49 11.0800000  0  4G 6G 8G 9G11
  20550958.111    20550957.156    -3506644.932 9    786539.319 8
  23658364.664    23658368.495    13978888.444 9  11700201.744 8
  20755741.870    20755742.725   -13695834.923 9  -9647584.665 8
  20728858.626    20728861.486    -3157309.760 8  -1465042.834 8
 86  6 12  0 49 17.0800000  0  4G 6G 8G 9G11
  20551835.952    20551836.469    -3502028.505 9    790136.535 9
  23662491.336    23662493.399    14000565.663 9  11717093.067 8
  20753422.521    20753422.844   -13708024.453 9  -9657082.995 9
  20730029.407    20730031.283    -3151159.715 9  -1460250.606 8
 86  6 12  0 49 23.0800000  0  4G 6G 8G 9G11
  20552717.684    20552718.876    -3497391.963 8    793749.420 9
  23666615.953    23666619.203    14022247.363 9  11733987.896 9
  20751105.284    20751106.279   -13720199.742 8  -9666570.243 7
  20731202.985    20731205.343    -3144989.772 9  -1455442.844 8
 86  6 12  0 49 29.0800000  0  4G 6G 8G 9G11
  20553604.854    20553605.872    -3492735.200 9    797378.077 8
  23670743.381    23670745.731    14043933.543 9  11750886.213 9
  20748790.537    20748792.701   -13732360.821 9  -9676046.399 9
  20732381.007    20732383.897    -3138799.882 9  -1450619.573 8
 86  6 12  0 49 35.0800000  0  4G 6G 8G 9G11
  20554495.142    20554495.248    -3488058.302 9    801022.414 8
  23674871.455    23674873.491    14065624.156 9  11767787.984 9
  20746479.238    20746481.228   -13744507.643 8  -9685511.456 8
  20733562.436    20733564.555    -3132590.145 8  -1445780.809 9
 86  6 12  0 49 41.0800000  0  4G 6G 8G 9G11
  20555387.865    20555388.554    -3483361.226 8    804682.472 8
  23678999.414    23679001.778    14087319.193 9  11784693.190 9
  20744170.591    20744172.798   -13756640.212 8  -9694965.395 9
  20734747.604    20734749.855    -3126360.492 8  -1440926.534 8
 86  6 12  0 49 47.0800000  0  4G 6G 8G 9G11
  20556286.137    20556284.997    -3478643.937 9    808358.277 8
  23683128.818    23683131.681    14109018.614 9  11801601.830 9
  20741864.194    20741867.405   -13768758.479 9  -9704408.201 8
  20735937.126    20735938.655    -3120110.974 8  -1436056.782 9
 86  6 12  0 49 53.0800000  0  4G 6G 8G 9G11
  20557187.502    20557187.906    -3473906.476 9    812049.794 9
  23687258.408    23687260.935    14130722.421 9  11818513.887 9
  20739561.620    20739563.600   -13780862.450 8  -9713839.864 8
  20737130.854    20737132.285    -3113841.654 9  -1431171.603 8
 86  6 12  0 49 59.0800000  0  4G 6G 8G 9G11
  20558092.129    20558093.663    -3469148.863 8    815757.030 9
  23691389.915    23691393.259    14152430.594 9  11835429.323 9
  20737261.015    20737261.434   -13792952.106 9  -9723260.370 9
  20738326.390    20738329.626    -3107552.506 8  -1426270.965 8
 86  6 12  0 50  5.0800000  0  4G 6G 8G 9G11
  20559001.821    20559002.198    -3464371.019 9    819480.030 8
  23695521.099    23695523.486    14174143.100 9  11852348.169 9
  20734963.081    20734965.287   -13805027.334 8  -9732669.643 9
  20739526.324    20739530.165    -3101243.546 9  -1421354.899 8
 86  6 12  0 50 11.0800000  0  4G 6G 8G 9G11
  20559914.834    20559915.783    -3459572.933 9    823218.779 8
  23699654.345    23699656.575    14195859.966 9  11869270.374 9
  20732667.912    20732670.070   -13817088.194 8  -9742067.703 9
  20740731.393    20740734.460    -3094914.803 9  -1416423.403 8
 86  6 12  0 50 17.0800000  0  4G 6G 8G 9G11
  20560831.880    20560832.129    -3454754.680 9    826973.265 8
  23703786.441    23703788.754    14217581.041 9  11886195.897 9
  20730376.178    20730377.631   -13829134.624 8  -9751454.530 9
  20741940.294    20741942.627    -3088566.277 8  -1411476.505 7
 86  6 12  0 50 23.0800000  0  4G 6G 8G 9G11
  20561752.676    20561753.011    -3449916.155 8    830743.550 9
  23707921.539    23707924.805    14239306.397 9  11903124.733 9
  20728086.211    20728088.202   -13841166.693 9  -9760830.170 9
  20743152.013    20743154.146    -3082197.984 9  -1406514.202 8
 86  6 12  0 50 29.0800000  0  4G 6G 8G 9G11
  20562676.707    20562677.297    -3445057.444 9    834529.551 8
  23712056.353    23712059.172    14261035.983 9  11920056.872 9
  20725798.775    20725801.208   -13853184.220 9  -9770194.478 9
  20744368.270    20744369.421    -3075809.944 9  -1401536.511 8
 86  6 12  0 50 35.0800000  0  4G 6G 8G 9G11
  20563606.118    20563605.750    -3440178.535 9    838331.310 9
  23716192.974    23716194.050    14282769.793 9  11936992.302 8
  20723515.511    20723516.846   -13865187.360 9  -9779547.569 8
  20745585.817    20745588.787    -3069402.199 8  -1396543.456 7
 86  6 12  0 50 41.0800000  0  4G 6G 8G 9G11
  20564536.987    20564539.280    -3435279.338 9    842148.851 9
  23720328.888    23720331.696    14304507.824 9  11953931.013 9
  20721232.745    20721235.906   -13877175.977 8  -9788889.344 8
  20746810.120    20746811.699    -3062974.719 8  -1391535.041 8
 86  6 12  0 50 47.0800000  0  4G 6G 8G 9G11
  20565473.180    20565474.703    -3430359.962 8    845982.119 9
  23724465.913    23724468.155    14326250.020 9  11970872.968 8
  20718955.425    20718956.762   -13889150.069 8  -9798219.800 8
  20748037.042    20748038.699    -3056527.602 9  -1386511.301 8
 86  6 12  0 50 53.0800000  0  4G 6G 8G 9G11
  20566414.067    20566414.356    -3425420.350 9    849831.173 8
  23728604.510    23728607.209    14347996.310 9  11987818.119 9
  20716678.968    20716680.889   -13901109.731 9  -9807539.036 9
  20749267.915    20749270.034    -3050060.828 8  -1381472.269 9
 86  6 12  0 50 59.0800000  0  4G 6G 8G 9G11
  20567358.101    20567358.906    -3420460.469 8    853696.002 9
  23732742.759    23732745.927    14369746.741 9  12004766.495 9
  20714405.257    20714408.435   -13913054.784 9  -9816846.868 8
  20750502.268    20750503.955    -3043574.431 8  -1376417.934 8
 86  6 12  0 51  5.0800000  0  4G 6G 8G 9G11
  20568305.427    20568305.431    -3415480.341 9    857576.629 9
  23736883.095    23736885.020    14391501.251 9  12021718.062 9
  20712137.123    20712137.141   -13924985.246 8  -9826143.310 8
  20751740.528    20751741.760    -3037068.319 9  -1371348.230 9
 86  6 12  0 51 11.0800000  0  4G 6G 8G 9G11
  20569256.758    20569257.793    -3410479.914 9    861473.046 9
  23741023.559    23741025.664    14413259.890 9  12038672.835 9
  20709868.616    20709868.683   -13936901.066 8  -9835428.355 8
  20752981.666    20752983.873    -3030542.584 8  -1366263.242 9
 86  6 12  0 51 17.0800000  0  4G 6G 8G 9G11
  20570211.525    20570213.332    -3405459.226 9    865385.268 7
  23745165.089    23745166.608    14435022.576 9  12055630.772 8
  20707602.995    20707604.778   -13948802.328 8  -9844702.079 9
  20754227.545    20754229.459    -3023997.232 8  -1361162.975 8
 86  6 12  0 51 23.0800000  0  4G 6G 8G 9G11
  20571171.671    20571171.461    -3400418.259 9    869313.298 8
  23749307.292    23749309.506    14456789.269 8  12072591.825 9
  20705341.573    20705343.043   -13960688.951 8  -9853964.379 9
  20755476.906    20755478.469    -3017432.286 9  -1356047.425 8
 86  6 12  0 51 29.0800000  0  4G 6G 8G 9G11
  20572135.422    20572134.742    -3395357.021 8    873257.113 8
  23753449.646    23753451.753    14478560.009 9  12089556.036 9
  20703083.343    20703083.957   -13972560.908 8  -9863215.250 8
  20756729.088    20756731.903    -3010847.792 9  -1350916.650 8
 86  6 12  0 51 35.0800000  0  4G 6G 8G 9G11
  20573102.039    20573102.242    -3390275.475 9    877216.769 9
  23757592.845    23757595.679    14500334.733 9  12106523.327 9
  20700826.045    20700827.952   -13984418.135 9  -9872454.642 8
  20757986.523    20757987.929    -3004243.682 8  -1345770.588 8
 86  6 12  0 51 41.0800000  0  4G 6G 8G 9G11
  20574072.287    20574073.322    -3385173.637 8    881192.216 9
  23761738.060    23761739.272    14522113.410 9  12123493.745 8
  20698572.753    20698574.297   -13996260.650 8  -9881682.577 9
  20759247.026    20759248.254    -2997619.988 9  -1340609.260 8
 86  6 12  0 51 47.0800000  0  4G 6G 8G 9G11
  20575046.514    20575047.706    -3380051.553 8    885183.449 8
  23765882.131    23765884.601    14543896.032 9  12140467.190 8
  20696321.350    20696322.863   -14008088.495 8  -9890899.069 9
  20760511.402    20760512.839    -2990976.738 8  -1335432.713 7
 86  6 12  0 51 53.0800000  0  4G 6G 8G 9G11
  20576025.492    20576026.883    -3374909.149 8    889190.502 8
  23770029.377    23770031.026    14565682.610 9  12157443.736 8
  20694073.610    20694075.702   -14019901.529 8  -9900104.035 9
  20761779.388    20761781.780    -2984313.969 9  -1330240.942 7
 86  6 12  0 51 59.0800000  0  4G 6G 8G 9G11
  20577008.331    20577008.437    -3369746.384 9    893213.425 8
  23774175.322    23774178.130    14587473.094 8  12174423.324 9
  20691828.150    20691829.634   -14031699.863 9  -9909297.541 8
  20763050.384    20763052.798    -2977631.711 8  -1325033.995 8
 86  6 12  0 52  5.0800000  0  4G 6G 8G 9G11
  20577994.093    20577994.869    -3364563.341 9    897252.174 9
  23778322.177    23778325.435    14609267.449 9  12191405.932 8
  20689586.430    20689588.456   -14043483.243 9  -9918479.387 8
  20764326.351    20764327.185    -2970929.919 9  -1319811.814 8
 86  6 12  0 52 11.0800000  0  4G 6G 8G 9G11
  20578984.832    20578985.122    -3359359.944 9    901306.771 8
  23782471.241    23782473.533    14631065.618 9  12208391.514 9
  20687347.801    20687347.541   -14055251.824 8  -9927649.714 8
  20765605.551    20765606.654    -2964208.685 9  -1314574.479 8
 86  6 12  0 52 17.0800000  0  4G 6G 8G 9G11
  20579979.463    20579980.282    -3354136.252 9    905377.179 9
  23786619.026    23786622.749    14652867.678 9  12225380.125 8
  20685110.161    20685111.817   -14067005.630 9  -9936808.526 8
  20766887.782    20766890.047    -2957467.985 9  -1309321.990 9
 86  6 12  0 52 23.0800000  0  4G 6G 8G 9G11
  20580976.929    20580977.420    -3348892.194 8    909463.465 8
  23790768.885    23790772.236    14674673.511 9  12242371.663 9
  20682876.850    20682877.263   -14078744.533 9  -9945955.706 8
  20768173.632    20768175.502    -2950707.850 9  -1304054.370 8
 86  6 12  0 52 29.0800000  0  4G 6G 8G 9G11
  20581978.972    20581979.276    -3343627.826 8    913565.548 8
  23794919.581    23794921.651    14696483.143 9  12259366.168 8
  20680646.386    20680646.779   -14090468.550 9  -9955091.338 8
  20769464.646    20769466.671    -2943928.299 9  -1298771.600 7
 86  6 12  0 52 35.0800000  0  4G 6G 8G 9G11
  20582984.052    20582984.771    -3338343.112 9    917683.503 8
  23799070.578    23799072.476    14718296.551 8  12276363.619 7
  20678416.726    20678419.080   -14102177.679 9  -9964215.314 9
  20770757.135    20770760.059    -2937129.349 9  -1293473.715 8
 86  6 12  0 52 41.0800000  0  4G 6G 8G 9G11
  20583993.020    20583994.569    -3333038.069 8    921817.310 9
  23803222.632    23803224.739    14740113.677 9  12293363.982 8
  20676191.887    20676193.646   -14113871.908 8  -9973327.716 8
  20772054.552    20772057.134    -2930310.918 8  -1288160.654 7
 86  6 12  0 52 47.0800000  0  4G 6G 8G 9G11
  20585006.712    20585007.847    -3327712.692 9    925966.950 9
  23807375.046    23807376.061    14761934.547 9  12310367.264 8
  20673969.461    20673970.816   -14125551.176 8  -9982428.420 9
  20773357.055    20773359.176    -2923473.105 9  -1282832.507 8
 86  6 12  0 52 53.0800000  0  4G 6G 8G 9G11
  20586023.609    20586025.329    -3322366.968 9    930132.445 8
  23811528.273    23811529.286    14783759.054 8  12327373.349 8
  20671748.836    20671751.231   -14137215.488 9  -9991517.494 9
  20774660.151    20774663.714    -2916615.985 8  -1277489.272 7
 86  6 12  0 52 59.0800000  0  4G 6G 8G 9G11
  20587045.113    20587046.905    -3317000.865 9    934313.806 8
  23815682.054    23815684.447    14805587.273 9  12344382.360 8
  20669532.266    20669535.187   -14148864.813 8 -10000594.894 8
  20775969.882    20775972.169    -2909739.509 9  -1272130.997 7
 86  6 12  0 53  5.0800000  0  4G 6G 8G 9G11
  20588069.624    20588072.102    -3311614.377 9    938511.065 8
  23819836.928    23819836.897    14827419.152 8  12361394.209 8
  20667319.134    20667320.758   -14160499.073 8 -10009660.550 8
  20777281.646    20777284.232    -2902843.774 8  -1266757.688 8
 86  6 12  0 53 11.0800000  0  4G 6G 8G 9G11
  20589099.168    20589100.101    -3306207.517 9    942724.209 8
  23823991.252    23823992.890    14849254.679 9  12378408.900 8
  20665107.718    20665109.988   -14172118.279 8 -10018714.470 8
  20778599.314    20778600.279    -2895928.708 9  -1261369.342 8
 86  6 12  0 53 17.0800000  0  4G 6G 8G 9G11
  20590131.777    20590132.739    -3300780.306 8    946953.208 8
  23828147.414    23828149.527    14871093.787 8  12395426.387 8
  20662899.790    20662901.396   -14183722.429 9 -10027756.669 8
  20779916.484    20779918.589    -2888994.395 8  -1255965.982 8
 86  6 12  0 53 23.0800000  0  4G 6G 8G 9G11
  20591168.391    20591169.954    -3295332.708 9    951198.080 8
  23832303.612    23832304.142    14892936.458 9  12412446.648 7
  20660693.960    20660695.655   -14195311.563 8 -10036787.158 8
  20781240.266    20781243.141    -2882040.733 9  -1250547.535 8
 86  6 12  0 53 29.0800000  0  4G 6G 8G 9G11
  20592209.185    20592210.978    -3289864.783 8    955458.805 9
  23836461.820    23836463.203    14914782.678 9  12429469.663 8
  20658491.411    20658493.352   -14206885.585 8 -10045805.872 8
  20782568.226    20782570.137    -2875067.839 8  -1245114.102 8
 86  6 12  0 53 35.0800000  0  4G 6G 8G 9G11
  20593252.467    20593254.376    -3284376.418 9    959735.452 9
  23840620.335    23840620.208    14936632.439 9  12446495.446 8
  20656292.552    20656293.736   -14218444.509 8 -10054812.823 8
  20783899.006    20783900.785    -2868075.711 9  -1239665.689 8
 86  6 12  0 53 41.0800000  0  4G 6G 8G 9G11
  20594300.588    20594302.879    -3278867.650 8    964028.001 7
  23844777.635    23844777.595    14958485.705 9  12463523.984 8
  20654096.871    20654097.225   -14229988.274 8 -10063807.959 8
  20785232.203    20785234.234    -2861064.360 9  -1234202.295 9
 86  6 12  0 53 47.0800000  0  4G 6G 8G 9G11
  20595353.630    20595354.778    -3273338.535 9    968336.394 9
  23848936.287    23848939.052    14980342.451 9  12480555.192 8
  20651901.567    20651902.367   -14241516.901 8 -10072791.308 8
  20786569.790    20786572.273    -2854033.749 9  -1228723.913 9
 86  6 12  0 53 53.0800000  0  4G 6G 8G 9G11
  20596409.532    20596411.596    -3267789.043 9    972660.652 9
  23853096.734    23853098.219    15002202.740 9  12497589.161 8
  20649710.315    20649712.547   -14253030.351 7 -10081762.832 8
  20787911.635    20787914.557    -2846983.975 9  -1223230.575 7
 86  6 12  0 53 59.0800000  0  4G 6G 8G 9G11
  20597469.043    20597471.420    -3262219.077 9    977000.890 9
  23857257.927    23857258.974    15024066.424 9  12514625.819 8
  20647524.412    20647525.547   -14264528.572 9 -10090722.483 8
  20789256.352    20789259.539    -2839915.082 8  -1217722.340 8
 86  6 12  0 54  5.0800000  0  4G 6G 8G 9G11
  20598533.474    20598535.351    -3256628.712 9    981357.016 9
  23861417.858    23861420.529    15045933.559 8  12531665.125 8
  20645337.510    20645340.299   -14276011.489 9 -10099670.207 9
  20790605.704    20790607.437    -2832827.002 8  -1212199.164 8
 86  6 12  0 54 11.0800000  0  4G 6G 8G 9G11
  20599602.027    20599603.504    -3251017.902 9    985729.073 8
  23865580.709    23865582.702    15067804.108 9  12548707.112 8
  20643156.263    20643156.642   -14287479.240 9 -10108606.114 8
  20791958.005    20791959.907    -2825719.810 9  -1206661.101 8
 86  6 12  0 54 17.0800000  0  4G 6G 8G 9G11
  20600672.011    20600674.031    -3245386.710 9    990117.023 8
  23869741.988    23869743.994    15089678.011 8  12565751.696 7
  20640977.054    20640977.941   -14298931.737 9 -10117530.137 8
  20793315.254    20793316.288    -2818593.505 9  -1201108.138 9
 86  6 12  0 54 23.0800000  0  4G 6G 8G 9G11
  20601747.805    20601749.840    -3239735.087 8    994520.877 8
  23873906.013    23873908.528    15111555.258 8  12582798.895 8
  20638800.740    20638801.673   -14310368.861 9 -10126442.193 8
  20794674.366    20794676.269    -2811448.125 9  -1195540.295 8
 86  6 12  0 54 29.0800000  0  4G 6G 8G 9G11
  20602827.089    20602828.681    -3234063.047 9    998940.636 8
  23878069.052    23878070.097    15133435.842 8  12599848.699 8
  20636626.737    20636627.056   -14321790.709 9 -10135342.325 9
  20796037.763    20796038.819    -2804283.629 9  -1189957.589 8
 86  6 12  0 54 35.0800000  0  4G 6G 8G 9G11
  20603910.923    20603912.674    -3228370.548 9   1003376.342 9
  23882234.020    23882235.704    15155319.794 8  12616901.122 8
  20634455.096    20634457.838   -14333197.205 9 -10144230.504 9
  20797404.837    20797406.430    -2797100.114 9  -1184360.029 9
 86  6 12  0 54 41.0800000  0  4G 6G 8G 9G11
  20604997.421    20605000.371    -3222657.635 9   1007827.942 8
  23886397.917    23886400.543    15177207.025 7  12633956.119 8
  20632288.471    20632288.171   -14344588.327 9 -10153106.681 8
  20798774.993    20798776.729    -2789897.512 9  -1178747.626 8
 86  6 12  0 54 47.0800000  0  4G 6G 8G 9G11
  20606088.868    20606090.303    -3216924.267 9   1012295.514 7
  23890563.859    23890565.750    15199097.515 7  12651013.623 8
  20630124.661    20630124.581   -14355964.075 8 -10161970.929 9
  20800148.968    20800151.138    -2782675.872 9  -1173120.372 8
 86  6 12  0 54 53.0800000  0  4G 6G 8G 9G11
  20607184.179    20607185.601    -3211170.431 9   1016779.025 9
  23894730.073    23894733.459    15220991.306 7  12668073.692 9
  20627962.152    20627961.987   -14367324.402 9 -10170823.109 8
  20801527.770    20801529.604    -2775435.185 9  -1167478.265 8
 86  6 12  0 54 59.0800000  0  4G 6G 8G 9G11
  20608283.298    20608282.843    -3205396.161 8   1021278.455 8
  23898897.512    23898899.609    15242888.280 6  12685136.254 9
  20625803.805    20625803.974   -14378669.322 9 -10179663.303 8
  20802908.684    20802910.333    -2768175.496 8  -1161821.393 8
 86  6 12  0 55  5.0800000  0  4G 6G 8G 9G11
  20609384.705    20609386.712    -3199601.416 9   1025793.839 8
  23903065.593    23903067.656    15264788.471 8  12702201.328 9
  20623647.452    20623648.162   -14389998.750 8 -10188491.438 9
  20804293.597    20804295.998    -2760896.877 9  -1156149.743 7
 86  6 12  0 55 11.0800000  0  4G 6G 8G 9G11
  20610492.294    20610493.057    -3193786.186 9   1030325.174 8
  23907233.653    23907235.157    15286691.812 7  12719268.860 9
  20621494.085    20621493.803   -14401312.744 9 -10197307.544 8
  20805682.321    20805684.251    -2753599.279 8  -1150463.291 8
 86  6 12  0 55 17.0800000  0  4G 6G 8G 9G11
  20611602.541    20611602.962    -3187950.505 9   1034872.458 9
  23911400.260    23911404.033    15308598.364 7  12736338.873 8
  20619344.423    20619344.637   -14412611.277 9 -10206111.603 8
  20807074.542    20807076.648    -2746282.778 8  -1144762.117 8
 86  6 12  0 55 23.0800000  0  4G 6G 8G 9G11
  20612717.716    20612717.562    -3182094.371 8   1039435.686 8
  23915571.705    23915573.532    15330508.021 7  12753411.317 8
  20617197.027    20617198.855   -14423894.204 9 -10214903.497 8
  20808470.260    20808472.618    -2738947.338 8  -1139046.183 8
 86  6 12  0 55 29.0800000  0  4G 6G 8G 9G11
  20613835.406    20613836.283    -3176217.728 8   1044014.879 8
  23919739.664    23919743.811    15352420.815 7  12770486.191 9
  20615052.800    20615053.064   -14435161.683 8 -10223683.352 8
  20809870.081    20809872.687    -2731592.941 8  -1133315.497 8
 86  6 12  0 55 35.0800000  0  4G 6G 8G 9G11
  20614957.504    20614957.693    -3170320.666 9   1048609.986 9
  23923911.432    23923912.751    15374336.675 8  12787563.478 9
  20612912.844    20612911.935   -14446413.562 8 -10232451.036 8
  20811273.215    20811276.456    -2724219.637 9  -1127570.072 8
 86  6 12  0 55 41.0800000  0  4G 6G 8G 9G11
  20616083.493    20616083.972    -3164403.114 9   1053221.067 8
  23928082.754    23928085.138    15396255.585 7  12804643.138 9
  20610773.469    20610775.533   -14457649.914 9 -10241206.640 8
  20812679.160    20812682.080    -2716827.463 8  -1121809.940 8
 86  6 12  0 55 47.0800000  0  4G 6G 8G 9G11
  20617212.660    20617214.582    -3158465.072 9   1057848.120 9
  23932252.745    23932256.605    15418177.585 7  12821725.194 8
  20608638.577    20608639.060   -14468870.684 8 -10249950.093 8
  20814090.008    20814091.924    -2709416.438 8  -1116035.103 7
 86  6 12  0 55 53.0800000  0  4G 6G 8G 9G11
  20618346.864    20618347.899    -3152506.524 9   1062491.147 9
  23936426.387    23936428.349    15440102.603 7  12838809.609 9
  20606507.277    20606506.761   -14480075.828 9 -10258681.378 8
  20815503.903    20815505.813    -2701986.503 9  -1110245.541 8
 86  6 12  0 55 59.0800000  0  4G 6G 8G 9G11
  20619484.903    20619487.552    -3146527.458 9   1067150.160 8
  23940599.189    23940601.309    15462030.575 8  12855896.330 8
  20604376.699    20604377.782   -14491265.359 9 -10267400.489 8
  20816922.191    20816922.982    -2694537.794 9  -1104441.354 9
 86  6 12  0 56  5.0800000  0  4G 6G 8G 9G11
  20620626.032    20620627.725    -3140527.949 9   1071825.076 8
  23944771.677    23944773.485    15483961.589 8  12872985.411 8
  20602250.589    20602251.388   -14502439.191 9 -10276107.391 8
  20818342.599    20818344.078    -2687070.262 8  -1098622.512 8
 86  6 12  0 56 11.0800000  0  4G 6G 8G 9G11
  20621771.424    20621773.360    -3134507.890 8   1076516.049 7
  23948945.927    23948948.921    15505895.534 8  12890076.806 9
  20600126.137    20600127.649   -14513597.287 8 -10284801.999 9
  20819767.012    20819768.719    -2679583.941 9  -1092789.011 8
 86  6 12  0 56 17.0800000  0  4G 6G 8G 9G11
  20622921.568    20622923.863    -3128467.392 9   1081222.907 8
  23953120.512    23953122.869    15527832.416 9  12907170.492 9
  20598006.402    20598007.986   -14524739.704 9 -10293484.389 8
  20821194.447    20821196.481    -2672078.861 8  -1086940.882 8
 86  6 12  0 56 23.0800000  0  4G 6G 8G 9G11
  20624074.433    20624076.354    -3122406.392 9   1085945.783 7
  23957293.681    23957297.397    15549772.250 8  12924266.438 9
  20595888.353    20595890.342   -14535866.462 8 -10302154.587 8
  20822626.638    20822628.154    -2664555.029 9  -1081078.147 8
 86  6 12  0 56 29.0800000  0  4G 6G 8G 9G11
  20625231.530    20625234.522    -3116324.833 8   1090684.633 8
  23961471.086    23961473.648    15571714.970 9  12941364.651 9
  20593775.401    20593776.405   -14546977.374 9 -10310812.445 8
  20824063.742    20824063.933    -2657012.411 9  -1075200.810 8
 86  6 12  0 56 35.0800000  0  4G 6G 8G 9G11
  20626392.779    20626395.287    -3110222.785 9   1095439.482 8
  23965646.601    23965650.101    15593660.531 8  12958465.077 9
  20591663.975    20591665.466   -14558072.644 9 -10319458.121 8
  20825500.815    20825503.115    -2649451.089 9  -1069308.864 8
 86  6 12  0 56 41.0800000  0  4G 6G 8G 9G11
  20627558.292    20627559.841    -3104100.222 9   1100210.308 8
  23969824.705    23969826.233    15615608.956 9  12975567.739 9
  20589554.972    20589556.090   -14569152.080 9 -10328091.429 9
  20826943.938    20826944.955    -2641871.030 9  -1063402.334 8
 86  6 12  0 56 47.0800000  0  4G 6G 8G 9G11
  20628728.040    20628728.927    -3097957.138 9   1104997.131 9
  23974000.744    23974004.223    15637560.177 8  12992672.580 8
  20587450.472    20587450.807   -14580215.691 9 -10336712.426 8
  20828389.707    20828391.375    -2634272.291 8  -1057481.235 7
 86  6 12  0 56 53.0800000  0  4G 6G 8G 9G11
  20629899.961    20629901.122    -3091793.511 8   1109799.946 8
  23978179.049    23978180.920    15659514.228 9  13009779.622 9
  20585347.143    20585348.003   -14591263.474 9 -10345321.114 8
  20829838.974    20829840.642    -2626654.903 8  -1051545.598 7
 86  6 12  0 56 59.0800000  0  4G 6G 8G 9G11
  20631076.461    20631079.543    -3085609.370 8   1114618.765 8
  23982356.210    23982359.554    15681471.083 9  13026888.857 9
  20583247.959    20583249.951   -14602295.391 9 -10353917.396 8
  20831292.234    20831293.644    -2619018.843 9  -1045595.435 9
 86  6 12  0 57  5.0800000  0  4G 6G 8G 9G11
  20632258.716    20632259.107    -3079404.660 8   1119453.597 8
  23986535.523    23986538.466    15703430.670 9  13044000.227 9
  20581152.716    20581152.727   -14613311.421 9 -10362501.316 8
  20832749.406    20832749.336    -2611364.197 9  -1039630.772 7
 86  6 12  0 57 11.0800000  0  4G 6G 8G 9G11
  20633443.145    20633444.836    -3073179.454 9   1124304.404 8
  23990715.512    23990716.772    15725393.001 9  13061113.714 9
  20579058.360    20579060.479   -14624311.619 8 -10371072.904 8
  20834208.375    20834209.985    -2603690.928 9  -1033651.604 8
 86  6 12  0 57 17.0800000  0  4G 6G 8G 9G11
  20634630.751    20634633.531    -3066933.671 8   1129171.243 8
  23994894.368    23994898.196    15747358.088 9  13078229.365 8
  20576968.505    20576969.660   -14635295.875 9 -10379632.080 9
  20835673.064    20835674.113    -2595999.040 9  -1027657.925 7
 86  6 12  0 57 23.0800000  0  4G 6G 8G 9G11
  20635823.164    20635826.259    -3060667.385 9   1134054.059 8
  23999074.770    23999077.856    15769325.844 9  13095347.083 9
  20574881.606    20574883.515   -14646264.201 9 -10388178.832 8
  20837140.754    20837140.404    -2588288.603 8  -1021649.788 8
 86  6 12  0 57 29.0800000  0  4G 6G 8G 9G11
  20637019.869    20637020.575    -3054380.529 9   1138952.907 8
  24003255.908    24003258.716    15791296.278 9  13112466.893 9
  20572796.741    20572798.126   -14657216.579 8 -10396713.144 8
  20838610.554    20838612.651    -2580559.576 9  -1015627.168 8
 86  6 12  0 57 35.0800000  0  4G 6G 8G 9G11
  20638220.239    20638222.576    -3048073.113 9   1143867.769 8
  24007436.897    24007440.017    15813269.401 9  13129588.793 9
  20570715.612    20570717.132   -14668152.963 9 -10405234.997 8
  20840085.396    20840085.758    -2572812.034 9  -1009590.128 8
 86  6 12  0 57 41.0800000  0  4G 6G 8G 9G11
  20639424.558    20639426.665    -3041745.154 9   1148798.665 7
  24011618.537    24011622.186    15835245.128 9  13146712.732 9
  20568638.053    20568640.390   -14679073.293 9 -10413744.353 9
  20841562.086    20841563.470    -2565045.921 9  -1003538.609 8
 86  6 12  0 57 47.0800000  0  4G 6G 8G 9G11
  20640633.140    20640633.960    -3035396.643 8   1153745.546 8
  24015801.263    24015803.971    15857223.440 9  13163838.688 9
  20566562.523    20566564.835   -14689977.625 8 -10422241.235 9
  20843043.593    20843045.621    -2557261.268 9   -997472.640 9
 86  6 12  0 57 53.0800000  0  4G 6G 8G 9G11
  20641843.926    20641846.721    -3029027.563 9   1158708.471 8
  24019984.964    24019986.324    15879204.377 9  13180966.694 9
  20564491.317    20564493.571   -14700865.958 9 -10430725.644 8
  20844529.774    20844530.345    -2549458.170 8   -991392.305 7
 86  6 12  0 57 59.0800000  0  4G 6G 8G 9G11
  20643060.579    20643061.829    -3022637.908 9   1163687.420 8
  24024168.248    24024170.805    15901187.857 9  13198096.670 9
  20562421.973    20562423.664   -14711738.182 9 -10439197.490 9
  20846017.931    20846019.982    -2541636.590 9   -985297.569 8
 86  6 12  0 58  5.0800000  0  4G 6G 8G 9G11
  20644281.039    20644281.273    -3016227.695 9   1168682.387 9
  24028351.455    24028354.491    15923173.911 9  13215228.630 8
  20560355.810    20560357.798   -14722594.344 9 -10447656.858 8
  20847509.368    20847511.240    -2533796.575 9   -979188.468 8
 86  6 12  0 58 11.0800000  0  4G 6G 8G 9G11
  20645503.559    20645505.381    -3009796.964 9   1173693.347 9
  24032536.086    24032537.233    15945162.455 9  13232362.572 9
  20558294.750    20558295.404   -14733434.393 8 -10456103.627 9
  20849004.290    20849006.864    -2525938.137 9   -973065.017 9
 86  6 12  0 58 17.0800000  0  4G 6G 8G 9G11
  20646732.633    20646732.622    -3003345.585 9   1178720.372 9
  24036719.837    24036723.766    15967153.483 9  13249498.433 9
  20556232.676    20556234.784   -14744258.258 9 -10464537.814 9
  20850503.949    20850505.366    -2518061.280 9   -966927.203 7
 86  6 12  0 58 23.0800000  0  4G 6G 8G 9G11
  20647963.109    20647965.173    -2996873.663 8   1183763.430 9
  24040907.363    24040908.103    15989147.006 9  13266636.228 9
  20554176.127    20554179.228   -14755066.090 9 -10472959.496 9
  20852005.796    20852009.000    -2510165.983 9   -960775.020 8
 86  6 12  0 58 29.0800000  0  4G 6G 8G 9G11
  20649199.279    20649200.600    -2990381.232 9   1188822.465 9
  24045091.650    24045093.270    16011143.027 9  13283775.983 8
  20552123.864    20552125.378   -14765857.591 9 -10481368.466 8
  20853511.238    20853514.884    -2502252.244 8   -954608.465 8
 86  6 12  0 58 35.0800000  0  4G 6G 8G 9G11
  20650437.625    20650440.291    -2983868.090 9   1193897.632 8
  24049278.683    24049281.299    16033141.473 9  13300917.628 9
  20550073.006    20550074.632   -14776632.953 9 -10489764.852 8
  20855021.364    20855023.929    -2494320.113 9   -948427.600 9
 86  6 12  0 58 41.0800000  0  4G 6G 8G 9G11
  20651679.864    20651682.886    -2977334.435 9   1198988.811 9
  24053464.502    24053467.330    16055142.352 9  13318061.157 9
  20548026.081    20548025.789   -14787392.181 9 -10498148.643 9
  20856534.196    20856536.092    -2486369.679 9   -942232.453 8
 86  6 12  0 58 47.0800000  0  4G 6G 8G 9G11
  20652928.111    20652930.032    -2970780.149 9   1204096.032 8
  24057652.481    24057653.620    16077145.621 9  13335206.550 8
  20545980.735    20545982.486   -14798135.067 9 -10506519.740 8
  20858050.728    20858053.632    -2478400.918 9   -936023.017 8
 86  6 12  0 58 53.0800000  0  4G 6G 8G 9G11
  20654180.280    20654180.542    -2964205.308 8   1209219.276 8
  24061839.272    24061841.277    16099151.279 9  13352353.807 9
  20543939.001    20543941.682   -14808861.686 9 -10514878.154 9
  20859571.411    20859572.520    -2470413.795 9   -929799.301 8
 86  6 12  0 58 59.0800000  0  4G 6G 8G 9G11
  20655434.737    20655436.087    -2957609.871 9   1214358.576 8
  24066027.995    24066029.787    16121159.239 9  13369502.862 9
  20541901.695    20541903.565   -14819572.002 9 -10523223.848 9
  20861093.756    20861096.746    -2462408.399 9   -923561.337 7
 86  6 12  0 59  5.0800000  0  4G 6G 8G 9G11
  20656693.946    20656695.395    -2950993.750 9   1219513.974 8
  24070215.952    24070219.459    16143169.551 9  13386653.738 9
  20539866.298    20539867.964   -14830266.092 8 -10531556.904 8
  20862621.158    20862623.079    -2454384.731 9   -917309.120 8
 86  6 12  0 59 11.0800000  0  4G 6G 8G 9G11
  20657956.531    20657957.809    -2944357.087 8   1224685.406 9
  24074404.947    24074405.935    16165182.214 9  13403806.447 9
  20537836.116    20537835.290   -14840943.848 8 -10539877.220 8
  20864150.836    20864153.952    -2446342.789 9   -911042.666 8
 86  6 12  0 59 17.0800000  0  4G 6G 8G 9G11
  20659223.640    20659224.558    -2937699.782 9   1229872.928 8
  24078594.162    24078595.875    16187197.138 8  13420960.917 9
  20535806.071    20535806.879   -14851605.311 9 -10548184.857 8
  20865684.863    20865687.047    -2438282.556 9   -904761.972 8
 86  6 12  0 59 23.0800000  0  4G 6G 8G 9G11
  20660494.066    20660495.502    -2931021.865 9   1235076.478 9
  24082783.757    24082785.334    16209214.300 9  13438117.151 9
  20533780.581    20533781.987   -14862250.257 9 -10556479.634 8
  20867222.403    20867224.072    -2430204.113 9   -898467.092 9
 86  6 12  0 59 29.0800000  0  4G 6G 8G 9G11
  20661769.359    20661769.706    -2924323.385 8   1240296.084 8
  24086973.775    24086975.875    16231233.780 9  13455275.181 9
  20531756.184    20531758.050   -14872878.835 9 -10564761.635 8
  20868763.067    20868765.373    -2422107.461 8   -892157.992 8
 86  6 12  0 59 35.0800000  0  4G 6G 8G 9G11
  20663047.342    20663049.534    -2917604.275 8   1245531.751 9
  24091164.358    24091166.621    16253255.405 9  13472434.886 9
  20529737.409    20529740.459   -14883491.029 9 -10573030.882 8
  20870307.156    20870309.502    -2413992.598 9   -885834.734 9
 86  6 12  0 59 41.0800000  0  4G 6G 8G 9G11
  20664330.446    20664332.295    -2910864.544 9   1250783.494 9
  24095355.879    24095357.654    16275279.297 8  13489596.354 9
  20527721.840    20527725.569   -14894086.879 8 -10581287.387 8
  20871856.410    20871856.504    -2405859.620 9   -879497.345 9
 86  6 12  0 59 47.0800000  0  4G 6G 8G 9G11
  20665616.841    20665617.776    -2904104.232 8   1256051.266 7
  24099547.713    24099548.882    16297305.351 9  13506759.494 9
  20525708.921    20525710.516   -14904666.198 8 -10589531.018 8
  20873406.312    20873407.873    -2397708.481 9   -873145.809 9
 86  6 12  0 59 53.0800000  0  4G 6G 8G 9G11
  20666907.473    20666907.421    -2897323.268 9   1261335.136 8
  24103738.589    24103741.317    16319333.566 9  13523924.309 9
  20523699.131    20523699.735   -14915229.071 9 -10597761.812 9
  20874961.829    20874962.677    -2389539.185 9   -866780.119 8
 86  6 12  0 59 59.0800000  0  4G 6G 8G 9G11
  20668201.454    20668203.118    -2890521.653 9   1266635.055 9
  24107930.911    24107932.943    16341363.921 9  13541090.824 9
  20521692.712    20521693.460   -14925775.507 8 -10605979.811 9
  20876518.910    20876520.645    -2381351.713 9   -860400.288 9
 86  6 12  1  0  5.0800000  0  4G 6G 8G 9G11
  20669500.241    20669501.018    -2883699.408 8   1271951.087 8
  24112123.655    24112125.953    16363396.361 9  13558258.940 9
  20519687.874    20519690.597   -14936305.335 9 -10614184.876 9
  20878080.642    20878082.882    -2373146.181 9   -854006.365 9
 86  6 12  1  0 11.0800000  0  4G 6G 8G 9G11
  20670802.408    20670803.726    -2876856.557 9   1277283.192 8
  24116316.977    24116319.748    16385430.888 8  13575428.705 8
  20517687.974    20517689.813   -14946818.668 8 -10622377.090 9
  20879645.234    20879647.626    -2364922.604 8   -847598.387 7
 86  6 12  1  0 17.0800000  0  4G 6G 8G 9G11
  20672107.517    20672108.884    -2869993.034 8   1282631.374 9
  24120509.935    24120512.019    16407467.510 9  13592600.082 9
  20515689.888    20515692.311   -14957315.465 9 -10630556.396 8
  20881212.771    20881215.612    -2356680.995 9   -841176.356 8
 86  6 12  1  0 23.0800000  0  4G 6G 8G 9G11
  20673418.498    20673419.475    -2863108.927 9   1287995.631 8
  24124704.017    24124706.072    16429506.204 9  13609773.076 9
  20513695.385    20513697.929   -14967795.597 8 -10638722.744 8
  20882785.847    20882786.431    -2348421.284 8   -834740.209 9
 86  6 12  1  0 29.0800000  0  4G 6G 8G 9G11
  20674731.624    20674733.846    -2856204.129 9   1293375.981 8
  24128899.336    24128901.320    16451546.911 9  13626947.640 8
  20511705.226    20511706.580   -14978259.179 9 -10646876.187 8
  20884360.946    20884362.029    -2340143.574 8   -828290.022 8
 86  6 12  1  0 35.0800000  0  4G 6G 8G 9G11
  20676050.130    20676050.907    -2849278.723 9   1298772.399 8
  24133092.446    24133095.273    16473589.625 8  13644123.774 9
  20509716.358    20509719.051   -14988706.248 8 -10655016.732 9
  20885938.319    20885940.491    -2331847.844 9   -821825.838 8
 86  6 12  1  0 41.0800000  0  4G 6G 8G 9G11
  20677372.414    20677372.733    -2842332.701 9   1304184.890 8
  24137288.302    24137289.805    16495634.352 8  13661301.473 9
  20507731.888    20507733.212   -14999136.586 8 -10663144.263 8
  20887521.151    20887522.822    -2323534.130 8   -815347.622 8
 86  6 12  1  0 47.0800000  0  4G 6G 8G 9G11
  20678696.616    20678698.693    -2835365.990 8   1309613.487 8
  24141483.992    24141485.117    16517681.033 9  13678480.683 9
  20505750.812    20505751.598   -15009550.156 8 -10671258.747 8
  20889106.413    20889109.465    -2315202.496 8   -808855.437 9
 86  6 12  1  0 53.0800000  0  4G 6G 8G 9G11
  20680027.027    20680028.031    -2828378.683 9   1315058.137 8
  24145678.718    24145682.103    16539729.638 8  13695661.398 9
  20503772.033    20503774.125   -15019947.094 7 -10679360.272 9
  20890694.949    20890698.139    -2306852.909 9   -802349.281 8
 86  6 12  1  0 59.0800000  0  4G 6G 8G 9G11
  20681360.128    20681362.076    -2821370.699 9   1320518.896 7
  24149875.080    24149877.215    16561780.257 8  13712843.687 9
  20501796.490    20501798.358   -15030327.352 8 -10687448.762 8
  20892287.390    20892289.962    -2298485.345 8   -795829.095 7
 86  6 12  1  1  5.0800000  0  4G 6G 8G 9G11
  20682696.863    20682698.600    -2814342.039 9   1325995.773 8
  24154072.611    24154073.843    16583832.703 9  13730027.410 9
  20499824.054    20499826.076   -15040690.936 9 -10695524.282 9
  20893884.538    20893884.902    -2290099.840 9   -789294.949 8
 86  6 12  1  1 11.0800000  0  4G 6G 8G 9G11
  20684039.609    20684040.715    -2807292.753 9   1331488.724 8
  24158268.652    24158271.595    16605887.051 9  13747212.612 8
  20497854.818    20497856.043   -15051037.688 9 -10703586.698 9
  20895482.385    20895483.556    -2281696.443 8   -782746.833 8
 86  6 12  1  1 17.0800000  0  4G 6G 8G 9G11
  20685383.872    20685385.678    -2800222.842 9   1336997.749 8
  24162466.906    24162468.082    16627943.271 8  13764399.258 8
  20495889.638    20495890.922   -15061367.787 8 -10711636.118 8
  20897085.447    20897087.022    -2273275.149 9   -776184.789 9
 86  6 12  1  1 23.0800000  0  4G 6G 8G 9G11
  20686733.745    20686735.622    -2793132.231 8   1342522.894 9
  24166661.775    24166665.753    16650001.347 8  13781587.347 9
  20493928.441    20493927.873   -15071681.021 8 -10719672.399 9
  20898691.117    20898692.392    -2264836.014 9   -769608.837 8
 86  6 12  1  1 29.0800000  0  4G 6G 8G 9G11
  20688086.478    20688089.328    -2786021.000 9   1348064.105 9
  24170861.249    24170863.677    16672061.198 8  13798776.835 9
  20491967.603    20491969.849   -15081977.376 9 -10727695.553 9
  20900300.665    20900303.222    -2256379.033 9   -763018.997 7
 86  6 12  1  1 35.0800000  0  4G 6G 8G 9G11
  20689444.734    20689446.125    -2778889.027 9   1353621.483 7
  24175059.367    24175060.999    16694122.888 8  13815967.749 8
  20490012.202    20490012.862   -15092256.980 8 -10735705.631 9
  20901912.593    20901915.408    -2247904.188 9   -756415.226 8
 86  6 12  1  1 41.0800000  0  4G 6G 8G 9G11
  20690805.910    20690807.744    -2771736.436 8   1359194.942 8
  24179257.892    24179259.903    16716186.378 8  13833160.071 9
  20488057.874    20488060.844   -15102519.605 8 -10743702.471 9
  20903529.469    20903532.034    -2239411.533 9   -749797.565 7
 86  6 12  1  1 47.0800000  0  4G 6G 8G 9G11
  20692170.807    20692172.870    -2764563.187 9   1364784.492 8
  24183457.180    24183458.370    16738251.600 8  13850353.741 9
  20486109.165    20486111.646   -15112765.460 9 -10751686.265 8
  20905148.973    20905150.816    -2230901.048 9   -743165.999 8
 86  6 12  1  1 53.0800000  0  4G 6G 8G 9G11
  20693540.367    20693539.685    -2757369.203 9   1370390.176 8
  24187656.965    24187658.763    16760318.601 8  13867548.812 9
  20484162.048    20484163.780   -15122994.416 8 -10759656.871 8
  20906771.312    20906773.456    -2222372.738 9   -736520.573 8
 86  6 12  1  1 59.0800000  0  4G 6G 8G 9G11
  20694913.592    20694913.796    -2750154.614 9   1376011.934 9
  24191855.782    24191857.644    16782387.310 8  13884745.176 8
  20482218.649    20482219.193   -15133206.434 9 -10767614.285 8
  20908398.432    20908399.328    -2213826.687 9   -729861.320 8
 86  6 12  1  2  5.0800000  0  4G 6G 8G 9G11
  20696290.307    20696290.069    -2742919.343 8   1381649.817 8
  24196056.108    24196058.401    16804457.756 9  13901942.893 8
  20480278.044    20480280.254   -15143401.542 9 -10775558.535 9
  20910027.311    20910029.570    -2205262.923 9   -723188.238 8
 86  6 12  1  2 11.0800000  0  4G 6G 8G 9G11
  20697670.773    20697671.377    -2735663.386 9   1387303.781 8
  24200253.728    24200257.069    16826529.790 8  13919141.883 8
  20478341.188    20478344.077   -15153579.707 9 -10783489.566 8
  20911660.283    20911662.821    -2196681.470 8   -716501.403 8
